[[{"header":{"parameterUnit":"m.s-1","parameterCategory":1,"la1":30.6,"la2":29.2853,"lo1":-89.7004,"lo2":-87.6739,"dy":0.0162,"dx":0.0183,"nx":112,"ny":82,"refTime":"2023-06-05T18:00:00:Z","depth":0,"parameterNumber":2,"parameterNumberName":"U-component_of_WINDS"},"data":[0.0,0.0,0.0,0.0,0.0,0.0,0.0,0.0,0.0,0.0,0.0,0.0,0.0,0.0,0.0,0.0,0.0,0.0,0.0,0.0,0.0,0.0,0.0,0.0,0.0,0.0,0.0,0.0,0.0,0.0,0.0,0.0,0.0,0.0,0.0,0.0,0.0,0.0,0.0,0.0,0.0,0.0,0.0,0.0,0.0,0.0,0.0,0.0,0.0,0.0,0.0,0.0,0.0,0.0,0.0,0.0,0.0,0.0,0.0,0.0,0.0,0.0,0.0,0.0,0.0,0.0,0.0,0.0,0.0,0.0,0.0,0.0,0.0,0.0,0.0,0.0,0.0,0.0,0.0,0.0,0.0,0.0,0.0,0.0,0.0,0.0,0.0,0.0,0.0,0.0,0.2303,0.158,0.0595,0.0,0.0,0.0,0.0,0.0,0.0,0.0,0.0,0.0,0.0,0.0,0.0,0.0,0.0,0.0,0.0,0.0,0.0,0.0,0.0,0.0,0.0,0.0,0.0,0.0,0.0,0.0,0.0,0.0,0.0,0.0,0.0,0.0,0.0,0.0,0.0,0.0,0.0,0.0,0.0,0.0,0.0,0.0,0.0,0.0,0.0,0.0,0.0,0.0,0.0,0.0,0.0,0.0,0.0,0.0,0.0,0.0,0.0,0.0,0.0,0.0,0.0,0.0,0.0,0.0,0.0,0.0,0.0,0.0,0.0,0.0,0.0,0.0,0.0,0.0,0.0,0.0,0.0,0.0,0.0,0.0,0.0,0.0,0.0,0.0,0.0,0.0,0.0,0.0,0.0,0.0,0.0,0.0,0.0,0.0,0.0,0.0,0.0,0.0,0.0,0.0,0.0,0.0,0.0,0.0,0.0,0.0,0.0,0.0,0.1642,0.0385,0.0111,0.0,0.0,0.0,0.0,0.0,0.0,0.0,0.0,0.0,0.0,0.0,0.0,0.0,0.0,0.0,0.0,0.0,0.0,0.0,0.0,0.0,0.0,0.0,0.0,0.0,0.0,0.0,0.0,0.0,0.0,0.0,0.0,0.0,0.0,0.0,0.0,0.0,0.0,0.0,0.0,0.0,0.0,0.0,0.0,0.0,0.0,0.0,0.0,0.0,0.0,0.0,0.0,0.0,0.0,0.0,0.0,0.0,0.0,0.0,0.0,0.0,0.0,0.0,0.0,0.0,0.0,0.0,0.0,0.0,0.0,0.0,0.0,0.0,0.0,0.0,0.0,0.0,0.0,0.0,0.0,0.0,0.0,0.0,0.0,0.0,0.0,0.0,0.0,0.0,0.0,0.0,0.0,0.0,0.0,0.0,0.0,0.0,0.0,0.0,0.0,0.0,0.0,0.0,0.0,0.0,0.0,0.0,0.0,0.2075,0.1025,0.0112,0.0,0.0,0.0,0.0,0.0152,0.0455,0.0763,0.0,0.0,0.0,0.0,0.0,0.0,0.0,0.0,0.0,0.0,0.0,0.0,0.0,0.0,0.0,0.0,0.0,0.0,0.0,0.0,0.0,0.0,0.0,0.0,0.0,0.0,0.0,0.0,0.0,0.0,0.0,0.0,0.0,0.0,0.0,0.0,0.0,0.0,0.0,0.0,0.0,0.0,0.0,0.0,0.0,0.0,0.0,0.0,0.0,0.0,0.0,0.0,0.0,0.0,0.0,0.0,0.0,0.0,0.0,0.0,0.0,0.0,0.0,0.0,0.0,0.0,0.0,0.0,0.0,0.0,0.0,0.0,0.0,0.0,0.0,0.0,0.0,0.0,0.0,0.0,0.0,0.0,0.0,0.0,0.0,0.0,0.0,0.0,0.0,0.0,0.0,0.0,0.0,0.0,0.0,0.0,0.0,0.0,0.0,0.0,0.0,0.0,0.1475,0.0707,0.0056,0.0,0.0,0.0,0.0105,0.0401,0.0857,0.1114,0.0,0.0,0.0,0.0,0.0,0.0,0.0,0.0,0.0,0.0,0.0,0.0,0.0,0.0,0.0,0.0,0.0,0.0,0.0,0.0,0.0,0.0,0.0,0.0,0.0,0.0,0.0,0.0,0.0,0.0,0.0,0.0,0.0,0.0,0.0,0.0,0.0,0.0,0.0,0.0,0.0,0.0,0.0,0.0,0.0,0.0,0.0,0.0,0.0,0.0,0.0,0.0,0.0,0.0,0.0,0.0,0.0,0.0,0.0,0.0,0.0,0.0,0.0,0.0,0.0,0.0,0.0,0.0,0.0,0.0,0.0,0.0,0.0,0.0,0.0,0.0,0.0,0.0,0.0,0.0,0.0,0.0,0.0,0.0,0.0,0.0,0.0,0.0,0.0,0.0,0.0,0.0,0.0,0.0,0.0,0.0,0.0,0.0,0.0,0.0,0.0,0.0,0.1561,0.0781,0.0056,0.0,0.0,0.0,0.0408,0.0728,0.0906,0.1851,0.0,0.0,0.0,0.0,0.0,0.0,0.0,0.0,0.0,0.0,0.0,0.0,0.0,0.0,0.0,0.0,0.0,0.0,0.0,0.0,0.0,0.0,0.0,0.0,0.0,0.0,0.0,0.0,0.0,0.0,0.0,0.0,0.0,0.0,0.0,0.0,0.0,0.0,0.0,0.0,0.0,0.0,0.0,0.0,0.0,0.0,0.0,0.0,0.0,0.0,0.0,0.0,0.0,0.0,0.0,0.0,0.0,0.0,0.0,0.0,0.0,0.0,0.0,0.0,0.0,0.0,0.0,0.0,0.0,0.0,0.0,0.0,0.0,0.0,0.0,0.0,0.0,0.0,0.0,0.0,0.0,0.0,0.0,0.0,0.0,0.0,0.0,0.0,0.0,0.0,0.0,0.0,0.0,0.0,0.0,0.0,0.0,0.0,0.0,0.0,0.0,0.0,0.1174,0.028,0.0056,0.0,0.0,0.0,0.0151,0.0623,0.1407,0.0,0.0,0.0,0.0,0.0,0.0,0.0,0.0,0.0,0.0,0.0,0.0,0.0,0.0,0.0,0.0,0.0,0.0,0.0,0.0,0.0,0.0,0.0,0.0,0.0,0.0,0.0,0.0,0.0,0.0,0.0,0.0,0.0,0.0,0.0,0.0,0.0,0.0,0.0,0.0,0.0,0.0,0.0,0.0,0.0,0.0,0.0,0.0,0.0,0.0,0.0,0.0,0.0,0.0,0.0,0.0,0.0,0.0,0.0,0.0,0.0,0.0,0.0,0.0,0.0,0.0,0.0,0.0,0.0,0.0,0.0,0.0,0.0,0.0,0.0,0.0,0.0,0.0,0.0,0.0,0.0,0.0,0.0,0.0,0.0,0.0,0.0,0.0,0.0,0.0,0.0,0.0,0.0,0.0,0.0,0.0,0.0,0.0,0.0,0.0,0.0,0.0,0.2174,0.0895,0.0,0.0,0.0,0.0,0.0,0.0148,0.0709,0.1786,0.0,0.0,0.0,0.0,0.0,0.0,0.0,0.0,0.0,0.0,0.0,0.0,0.0,0.0,0.0,0.0,0.0,0.0,0.0,0.0,0.0,0.0,0.0,0.0,0.0,0.0,0.0,0.0,0.0,0.0,0.0,0.0,0.0,0.0,0.0,0.0,0.0,0.0,0.0,0.0,0.0,0.0,0.0,0.0,0.0,0.0,0.0,0.0,0.0,0.0,0.0,0.0,0.0,0.0,0.0,0.0,0.0,0.0,0.0,0.0,0.0,0.0,0.0,0.0,0.0,0.0,0.0,0.0,0.0,0.0,0.0,0.0,0.0,0.0,0.0,0.0,0.0,0.0,0.0,0.0,0.0,0.0,0.0,0.0,0.0,0.0,0.0,0.0,0.0,0.0,0.0,0.0,0.0,0.0,0.0,0.0,0.0,0.0,0.0,0.0,0.0,0.0,0.2174,0.0894,0.0,0.0,0.0,0.0,0.0,0.0432,0.1065,0.0,0.0,0.0,0.0,0.0,0.0,0.0,0.0,0.0,0.0,0.0,0.0,0.0,0.0,0.0,0.0,0.0,0.0,0.0,0.0,0.0,0.0,0.0,0.0,0.0,0.0,0.0,0.0,0.0,0.0,0.0,0.0,0.0,0.0,0.0,0.0,0.0,0.0,0.0,0.0,0.0,0.0,0.0,0.0,0.0,0.0,0.0,0.0,0.0,0.0,0.0,0.0,0.0,0.0,0.0,0.0,0.0,0.0,0.0,0.0,0.0,0.0,0.0,0.0,0.0,0.0,0.0,0.0,0.0,0.0,0.0,0.0,0.0,0.0,0.0,0.0,0.0,0.0,0.0,0.0,0.0,0.0,0.0,0.0,0.0,0.0,0.0,0.0,0.0,0.0,0.0,0.0,0.0,0.0,0.0,0.0,0.0,0.0,0.0,0.0,0.0,0.0,0.0,0.2223,0.0931,0.0,0.0,0.0,0.0,0.0,0.052,0.1189,0.1975,0.0,0.0,0.0,0.0,0.0,0.0,0.0,0.0,0.0,0.0,0.0,0.0,0.0,0.0,0.0,0.0,0.0,0.0,0.0,0.0,0.0,0.0,0.0,0.0,0.0,0.0,0.0,0.0,0.0,0.0,0.0,0.0,0.0,0.0,0.0,0.0,0.0,0.0,0.0,0.0,0.0,0.0,0.0,0.0,0.0,0.0,0.0,0.0,0.0,0.0,0.0,0.0,0.0,0.0,0.0,0.0,0.0,0.0,0.0,0.0,0.0,0.0,0.0,0.0,0.0,0.0,0.0,0.0,0.0,0.0,0.0,0.0,0.0,0.0,0.0,0.0,0.0,0.0,0.0,0.0,0.0,0.0,0.0,0.0,0.0,0.0,0.0,0.0,0.0,0.0,0.0,0.0,0.0,0.0,0.0,0.0,0.0,0.0,0.0,0.0,0.0,0.0,0.2225,0.0934,0.0,0.0,0.0,0.0105,0.0355,0.0715,0.1297,0.2274,0.0,0.0,0.0,0.0,0.0,0.0,0.0,0.0,0.0,0.0,0.0,0.0,0.0,0.0,0.0,0.0,0.0,0.0,0.0,0.0,0.0,0.0,0.0,0.0,0.0,0.0,0.0,0.0,0.0,0.0,0.0,0.0,0.0,0.0,0.0,0.0,0.0,0.0,0.0,0.0,0.0,0.0,0.0,0.0,0.0,0.0,0.0,0.0,0.0,0.0,0.0,0.0,0.0,0.0,0.0,0.0,0.0,0.0,0.0,0.0,0.0,0.0,0.0,0.0,0.0,0.0,0.0,0.0,0.0,0.0,0.0,0.0,0.0,0.0,0.0,0.0,0.0,0.0,0.0,0.0,0.0,0.0,0.0,0.0,0.0,0.0,0.0,0.0,0.0,0.0,0.0,0.0,0.0,0.0,0.0,0.0,0.0,0.0,0.0,0.0,0.0,0.0,0.2174,0.0892,0.0,0.0,0.0,0.0263,0.0864,0.0975,0.1522,0.286,0.0,0.0,0.0,0.0,0.0,0.0,0.0,0.0,0.0,0.0,0.0,0.0,0.0,0.0,0.0,0.0,0.0,0.0,0.0,0.0,0.0,0.0,0.0,0.0,0.0,0.0,0.0,0.0,0.0,0.0,0.0,0.0,0.0,0.0,0.0,0.0,0.0,0.0,0.0,0.0,0.0,0.0,0.0,0.0,0.0,0.0,0.0,0.0,0.0,0.0,0.0,0.0,0.0,0.0,0.0,0.0,0.0,0.0,0.0,0.0,1.0582,1.0973,0.0,0.0,0.0,0.0,0.0,0.0,0.0,0.0,0.0,0.0,0.0,0.0,0.0,0.0,0.0,0.0,0.0,0.0,0.0,0.0,0.0,0.0,0.0,0.0,0.0,0.0,0.0,0.0,0.0,0.0,0.0,0.0,0.0,0.0,0.0,0.0,0.0,0.0,0.0,0.0,0.2223,0.0928,0.0,0.0,0.0,0.0265,0.0998,0.1383,0.2019,0.2973,0.3523,0.0,0.0,0.0,0.0,0.0,0.0,0.0,0.0,0.0,0.0,0.0,0.0,0.0,0.0,0.0,0.0,0.0,0.0,0.0,0.0,0.0,0.0,0.0,0.0,0.0,0.0,0.0,0.0,0.0,0.0,0.0,0.0,0.0,0.0,0.0,0.0,0.0,0.0,0.0,0.0,0.0,0.0,0.0,0.0,0.0,0.0,0.0,0.0,0.0,0.0,0.0,0.0,0.0,0.0,0.0,0.0,0.0,0.0,0.0,1.0822,1.1642,0.0,0.0,0.0,0.0,0.0,0.0,0.0,0.0,0.0,0.0,0.0,0.0,0.0,0.0,0.0,0.0,0.0,0.0,0.0,0.0,0.0,0.0,0.0,0.0,0.0,0.0,0.0,0.0,0.0,0.0,0.0,0.0,0.0,0.0,0.0,0.0,0.0,0.0,0.0,0.0,0.2225,0.0936,0.0,0.0,0.0,0.0433,0.1435,0.1744,0.2339,0.3377,0.3846,0.0,0.0,0.0,0.0,0.0,0.0,0.0,0.0,0.0,0.0,0.0,0.0,0.0,0.0,0.0,0.0,0.0,0.0,0.0,0.0,0.0,0.0,0.0,0.0,0.0,0.0,0.0,0.0,0.0,0.0,0.0,0.0,0.0,0.0,0.0,0.0,0.0,0.0,0.0,0.0,0.0,0.0,0.0,0.0,0.0,0.0,0.0,0.0,0.0,0.0,0.0,0.0,0.0,1.0316,0.9713,1.0221,0.9252,0.8692,0.8628,1.0808,1.1896,1.2008,0.9725,0.0,0.0,0.0,0.0,0.0,0.0,0.0,0.0,0.0,0.0,0.0,0.0,0.0,0.0,0.0,0.0,0.0,0.0,0.0,0.0,0.0,0.0,0.5936,0.6018,0.5384,0.4796,0.5113,0.0,0.0,0.0,0.0,0.0,0.0,0.0,0.0,0.0,0.0,0.0,0.2009,0.0838,0.0,0.0,0.0,0.0499,0.1719,0.192,0.2485,0.3595,0.4006,0.4444,0.0,0.0,0.0,0.0,0.0,0.0,0.0,0.0,0.0,0.0,0.0,0.0,0.0,0.0,0.0,0.0,0.0,0.0,0.0,0.0,0.0,0.0,0.0,0.0,0.0,0.0,0.0,0.0,0.0,0.0,0.0,0.0,1.2881,1.2881,0.0,0.0,0.0,0.0,0.0,0.0,0.0,0.0,0.0,0.0,0.0,0.0,0.0,1.34,1.439,1.4705,1.3852,1.1768,1.184,1.0855,0.9031,0.8878,0.8286,0.7333,0.7222,0.0,0.9316,0.8962,0.0,0.0,0.0,0.0,0.0,0.0,0.0,0.0,0.0,0.0,0.0,0.0,0.0,0.0,0.0,0.0,0.0,0.0,0.0,0.0,0.0,0.0,0.5408,0.5519,0.471,0.3962,0.3994,0.383,0.3508,0.2913,0.2512,0.2657,0.0,0.0,0.0,0.0,0.0,0.0,0.134,0.0504,0.0,0.0,0.0,0.0335,0.1166,0.1676,0.2327,0.3141,0.3804,0.4239,0.432,0.4429,0.0,0.0,0.0,0.0,0.0,0.0,0.0,0.0,0.0,0.0,0.0,0.0,0.0,0.0,0.0,0.0,0.0,0.0,0.0,0.0,0.0,0.0,0.0,0.0,0.0,0.0,0.0,0.0,0.0,1.3154,1.3242,1.292,1.2881,1.2881,0.0,0.0,0.0,0.0,0.0,0.0,0.0,0.0,0.0,1.4285,1.4326,1.5469,1.7978,1.5749,1.4126,1.3057,1.1854,1.1129,1.0724,0.8709,0.7564,0.7126,0.6868,0.7034,0.7334,0.6644,0.7337,0.8804,0.0,0.0,0.0,0.0,1.1791,1.0574,1.0021,0.88,0.7476,0.7429,0.0,0.0,0.0,0.0,0.0,0.0,0.0,0.4502,0.3748,0.3666,0.386,0.3999,0.3613,0.3083,0.2665,0.2424,0.2314,0.2302,0.159,0.1385,0.2589,0.2395,0.0,0.0,0.0,0.1452,0.1118,0.0448,0.0,0.0,0.0,0.028,0.1062,0.1324,0.179,0.2446,0.3296,0.3681,0.3612,0.4165,0.4842,0.0,0.0,0.0,0.0,0.0,0.0,0.0,0.0,0.0,0.0,0.0,0.0,0.0,0.0,0.0,0.0,0.0,0.0,0.0,0.0,0.0,0.0,0.0,0.0,0.0,0.0,0.0,0.0,1.3428,1.3652,1.3154,1.3096,1.3096,0.0,0.0,0.0,0.0,0.0,0.0,1.5458,1.5097,1.4802,1.4472,1.4988,1.6589,1.9399,1.6202,1.4536,1.4509,1.2746,1.1676,1.1117,0.8472,0.7285,0.7139,0.7139,0.6892,0.6403,0.5355,0.6125,0.8027,0.9227,1.0234,1.1096,1.123,1.0861,1.0187,0.9851,0.8549,0.7107,0.6741,0.5549,0.4268,0.4637,0.0,0.0,0.0,0.0,0.2844,0.2356,0.2347,0.2483,0.2854,0.2665,0.2244,0.1722,0.1248,0.1131,0.1517,0.0777,0.0446,0.1713,0.1461,0.0,0.1908,0.1476,0.1009,0.0849,0.0338,0.0,0.0,0.0,0.0224,0.0783,0.1006,0.1272,0.1725,0.2587,0.3087,0.3174,0.3854,0.4567,0.5218,0.0,0.0,0.0,0.0,0.0,0.0,0.0,0.0,0.0,0.0,0.0,0.0,0.0,0.0,0.0,0.0,0.0,0.0,0.0,0.0,0.0,0.0,0.0,0.0,0.0,0.0,0.0,0.0,0.0,1.3669,1.363,0.0,0.0,0.0,0.0,1.3659,1.4736,1.5401,1.5601,1.5904,1.5959,1.5559,1.5065,1.5307,1.6193,1.5846,1.5738,1.5738,1.5618,1.3003,0.8241,0.8079,0.7682,0.7139,0.7139,0.7122,0.7048,0.6427,0.5974,0.6028,1.0396,1.2164,1.1926,0.9499,0.8816,0.8999,0.7697,0.6924,0.6316,0.5647,0.4232,0.2803,0.2798,0.275,0.0,0.0,0.1397,0.1435,0.1626,0.1666,0.1868,0.2902,0.2378,0.1615,0.1615,0.0794,0.0076,0.0137,0.0066,0.026,0.1195,0.0,0.1136,0.1332,0.1187,0.0849,0.0117,0.0,0.0,0.0,0.0,0.0,0.0056,0.0671,0.1117,0.1115,0.184,0.2563,0.3279,0.3398,0.379,0.4519,0.457,0.0,0.0,0.0,0.0,0.0,0.0,0.0,0.0,0.0,0.0,0.0,0.0,0.0,0.0,0.0,0.0,0.0,0.0,0.0,0.0,0.0,0.0,0.0,0.0,0.0,0.0,0.0,0.0,1.4824,1.5566,0.0,1.5693,1.5576,1.5352,1.4934,1.6093,1.6781,1.6754,1.6102,1.5934,1.6202,1.5354,1.5104,1.5319,1.5684,1.5832,1.5818,1.507,1.4079,1.2909,0.9505,0.7709,0.7139,0.7139,0.6926,0.6559,0.6346,0.6211,0.6397,1.0648,1.1477,1.0254,0.9337,0.9018,0.9119,0.9119,0.7877,0.5854,0.3276,0.1998,0.1335,0.083,0.07,0.0575,0.0518,0.0461,0.0478,0.0571,0.0578,0.0666,0.1006,0.0826,0.0569,0.0569,0.024,-0.0233,-0.09,-0.0498,-0.0068,-0.0336,-0.0444,-0.0609,-0.1182,-0.079,-0.0534,-0.0824,-0.0356,0.0,0.0,0.0,0.0,0.0,0.0224,0.0616,0.1062,0.1341,0.2063,0.3287,0.3345,0.368,0.4463,0.4948,0.4948,0.0,0.0,0.0,0.0,0.0,0.0,0.0,0.0,0.0,0.0,0.0,0.0,0.0,0.0,0.0,0.0,0.0,0.0,0.0,0.0,0.0,0.0,0.0,0.0,0.0,1.5176,1.6074,1.6074,1.7353,1.7872,1.6817,1.6665,1.6269,1.524,1.6084,1.6193,1.5013,1.5196,1.5336,1.5436,1.5322,1.5257,1.5257,1.3903,1.3031,1.2881,1.4116,1.4877,1.5054,0.9991,0.7516,0.7228,0.879,0.9036,0.8304,0.8304,0.7548,0.6563,0.921,0.9489,0.8417,0.8899,0.8927,0.8732,0.8567,0.6813,0.4284,0.1931,0.0599,-0.0146,-0.0648,-0.0807,-0.0758,-0.0623,-0.0242,0.0,0.0,-0.0344,-0.0602,-0.0602,-0.093,-0.1161,-0.1152,-0.1129,-0.1345,-0.196,-0.0974,-0.0357,-0.1593,-0.1515,-0.1653,-0.2633,-0.2195,-0.1661,-0.1416,-0.0862,-0.0304,-0.0058,0.0,0.0,0.0,0.0,0.034,0.1063,0.0848,0.1526,0.3347,0.3121,0.34,0.4463,0.467,0.4529,0.4082,0.0,0.0,0.0,0.0,0.0,0.0,0.0,0.0,0.0,0.0,0.0,0.0,0.0,0.0,0.0,0.0,0.0,0.0,0.0,0.0,0.0,0.0,0.0,1.4543,1.6276,1.7385,1.7405,1.8812,1.9033,1.7051,1.7087,1.6503,1.466,1.464,1.3463,1.0467,1.3107,1.4192,1.3188,1.4854,1.5832,1.5832,1.0547,0.7719,0.7146,1.2881,1.4995,1.3737,0.9309,0.7224,0.7312,1.1912,1.3266,1.2358,1.2358,1.0008,0.6288,0.6187,0.6195,0.6495,0.7885,0.8303,0.7757,0.5529,0.3359,0.1512,0.1511,0.0083,-0.1627,-0.1625,-0.1625,-0.1553,-0.1584,-0.0854,-0.0088,-0.0089,-0.0986,-0.1879,-0.1879,-0.2728,-0.3531,-0.3455,-0.3374,-0.3296,-0.3141,-0.1536,-0.0676,-0.263,-0.2089,-0.1763,-0.2853,-0.287,0.0,-0.1731,-0.147,-0.0988,-0.0124,0.0,0.0,0.0,0.0,0.0291,0.1064,0.0404,0.0983,0.3294,0.2565,0.2899,0.4405,0.3677,0.3286,0.3278,0.0,0.0,0.0,0.0,0.0,0.0,0.0,0.0,0.0,0.0,0.0,0.0,0.0,0.0,0.0,0.0,0.0,0.0,0.0,0.0,0.0,1.235,1.3444,1.3954,1.5299,1.6436,1.697,1.7968,1.8471,1.7863,1.7096,1.6599,1.6583,1.5228,1.3501,1.1601,1.1864,1.2154,1.2221,1.4567,1.5832,1.5832,1.019,0.7305,0.7143,1.0411,1.0931,0.9139,1.1214,1.0351,0.7139,0.8444,1.0815,1.3594,1.3594,1.0912,0.6512,0.3052,0.1766,0.2079,0.4151,0.5199,0.5286,0.3312,0.1672,0.0352,-0.0432,-0.1112,-0.1609,-0.164,-0.1578,-0.1446,-0.0674,-0.0864,-0.1334,-0.1342,-0.2236,-0.3126,-0.3126,-0.3341,-0.3631,-0.3524,-0.3414,-0.3553,-0.4254,-0.3224,-0.261,-0.3817,-0.3842,-0.3911,-0.4873,-0.4296,-0.3502,-0.2681,-0.1786,-0.0976,-0.0064,0.0,0.0,0.0,0.0,0.0297,0.1066,0.0395,0.0734,0.2454,0.1786,0.2115,0.3602,0.2892,0.2772,0.0,0.0,0.0,0.0,0.0,0.0,0.0,0.0,0.0,0.0,0.0,0.0,0.0,0.0,0.0,0.0,0.0,0.0,0.0,0.0,0.0,0.0,1.1088,1.2065,1.2359,1.4814,1.6613,1.6846,1.7494,1.7466,1.6465,1.5203,1.4437,1.4409,1.2711,1.0624,0.8553,0.9303,0.946,0.8663,0.7045,0.7181,0.9136,0.5817,0.5087,0.7139,0.8444,0.8444,0.7228,0.9918,0.9657,0.7139,0.7139,0.8615,1.1128,1.1128,0.8408,0.3822,0.0,0.0,0.0,0.0,0.3635,0.3409,0.2223,0.0986,-0.009,-0.0707,-0.1223,-0.1639,-0.1599,-0.1954,-0.2241,-0.2021,-0.2588,-0.3377,-0.369,-0.4759,-0.5766,-0.5766,-0.6153,-0.6506,-0.6301,-0.615,-0.6163,-0.6691,-0.5814,0.0,-0.5812,-0.5087,-0.4787,-0.5749,-0.5337,-0.4602,-0.3736,-0.3068,-0.2263,-0.1338,-0.0872,-0.0657,-0.0558,-0.0185,0.0,0.0,0.0,0.0511,0.1676,0.1619,0.0,0.0,0.0,0.1966,0.238,0.1635,0.0,0.0,0.1694,0.1628,0.0,0.0,0.0,0.0,0.0,0.0,0.0,0.0,0.0,0.0,0.0,0.0,0.0,0.0,0.0,0.0,0.8992,0.9769,1.0192,1.4086,1.6786,1.6404,1.6614,1.6033,1.3981,1.2493,1.1412,1.0971,0.9143,0.6328,0.2479,0.4816,0.0,0.0,0.0,-0.4864,-0.0808,-0.027,0.2065,0.6325,0.6868,0.7139,0.7054,0.6576,0.6332,0.6332,0.6332,0.6302,0.6337,0.6337,0.384,0.0,0.0,0.0,0.0258,0.2378,0.2749,0.2039,0.1696,0.0,0.0,0.0,-0.0621,-0.1396,-0.1389,-0.226,-0.3295,-0.4206,-0.4984,-0.5731,-0.6629,-0.7908,-0.9,-0.9,-0.9803,-1.0494,-1.007,-0.9877,-0.9817,-0.9412,-0.8556,-0.7931,-0.7859,-0.6046,-0.4991,-0.5904,-0.5925,-0.558,-0.4806,-0.4564,-0.4094,-0.3021,-0.2196,0.0,-0.15,-0.0745,0.0,0.0677,0.0173,0.0231,0.0952,0.1625,0.1961,0.1952,0.1332,0.0958,0.0985,0.0318,0.0,0.0,0.0668,0.0639,0.0,0.0,0.0,0.0,0.0,0.0,0.0,0.0,0.0,0.0,0.0,0.0,0.0,0.0,0.0,0.6839,0.8772,0.9817,0.8333,1.0901,1.3003,1.2896,1.2951,1.3075,1.3278,1.1773,1.1935,1.4551,1.0586,0.3953,-0.5246,-0.5178,-0.5099,-0.5708,-0.4944,-0.4957,-0.5714,-0.2111,0.0275,0.1414,0.5242,0.0,0.6979,0.3155,0.138,0.138,0.138,0.1332,0.1344,0.1344,0.0808,0.0,0.0,0.0,0.0085,0.0516,0.0597,0.0421,0.0353,0.018,0.0,0.0,-0.0181,-0.0273,-0.0351,-0.1156,0.0,-0.3368,-0.5208,-0.6987,-0.8076,-0.9325,-1.025,-1.025,-1.0433,-1.0535,-1.0188,-0.9988,-0.9782,-0.9521,-0.9187,-0.877,-0.7936,-0.6762,-0.5979,-0.6217,-0.6084,-0.5619,-0.4817,-0.4564,-0.4123,-0.3027,-0.2727,-0.2591,-0.2449,-0.2196,-0.1927,-0.1807,-0.1255,-0.0563,0.0168,0.0345,0.0403,0.0448,0.0297,0.0184,0.0185,0.0064,0.0,0.0,0.0124,0.012,0.0,0.0,0.0,0.0,0.0,0.0,0.0,0.0,0.0,0.0,0.0,0.4793,0.462,0.0,0.511,0.5017,0.625,0.7045,0.656,0.7334,0.8171,0.8852,1.0351,1.076,0.9457,0.8079,0.8576,1.1638,0.5761,-0.0978,-0.7624,-0.8038,-0.7633,-0.6728,-0.6113,-0.6373,-0.755,-0.4986,-0.3709,-0.3542,-0.1149,0.0,0.0,0.0,0.0,0.0,0.0,0.0,0.0,0.0,0.0,0.0,0.0,0.0,-0.0164,-0.1376,-0.1822,-0.1807,-0.1772,-0.1433,-0.0897,-0.0897,-0.0455,0.0,0.0,-0.1263,-0.3011,-0.4595,-0.686,-0.9256,-1.0778,-1.1798,-1.2345,-1.2345,-1.2246,-1.1997,-1.1741,-1.1552,-1.1288,-1.0953,-1.0425,-0.9933,-0.9597,-0.869,-0.7577,-0.6504,-0.6196,-0.599,-0.5527,-0.5466,-0.5146,-0.4437,-0.3989,-0.36,-0.3361,-0.2875,-0.2607,-0.2589,-0.1716,-0.105,-0.0689,-0.0237,0.0,0.0,0.0,-0.0189,-0.0631,-0.0649,-0.0914,-0.135,-0.1329,-0.0867,0.0,0.0,0.0,0.0,0.0,0.0,0.0,0.6098,0.4981,0.4591,0.3819,0.3164,0.2853,0.2947,0.2962,0.2837,0.3199,0.3552,0.3802,0.3809,0.4005,0.4792,0.7677,0.8594,0.6121,0.522,0.481,0.4895,-0.1068,-0.5833,-0.8414,-0.8528,-0.7822,-0.6412,-0.7691,-0.8607,-0.8972,-0.8521,-0.8173,-0.793,-0.8527,-0.8294,-0.7148,-0.3325,-0.1511,-0.1511,-0.1001,-0.048,0.0,0.0,-0.0634,-0.1559,-0.2086,-0.1897,-0.1538,-0.3017,-0.3634,-0.3662,-0.386,-0.3253,-0.2451,-0.2255,-0.1556,-0.0744,-0.0724,-0.2364,-0.4756,-0.6771,-0.9285,-1.1673,-1.3513,-1.4227,-1.4328,-1.4173,-1.3901,-1.3634,-1.3287,-1.3013,-1.2746,-1.2445,-1.1776,-1.1181,-1.1301,-1.0634,-0.9316,-0.7062,-0.6731,-0.6645,-0.6383,-0.6302,-0.6186,-0.5878,-0.5186,-0.4669,-0.4299,-0.359,-0.3092,-0.2952,-0.2214,-0.1704,-0.1602,-0.0917,-0.0551,-0.0535,-0.0504,-0.0842,-0.1543,-0.1586,-0.1985,-0.2715,-0.2715,-0.1907,0.8447,0.7794,0.7678,0.8223,0.6775,0.5401,0.0,0.4794,0.3057,0.3114,0.3112,0.3078,0.3102,0.3298,0.284,0.0581,0.1381,0.1298,-0.1406,0.09,0.2298,0.0805,0.3814,0.642,0.7633,0.7637,0.3692,-0.5499,-0.6997,-0.8382,-1.0181,-1.0284,-1.0181,-0.9976,-1.0923,-1.1758,-1.2373,-1.2457,-1.1963,-1.1019,-1.3578,-1.2363,-0.7841,-0.7307,-0.7132,-0.7018,-0.4558,-0.2241,0.0,0.0,-0.2801,-0.7312,-0.938,-0.8617,-0.6088,-0.4255,-0.372,-0.4032,-0.468,-0.4982,-0.4866,-0.3892,-0.3581,-0.3462,-0.3272,-0.4938,-0.7346,-0.9434,-1.1759,-1.3891,-1.5148,-1.5508,-1.5296,-1.4334,-1.4062,-1.3888,-1.3333,-1.318,-1.3066,-1.2835,-1.2616,-1.2395,-1.1732,-1.1541,-1.0718,-0.8504,-0.8179,-0.772,-0.6624,-0.6451,-0.6335,-0.6034,-0.5854,-0.5676,-0.5306,-0.5,-0.4484,-0.3755,-0.3564,-0.3254,-0.257,-0.2452,-0.2394,-0.2387,-0.2397,-0.2435,-0.2565,-0.2574,-0.2606,-0.273,-0.273,-0.2591,0.7492,0.6604,0.6041,0.5849,0.4585,0.3333,0.3286,0.1369,-0.0433,-0.0271,-0.0648,-0.1038,-0.1049,-0.0872,-0.1177,-0.2277,-0.1894,-0.2092,-0.3839,-0.2359,-0.1847,-0.3866,-0.2241,-0.04,0.0899,-0.0398,-0.3776,-0.9784,-0.9801,-1.0284,-1.2032,-1.1648,-1.1361,-1.1361,-1.316,-1.423,-1.4565,-1.612,-1.5905,-1.4036,-1.5227,-1.4657,-1.2517,-1.2517,-1.084,-0.7974,-0.6649,-0.4911,-0.2904,-0.2511,-0.4594,-0.8418,-1.24,-1.3217,-1.1833,-0.9153,-0.8017,-0.7837,-0.7675,-0.7218,-0.6553,-0.5376,-0.449,-0.3981,-0.3838,-0.5551,-0.8077,-1.0314,-1.2732,-1.4967,-1.6606,-1.6567,-1.5851,-1.518,-1.4441,-1.3761,-1.3514,-1.3186,-1.2959,-1.3006,-1.2872,-1.2815,-1.2804,-1.28,-1.2349,-1.0893,-0.9346,-0.8058,-0.7589,-0.6871,-0.6268,-0.6054,-0.5949,-0.5786,-0.5518,-0.5433,-0.5203,-0.473,-0.4201,-0.3786,-0.3467,-0.298,-0.2725,-0.2711,-0.2689,-0.2928,-0.3484,-0.3458,-0.3747,-0.4284,-0.4284,-0.4298,0.5367,0.4447,0.3801,0.2816,0.1771,0.0678,-0.0349,-0.2149,-0.3677,-0.3892,-0.4268,-0.4538,-0.4597,-0.4212,-0.4116,-0.4518,-0.4814,-0.528,-0.5776,-0.5615,-0.6315,-0.8752,-0.8002,-0.7064,-0.6421,-0.8069,-0.9993,-1.2139,-1.1643,-1.1935,-1.3295,-1.3091,-1.3086,-1.3476,-1.5617,-1.6736,-1.6757,-1.8548,-1.8672,-1.7109,-1.6929,-1.6473,-1.5832,-1.5832,-1.3205,-0.856,-0.7962,-0.6951,-0.5797,-0.5307,-0.6274,-0.8428,-1.3006,-1.4854,-1.4899,-1.3809,-1.2331,-1.0835,-0.989,-0.8756,-0.7607,-0.6628,-0.5812,-0.5194,-0.5441,-0.7076,-0.9333,-1.1663,-1.4002,-1.6198,-1.7722,-1.7692,-1.6952,-1.605,-1.5087,-1.4241,-1.3674,-1.33,-1.306,-1.3287,-1.3146,-1.316,-1.3674,-1.3768,-1.347,-1.2813,-1.0632,-0.8922,-0.8365,-0.7074,-0.6217,-0.6105,-0.5956,-0.5823,-0.5722,-0.5637,-0.5542,-0.5433,-0.4776,-0.4378,-0.4417,-0.3772,-0.3447,-0.3441,-0.3443,-0.3747,-0.4417,-0.4417,-0.4755,-0.5428,-0.5428,-0.5428,0.1305,0.0647,0.0532,-0.0813,-0.1885,-0.2864,-0.3979,-0.5126,-0.6208,-0.7485,-0.6747,-0.5976,-0.5978,-0.4901,-0.4418,-0.5727,-0.7009,-0.7898,-0.7925,-0.8914,-1.0686,-1.3521,-1.2668,-1.2015,-1.2417,-1.2061,-1.2139,-1.3102,-1.3102,-1.3295,-1.3872,-1.4981,-1.6216,-1.7498,-1.8764,-1.9397,-1.9397,-1.9488,-1.9852,-2.0567,-1.9761,-1.8118,-1.5832,-1.5832,-1.3791,-1.0108,-0.8619,-0.7818,-0.7657,-0.7845,-0.7932,-0.8233,-1.0974,-1.2528,-1.3669,-1.6872,-1.5429,-1.1681,-1.0241,-0.8964,-0.8004,-0.7758,-0.7808,-0.8069,-0.9071,-1.03,-1.1817,-1.4109,-1.6132,-1.7809,-1.8316,-1.8979,-1.895,-1.6753,-1.6237,-1.5735,-1.4001,-1.3627,-1.3621,-1.3627,-1.3539,-1.3714,-1.4021,-1.4075,-1.3981,-1.3612,-1.2407,-1.0836,-0.8638,-0.7141,-0.6335,-0.6254,-0.6115,-0.602,-0.6017,-0.5752,-0.5589,-0.5583,-0.5443,-0.5359,-0.5352,-0.5359,-0.5292,-0.5289,-0.5292,-0.5362,-0.5359,-0.5359,-0.5362,-0.5428,-0.5428,-0.5428,-0.0963,-0.2535,-0.3888,-0.4297,-0.5918,-0.7539,-0.7921,-0.9003,-1.0026,-1.0241,-0.9648,-0.8982,-0.8774,-0.8394,-0.8345,-0.893,-0.9806,-1.0359,-1.0473,-1.0797,-1.137,-1.213,-1.2004,-1.2145,-1.3111,-1.2229,-1.2156,-1.3573,-1.368,-1.4447,-1.6351,-1.6814,-1.7554,-1.8864,-2.0034,-2.0657,-2.0657,-2.1489,-2.2041,-2.2217,-1.8756,-1.721,-1.7397,-1.6292,-1.4684,-1.2554,-1.0631,-0.9559,-0.9202,-0.8305,-0.8726,-0.9895,-1.1361,-1.3855,-1.6706,-1.7848,-1.7368,-1.5927,-1.4288,-1.271,-1.1341,-1.0697,-1.0529,-1.0654,-1.0995,-1.205,-1.3423,-1.4993,-1.71,-1.9104,-1.9765,-2.0161,-2.0162,-1.9125,-1.752,-1.6122,-1.5493,-1.4476,-1.3701,-1.3901,-1.3781,-1.3741,-1.4035,-1.4088,-1.4055,-1.3955,-1.2451,-1.0785,-0.9223,-0.8548,-0.8313,-0.8313,-0.7651,-0.7112,-0.699,-0.6298,-0.5796,-0.5603,-0.5542,-0.5467,-0.5432,-0.5428,-0.5428,-0.5428,-0.5428,-0.5428,-0.5428,-0.5428,-0.5428,-0.5428,-0.5428,-0.5428,-0.3736,-0.5502,-0.6956,-0.7848,-0.939,-1.0733,-1.1072,-1.1728,-1.2283,-1.2415,-1.1671,-1.0895,-1.0583,-1.0442,-1.0339,-1.0313,-1.1279,-1.2069,-1.2236,-1.2456,-1.27,-1.271,-1.3173,-1.3676,-1.4091,-1.4191,-1.449,-1.5184,-1.5305,-1.6156,-1.8226,-1.8772,-1.9314,-2.0124,-2.1302,-2.1933,-2.1933,-2.2677,-2.3135,-2.3047,-1.9943,-1.8488,-1.868,-1.6662,-1.5343,-1.4459,-1.242,-1.1258,-1.0583,-0.9702,-0.9895,-1.0765,-1.2592,-1.5354,-1.8411,-1.9596,-1.9505,-1.8488,-1.6383,-1.441,-1.2716,-1.2598,-1.2876,-1.3262,-1.3267,-1.3849,-1.4715,-1.5475,-1.745,-1.9454,-2.0067,-2.0911,-2.1274,-2.0571,-1.9187,-1.7656,-1.6568,-1.5358,-1.4462,-1.4153,-1.3935,-1.3861,-1.4055,-1.4001,-1.3928,-1.3928,-1.2779,-1.1546,-1.0444,-0.9896,-0.9611,-0.9611,-0.8923,-0.8286,-0.7778,-0.6978,-0.6288,-0.5681,-0.5664,-0.5599,-0.545,-0.5491,-0.5494,-0.5443,-0.5443,-0.5416,-0.5428,-0.5428,-0.5428,-0.5428,-0.5428,-0.5428,-0.6989,-0.8166,-0.885,-1.1399,-1.2037,-1.2255,-1.3151,-1.317,-1.3195,-1.3809,-1.276,-1.1636,-1.1312,-1.0913,-1.0503,-1.006,-1.1769,-1.3253,-1.3495,-1.4261,-1.4933,-1.5329,-1.6267,-1.6617,-1.5589,-1.7763,-1.8799,-1.794,-1.787,-1.8319,-1.9405,-2.0666,-2.1293,-2.1382,-2.2492,-2.3135,-2.3135,-2.3135,-2.3135,-2.3135,-2.3135,-2.1863,-1.9497,-1.7117,-1.6015,-1.5825,-1.4166,-1.3,-1.2226,-1.2129,-1.1643,-1.1239,-1.4463,-1.685,-1.8864,-2.1952,-2.1587,-1.9206,-1.6843,-1.4404,-1.2512,-1.3701,-1.4924,-1.5886,-1.59,-1.5906,-1.592,-1.5906,-1.7346,-1.9059,-1.9406,-2.104,-2.2273,-2.1272,-2.0907,-1.9982,-1.704,-1.6305,-1.5782,-1.4409,-1.4095,-1.4088,-1.4088,-1.3854,-1.3667,-1.3667,-1.3434,-1.3013,-1.2252,-1.1072,-1.0363,-1.0363,-0.9994,-0.9311,-0.837,-0.7795,-0.6992,-0.5895,-0.5813,-0.5749,-0.5606,-0.5728,-0.5735,-0.5593,-0.5589,-0.5515,-0.5428,-0.5428,-0.5428,-0.5428,-0.5428,-0.5428,-0.8375,-1.0121,-1.1531,-1.3,-1.3357,-1.3256,-1.3359,-1.2945,-1.2472,-1.2298,-1.2048,-1.1842,-1.1771,-1.2412,-1.323,-1.3922,-1.5702,-1.7195,-1.7766,-1.8063,-1.7979,-1.7457,-1.8458,-1.8729,-1.7538,-1.8925,-1.9954,-2.0322,-1.9588,-1.9222,-1.9497,-2.0666,-2.1756,-2.2589,-2.295,-2.3135,-2.3135,-2.3135,-2.3135,-2.3135,-2.3135,-2.2129,-2.0395,-1.9123,-1.8218,-1.7677,-1.7188,-1.6671,-1.604,-1.5068,-1.5068,-1.5745,-1.5678,-1.7657,-2.0755,-2.2492,-2.2129,-2.0747,-2.0082,-1.8883,-1.7602,-1.7964,-1.8249,-1.8533,-1.854,-1.8548,-1.8372,-1.749,-1.8875,-2.0454,-1.9736,-2.1239,-2.2892,-2.2611,-2.1029,-1.9352,-1.8545,-1.6735,-1.5191,-1.4549,-1.4235,-1.4088,-1.4088,-1.4021,-1.3975,-1.3975,-1.3908,-1.3645,-1.3039,-1.2603,-1.2473,-1.2473,-1.079,-0.9625,-0.9311,-0.7614,-0.6435,-0.5979,-0.5973,-0.5905,-0.5752,-0.5783,-0.5735,-0.5593,-0.5589,-0.5515,-0.5428,-0.5428,-0.5428,-0.5428,-0.5428,-0.5428,-1.0325,-1.1953,-1.343,-1.4673,-1.4741,-1.4222,-1.3337,-1.2894,-1.2369,-1.1206,-1.1266,-1.145,-1.1323,-1.2861,-1.4214,-1.4804,-1.6697,-1.8419,-1.9054,-1.9107,-1.9093,-1.902,-2.0127,-2.0416,-1.9099,-2.0687,-2.1369,-2.0602,-2.0395,-2.0486,-2.1042,-2.1756,-2.2403,-2.3047,-2.3135,-2.3135,-2.3135,-2.3135,-2.3135,-2.3135,-2.3135,-2.2589,-2.1756,-2.0755,-1.9943,-1.9314,-1.8956,-1.8648,-1.831,-1.7619,-1.7719,-1.8402,-1.821,-1.976,-2.2152,-2.2843,-2.3008,-2.2775,-2.2287,-2.1667,-2.0944,-2.0486,-2.0674,-2.0944,-2.0215,-2.0124,-2.0141,-1.9304,-2.011,-2.0979,-1.977,-2.0873,-2.2214,-2.1655,-2.0386,-1.9104,-1.8377,-1.7086,-1.5694,-1.4852,-1.4556,-1.4428,-1.4289,-1.4282,-1.4235,-1.4108,-1.4088,-1.4015,-1.3814,-1.3674,-1.3594,-1.3594,-1.1849,-1.0477,-1.0069,-0.8207,-0.6751,-0.6142,-0.6132,-0.6061,-0.5908,-0.5966,-0.5935,-0.5786,-0.5783,-0.5708,-0.5555,-0.5491,-0.546,-0.546,-0.5459,-0.5428,-1.2131,-1.3467,-1.4598,-1.5778,-1.5475,-1.4398,-1.2673,-1.2312,-1.1922,-1.0207,-1.0361,-1.0738,-1.0655,-1.2542,-1.4236,-1.4449,-1.6507,-1.827,-1.9118,-1.9118,-1.9397,-2.0273,-2.149,-2.1794,-2.05,-2.251,-2.2825,-2.0158,-2.0935,-2.1933,-2.2775,-2.3047,-2.3135,-2.3135,-2.3135,-2.3135,-2.3135,-2.3135,-2.3135,-2.3135,-2.3135,-2.3135,-2.3047,-2.2031,-2.1391,-2.0935,-2.0305,-1.9852,-1.9761,-1.9943,-1.9861,-1.9852,-2.1033,-2.2161,-2.3018,-2.3105,-2.3887,-2.4872,-2.3551,-2.3135,-2.296,-2.1845,-2.2217,-2.2862,-2.14,-2.1293,-2.1507,-2.1112,-2.1275,-2.1221,-2.0019,-2.0355,-2.0826,-1.9763,-1.9385,-1.8985,-1.7599,-1.7128,-1.6581,-1.5308,-1.5021,-1.4879,-1.4596,-1.4609,-1.4475,-1.422,-1.4179,-1.4202,-1.4496,-1.4275,-1.4102,-1.4142,-1.2643,-1.1344,-1.0481,-0.8806,-0.7348,-0.6349,-0.6338,-0.62,-0.6064,-0.619,-0.6186,-0.6034,-0.603,-0.5945,-0.5772,-0.565,-0.5579,-0.5555,-0.5423,-0.5428,-1.2255,-1.3485,-1.453,-1.4616,-1.3274,-1.1513,-0.9716,-0.8793,0.0,-0.8353,-0.9032,-0.9845,-1.0751,-1.2248,-1.4077,-1.6405,-1.7782,-1.9413,-2.1997,-2.1988,-2.1764,0.0,-2.2963,-2.3315,-2.1675,-2.3157,-2.3793,-2.2558,-2.2677,-2.2403,-2.1658,-2.258,-2.3135,-2.3135,-2.3135,-2.3135,-2.3135,-2.3135,-2.3135,-2.3135,-2.3135,-2.3135,-2.3047,-2.2862,-2.2775,-2.2677,-2.2501,-2.1943,-2.1025,-2.2041,-2.1854,-2.1114,-2.2306,-2.294,-2.3115,-2.3135,-2.4392,-2.5891,-2.38,-2.3135,-2.3057,-2.2862,-2.296,-2.3047,-2.2775,-2.2775,-2.2775,-2.2715,-2.2715,-2.24,-2.0907,-2.0141,-1.9728,-1.9529,-1.8983,-1.8395,-1.8156,-1.6842,-1.5643,-1.5372,-1.512,-1.5006,-1.489,-1.4884,-1.4817,-1.448,-1.4467,-1.4419,-1.4495,-1.4309,-1.4175,-1.4422,-1.2149,-1.0533,-1.0274,-0.8095,-0.6648,-0.6349,-0.6338,-0.6247,-0.622,-0.6247,-0.6186,-0.6034,-0.603,-0.5895,-0.5627,-0.5603,-0.5525,-0.5466,-0.5439,-0.5428,-1.3822,-1.4853,-1.5438,-1.4695,-1.3298,-1.1494,-0.9092,0.0,0.0,-0.7409,-0.8355,-0.9438,-1.0024,-1.1772,-1.3629,-1.5138,-1.6413,-1.8194,-2.1061,-2.117,-2.155,-2.2969,-2.3909,-2.405,-2.3195,-2.3919,-2.4062,-2.3203,-2.3135,-2.2862,-2.2306,-2.2775,-2.3135,-2.3135,-2.3135,-2.3135,-2.3135,-2.3135,-2.3135,-2.3135,-2.3135,-2.3135,-2.3135,-2.3135,-2.3135,-2.3135,-2.3135,-2.2775,-2.2315,-2.2859,-2.2742,-2.2306,-2.2862,-2.3495,-2.3867,-2.3281,-2.419,-2.5398,-2.3704,-2.3135,-2.3135,-2.3135,-2.3135,-2.3135,-2.3135,-2.3135,-2.3135,-2.3135,-2.3135,-2.2901,-2.2147,-2.0702,-1.9176,-1.787,-1.7232,-1.6986,-1.6986,-1.6261,-1.5651,-1.5651,-1.5478,-1.5364,-1.5217,-1.5218,-1.5122,-1.4815,-1.4774,-1.4843,-1.494,-1.4562,-1.4362,-1.4502,-1.2123,-1.0493,-1.0391,-0.8028,-0.6563,-0.6495,-0.6346,-0.6338,-0.6338,-0.6795,-0.7061,-0.6976,-0.6972,-0.6895,-0.6734,-0.6061,-0.5661,-0.5586,-0.5433,-0.5428,-1.5206,-1.5944,-1.6393,-1.516,-1.3722,-1.1949,-0.9414,-0.874,-0.8422,-0.7391,-0.8318,-0.9338,-0.953,-1.1235,-1.2781,-1.3592,-1.4579,-1.6293,-1.9245,-1.9604,-2.0632,-2.3396,-2.4035,0.0,-2.415,-2.4228,-2.3965,-2.3193,-2.3135,-2.3135,-2.3135,-2.3135,-2.3193,-2.332,-2.3203,-2.3193,-2.332,-2.3203,-2.3135,-2.3135,-2.3135,-2.3135,-2.3135,-2.3135,-2.3135,-2.3135,-2.3135,-2.3086,-2.3076,-2.3082,-2.2945,-2.2754,-2.2979,-2.3632,-2.4328,-2.3398,-2.3674,-2.4279,-2.3444,-2.3135,-2.3135,-2.3135,-2.3135,-2.3135,-2.3135,-2.3135,-2.3135,-2.3135,-2.3135,-2.3067,-2.3135,-2.1671,-1.9491,-1.6501,-1.5805,-1.5832,-1.5832,-1.5832,-1.5832,-1.5832,-1.5832,-1.5758,-1.5531,-1.5523,-1.5376,-1.5163,-1.511,-1.5178,-1.5404,-1.4899,-1.4563,-1.4609,-1.2441,-1.0849,-1.054,-0.8434,-0.6929,-0.6654,-0.6641,-0.6641,-0.6641,-0.7557,-0.8067,-0.8018,-0.8062,-0.8045,-0.7961,-0.6749,-0.6101,-0.61,-0.5655,-0.5459,-1.4994,-1.5806,-1.6393,-1.516,-1.3499,-1.1694,-0.9994,0.0,-0.8333,-0.8697,-0.9035,-0.953,-1.0301,-1.0665,-1.1488,-1.3378,-1.3693,-1.4783,-1.791,-1.917,-2.0218,-2.1435,0.0,0.0,-2.3291,-2.3613,-2.3652,-2.3174,-2.3135,-2.3135,-2.3135,-2.3135,-2.3379,-2.3916,-2.3418,-2.3398,-2.3926,-2.3408,-2.3135,-2.3135,-2.3135,-2.3135,-2.3135,-2.3135,-2.3135,-2.3135,-2.3135,-2.3124,-2.3108,-2.3115,-2.2476,-2.1608,-2.2675,-2.3154,-2.3261,-2.3144,-2.3135,-2.3212,-2.3135,-2.3135,-2.3135,-2.3135,-2.3135,-2.3135,-2.3135,-2.3135,-2.3135,-2.3135,-2.3135,-2.3115,-2.314,-2.2919,-2.1572,-1.695,-1.5812,-1.5832,-1.5832,-1.5832,-1.5832,-1.5832,-1.5832,-1.5818,-1.5792,-1.5785,-1.5664,-1.5409,-1.5376,-1.5332,-1.5437,-1.4889,-1.4621,-1.4903,-1.325,-1.1719,-1.0485,-0.9092,-0.7768,-0.6582,-0.7274,-0.7629,-0.7629,-0.8618,-0.9045,-0.8685,-0.9035,-0.8951,-0.8548,-0.7766,-0.7225,-0.6971,-0.5989,-0.5494,-1.6659,-1.674,-1.6334,-1.5783,-1.364,-1.1362,-0.9896,0.0,-0.7845,-0.8037,-0.8765,-0.9402,-0.9722,-1.0238,-1.086,-1.1666,-1.1795,-1.2726,-1.5328,-1.6084,-1.7595,-2.0775,-2.1808,-2.2501,-2.3407,-2.3691,-2.3603,-2.3174,-2.3135,-2.3135,-2.3135,-2.3389,-2.3643,-2.3877,-2.3652,-2.3643,-2.3877,-2.3389,-2.3135,-2.3135,-2.3135,-2.3135,-2.3135,-2.3135,-2.3135,-2.3135,-2.3135,-2.3113,-2.3109,-2.3134,-2.2832,-2.2457,-2.2911,-2.3135,-2.3135,-2.3135,-2.3135,-2.3135,-2.3135,-2.3135,-2.3135,-2.3135,-2.3135,-2.3135,-2.3135,-2.3135,-2.3135,-2.3135,-2.3135,-2.3086,-2.3115,-2.0891,-1.8214,-1.6216,-1.5799,-1.5832,-1.5832,-1.5832,-1.5832,-1.5832,-1.5832,-1.5832,-1.5832,-1.5832,-1.573,-1.5622,-1.5631,-1.5671,-1.5596,-1.5147,-1.4804,-1.4963,-1.3355,-1.2111,-1.1584,-0.9685,-0.8574,-0.8541,-0.8119,-0.8121,-0.8699,-0.9664,-1.014,-1.0035,-1.0135,-1.0096,-0.9896,-0.8978,-0.8298,-0.8007,-0.7541,-0.7176,-1.7617,-1.7765,-1.7277,-1.6759,-1.4548,-1.2101,-1.0778,0.0,-0.8182,-0.8386,-0.9011,-0.9566,-0.9646,-1.0174,-1.0624,-1.0624,-1.0701,-1.1489,-1.3294,-1.4132,-1.5769,-1.9238,-2.0368,-2.125,-2.2326,-2.2782,-2.2904,-2.2608,-2.2862,-2.295,-2.2589,-2.3306,-2.3877,-2.3975,-2.3975,-2.3975,-2.3975,-2.3545,-2.3271,-2.3135,-2.3135,-2.3135,-2.3135,-2.3135,-2.3135,-2.3135,-2.3135,-2.3123,-2.3038,-2.2316,-2.2501,-2.3135,-2.3135,-2.3135,-2.3135,-2.3135,-2.3135,-2.3135,-2.3135,-2.3135,-2.3135,-2.3135,-2.3115,-2.3086,-2.3086,-2.3135,-2.3135,-2.3135,-2.3135,-2.3135,-2.3135,-2.0562,-1.7591,-1.6132,-1.6126,-1.6298,-1.5927,-1.5832,-1.5832,-1.5832,-1.5832,-1.5832,-1.5832,-1.5832,-1.5832,-1.5832,-1.5832,-1.5832,-1.5832,-1.5338,-1.5006,-1.4977,-1.3716,-1.2674,-1.2328,-1.0403,-0.9438,-0.9872,-0.9021,-0.8815,-0.9679,-1.0714,-1.1205,-1.1126,-1.1199,-1.1199,-1.112,-1.0132,-0.9446,-0.9216,-0.8772,-0.8539,-1.7239,-1.8596,-1.9475,-1.8047,-1.6118,-1.4231,-1.3044,-1.1162,-0.9853,-1.0434,-1.0321,-1.0207,-1.0508,-1.0561,-1.0624,-1.0624,-1.1042,-1.1623,-1.2218,-1.412,-1.5686,-1.6277,-1.86,-1.9942,-1.9201,-2.0456,-2.1302,-2.1293,-2.2403,-2.2589,-2.1382,-2.2915,-2.401,-2.4394,-2.4414,-2.4414,-2.4414,-2.3994,-2.3564,-2.3135,-2.3135,-2.3135,-2.3135,-2.3135,-2.3135,-2.3135,-2.3135,-2.3055,-2.2867,-2.0525,-2.0953,-2.3135,-2.3135,-2.3135,-2.3135,-2.3135,-2.3135,-2.3135,-2.3135,-2.3135,-2.3135,-2.3135,-2.3084,-2.3108,-2.3057,-2.3135,-2.3135,-2.3135,-2.3135,-2.3135,-2.3135,-2.3036,-2.1823,-1.6941,-1.6757,-1.7318,-1.6109,-1.5832,-1.5832,-1.5832,-1.5832,-1.5832,-1.5832,-1.5832,-1.5832,-1.5832,-1.5832,-1.5832,-1.5832,-1.5324,-1.497,-1.4963,-1.4436,-1.3561,-1.2413,-1.1158,-1.0259,-0.9953,-0.9652,-0.9895,-1.072,-1.1768,-1.2164,-1.1877,-1.2158,-1.2158,-1.1877,-1.1108,-1.0728,-1.0563,-0.9534,-0.9281,-1.597,-1.6352,-1.6204,-1.6558,-1.4617,-1.2476,-1.2298,-1.0947,-0.9793,-1.0174,-1.0341,-1.0448,-1.0604,-1.0624,-1.0692,-1.0822,-1.1176,-1.1563,-1.1951,-1.3147,0.0,-1.5854,-1.8973,-2.088,-2.0651,-2.178,-2.2217,-2.1382,-2.2403,-2.295,-2.258,-2.3294,-2.39,-2.4161,-2.4018,-2.4253,-2.4779,-2.382,-2.3271,-2.3135,-2.3135,-2.3135,-2.3135,-2.3135,-2.3135,-2.3135,-2.3135,-2.3115,-2.2824,-1.8669,-1.9381,-2.3094,-2.3115,-2.3135,-2.3135,-2.3135,-2.3135,-2.3135,-2.3135,-2.3135,-2.3135,-2.3135,-2.3144,-2.2471,-1.9098,-2.0483,-2.3075,-2.3096,-2.3135,-2.3135,-2.3135,-2.3134,-2.2697,-2.1186,-1.9861,-1.8588,-1.7404,-1.7131,-1.685,-1.6015,-1.5832,-1.5832,-1.5832,-1.5832,-1.5832,-1.5832,-1.5832,-1.5832,-1.5832,-1.5324,-1.4963,-1.4963,-1.4436,-1.3913,-1.3555,-1.2427,-1.1931,-1.2431,-1.1589,-1.1508,-1.2376,-1.256,-1.264,-1.2546,-1.2358,-1.2258,-1.2164,-1.1951,-1.17,-1.1501,-1.0943,-1.0761,-1.4655,-1.5633,-1.5694,-1.5609,-1.3958,-1.2166,-1.174,-1.043,-0.9499,-1.0013,-1.018,-1.0261,-1.0374,-1.0788,-1.0989,-1.086,-1.143,-1.1875,-1.1901,-1.3182,-1.4969,-1.721,-1.8812,-2.026,-2.1623,-2.1771,-2.1765,-2.1943,-2.2677,-2.3135,-2.3135,-2.3378,-2.3599,-2.3679,-2.3906,-2.4169,-2.4441,-2.3761,-2.3301,-2.3135,-2.3135,-2.3135,-2.3135,-2.3135,-2.3135,-2.3135,-2.3135,-2.3105,0.0,-1.9789,-2.0369,-2.3121,-2.3057,-2.3135,-2.3135,-2.3135,-2.3135,-2.3135,-2.3135,-2.3135,-2.3135,-2.3135,-2.1872,-2.0107,-1.8921,-2.0712,-2.3111,-2.3134,-2.3125,-2.3135,-2.3135,-2.3076,-2.3113,-2.3111,-2.1563,-1.9761,-1.8048,-1.8048,-1.7863,-1.6103,-1.6312,-1.6501,-1.5927,-1.5832,-1.5832,-1.5832,-1.5832,-1.5832,-1.5832,-1.5391,-1.5181,-1.5124,-1.4703,-1.4369,-1.4262,-1.3083,-1.265,-1.3579,-1.2535,-1.2255,-1.3141,-1.2913,-1.2822,-1.2822,-1.2452,-1.2305,-1.2305,-1.2305,-1.2204,-1.2031,-1.1844,-1.1697,0.0,-1.5764,-1.6987,-1.4975,-1.3785,-1.2761,-1.1304,-0.9872,0.0,-0.9913,-0.9886,-0.98,-1.0094,-1.1027,-1.1553,-1.0826,-1.1831,-1.2596,-1.2168,-1.4074,-1.6684,-1.9592,-1.8402,-1.8613,-2.1978,-2.0633,-2.0584,-2.2775,-2.296,-2.3047,-2.3135,-2.3135,-2.3095,-2.3127,-2.3909,-2.4088,-2.3779,-2.376,-2.3545,-2.3135,-2.3135,-2.3135,-2.3135,-2.3135,-2.3135,-2.3135,-2.3135,-2.3105,-2.313,-2.3066,-2.3105,-2.3121,-2.3057,-2.3135,-2.3135,-2.3135,-2.3135,-2.3135,-2.3135,-2.3135,-2.3144,-2.3076,-1.983,-1.6636,-2.1225,-2.2597,-2.2608,-2.3003,-2.3124,-2.3135,-2.3135,-2.3135,-2.3106,-2.3142,-2.2199,-2.0782,-1.8542,-1.8804,-1.8788,-1.6508,-1.7196,-1.7665,-1.6116,-1.5832,-1.5832,-1.5832,-1.5832,-1.5832,-1.5832,-1.5591,-1.5389,-1.5384,-1.5137,-1.485,-1.4576,-1.3299,-1.2765,-1.3605,-1.2655,-1.2455,-1.32,-1.2973,-1.2876,-1.2856,-1.2465,-1.2305,-1.2305,-1.2305,-1.2305,-1.2305,-1.2305,-1.2158,-1.0661,0.0,-1.237,-1.1839,-1.1198,-1.0632,0.0,-0.9764,-0.9259,-0.9699,-0.9907,-1.01,-1.0401,-1.1176,-1.1772,-1.1655,-1.2367,-1.3216,-1.3704,-1.5048,-1.6475,-1.7744,-1.8505,-1.9167,-1.9877,-2.0536,-2.1114,-2.1658,-2.1747,-2.212,-2.3047,-2.3135,-2.3086,-2.3076,-2.3339,-2.3386,-2.3304,-2.3231,-2.3242,-2.3135,-2.3135,-2.3135,-2.3135,-2.3135,-2.3135,-2.3135,-2.3135,-2.3086,-2.3135,-2.3076,-2.3086,-2.3135,-2.3076,-2.3135,-2.3135,-2.3135,-2.3135,-2.3135,-2.3135,-2.3135,-2.3086,-2.3073,-1.9813,-1.5972,-1.716,-1.756,-1.8289,-2.2054,-2.3096,-2.3135,-2.3135,-2.3135,-2.3067,-2.3125,-2.2859,-2.2546,-2.1916,-2.0609,-1.9338,-1.8745,-1.7421,-1.6218,-1.5832,-1.5832,-1.5832,-1.5832,-1.5832,-1.5832,-1.5832,-1.5591,-1.5389,-1.5384,-1.5137,-1.4937,-1.4863,-1.4313,-1.4025,-1.4001,-1.3723,-1.369,-1.3888,-1.3594,-1.3327,-1.3106,-1.2579,-1.2305,-1.2305,-1.2305,-1.2305,-1.2305,-1.2305,-1.2265,-0.9256,-1.0179,-1.0965,-1.0661,-1.0023,-0.9524,-0.9506,-0.8707,-0.8171,-0.8903,0.0,-0.9633,-1.0239,-1.124,-1.2092,-1.2315,-1.3289,-1.4673,-1.6378,-1.726,-1.7957,-1.8756,-1.9563,-2.0038,-2.0102,-2.0364,-2.0666,-2.1293,-2.0755,-2.0764,-2.1409,-2.1409,-2.1409,-2.1409,-2.1409,-2.1946,-2.3133,-2.3135,-2.3135,-2.3135,-2.3135,-2.3135,-2.3135,-2.3135,-2.3135,-2.3047,-2.2492,-2.2589,-2.3057,-2.3076,-2.3057,-2.3135,-2.3135,-2.3135,-2.3135,-2.3135,-2.3135,-2.3135,-2.3135,-2.3135,-2.3125,-2.3143,-2.1318,-1.9167,-1.9182,-1.7591,-1.6801,-2.1728,-2.3135,-2.3135,-2.3135,-2.3135,-2.3135,-2.3135,-2.3057,-2.279,-2.1707,-2.0093,-1.8748,-1.7912,-1.7319,-1.6697,-1.5927,-1.5832,-1.5832,-1.5832,-1.5832,-1.5832,-1.5832,-1.5651,-1.5545,-1.5591,-1.5451,-1.5304,-1.517,-1.5017,-1.4796,-1.4509,-1.4362,-1.4282,-1.4282,-1.3748,-1.324,-1.2806,-1.2472,-1.2305,-1.2305,-1.2305,-1.2305,-1.2305,-1.2305,-1.2305,-0.8586,-0.9885,-1.0895,-1.0262,-0.9622,-0.9033,-0.8595,0.0,0.0,0.0,0.0,-0.911,-1.0005,-1.1423,-1.2515,-1.2721,-1.4315,-1.6294,-1.8594,-1.9425,-1.9883,-2.0105,-2.0499,-2.0914,-2.1175,-2.018,-2.0034,-2.1203,-2.0034,-1.9314,-1.9488,-1.9497,-1.9497,-1.9497,-1.9497,-2.0494,-2.2501,-2.2589,-2.2677,-2.2862,-2.2862,-2.295,-2.3135,-2.3135,-2.3067,-2.3018,-2.1989,-2.2195,-2.3086,-2.3063,-2.3104,-2.3096,-2.3067,-2.3135,-2.3135,-2.3135,-2.3135,-2.3135,-2.3135,-2.3135,-2.3145,-2.3138,-2.3265,-2.3477,-2.3472,-2.0922,-1.8815,-2.2977,-2.3614,-2.3135,-2.3135,-2.3135,-2.3135,-2.3135,-2.3076,-2.258,-2.0464,-1.9239,-1.7931,-1.6109,-1.6958,-1.7471,-1.6021,-1.5832,-1.5832,-1.5832,-1.5832,-1.5832,-1.5832,-1.5832,-1.5832,-1.5832,-1.5832,-1.5732,-1.5484,-1.5464,-1.5357,-1.511,-1.4736,-1.4496,-1.4456,-1.3701,-1.3013,-1.2452,-1.2438,-1.2418,-1.2371,-1.2418,-1.2438,-1.2438,-1.2438,-1.2438,-0.8586,-0.9364,-0.9769,-0.9207,-0.8918,-0.8717,-0.8149,0.0,0.0,0.0,0.0,0.0,-1.0434,-1.2074,-1.3105,-1.2193,-1.4715,-1.6973,-1.7445,-1.9261,-1.987,-1.7948,-1.9826,-2.1103,-2.1007,-2.0124,-2.0034,-2.1203,-1.9222,-1.8411,-1.9405,-1.9497,-1.9497,-1.9497,-1.9497,-1.9679,-2.0042,-2.0042,-2.0576,-2.1569,-2.1569,-2.212,-2.3135,-2.3135,-2.3076,-2.3073,-2.2885,-2.2919,-2.3119,-2.3118,-2.3111,-2.3053,-2.3125,-2.3135,-2.3135,-2.3135,-2.3135,-2.3135,-2.3135,-2.3135,-2.3067,-2.3076,-2.4145,-2.5269,-2.5335,-2.6406,-2.7801,-2.8596,-2.6044,-2.3135,-2.3135,-2.3135,-2.3135,-2.3135,-2.3115,-2.2974,-2.265,-2.0893,-1.8589,-1.6264,-1.6001,-1.6116,-1.5832,-1.5832,-1.5832,-1.5832,-1.5832,-1.5832,-1.5832,-1.5832,-1.5832,-1.5832,-1.5832,-1.5812,-1.5765,-1.5765,-1.5745,-1.5698,-1.4957,-1.4409,-1.4162,-1.3781,-1.3414,-1.308,-1.3073,-1.2939,-1.2755,-1.2946,-1.3073,-1.3073,-1.3073,-1.3073,-0.7996,-0.8728,-0.9185,-0.9065,-0.8938,-0.9023,-0.9406,-0.918,0.0,0.0,0.0,0.0,-1.2406,-1.3189,-1.3956,-1.4789,-1.7371,-1.9426,-1.9668,-2.0674,-2.0747,-1.9272,-2.0781,-2.1724,-2.1207,-2.0739,-2.0395,-2.0305,-1.868,-1.7684,-1.7483,-1.7483,-1.7483,-1.7483,-1.7483,-1.7483,-1.7483,-1.7483,-1.8756,-2.1293,-2.1974,-2.2527,-2.3135,-2.3135,-2.3086,-2.3041,-2.2159,-2.2316,-2.2922,-2.0286,-2.0689,-2.3121,-2.3104,-2.3076,-2.3135,-2.3135,-2.3135,-2.3135,-2.3135,-2.3693,-2.4486,-2.448,-2.6091,-2.79,-2.7906,-2.9195,-3.0652,-3.0425,-2.7713,-2.4978,-2.4978,-2.5706,-2.6168,-2.5168,-2.4978,-2.4566,-2.3345,-2.2208,-2.0782,-1.8862,-1.7579,-1.6857,-1.6857,-1.6298,-1.5832,-1.5832,-1.5832,-1.5832,-1.5832,-1.5832,-1.5832,-1.5832,-1.5832,-1.5832,-1.5832,-1.5832,-1.5698,-1.5384,-1.4983,-1.4489,-1.3874,-1.3714,-1.3507,-1.322,-1.3213,-1.314,-1.2999,-1.314,-1.3213,-1.3213,-1.3213,-1.3213,-0.7503,-0.8312,-0.8945,-0.9255,-0.9169,-0.9292,-1.03,-1.0071,-0.9953,-1.1272,-1.2067,-1.2842,-1.385,-1.3902,-1.4785,-1.7749,-1.9534,-2.0888,-2.1662,-2.2,-2.1853,-2.0911,-2.193,-2.2419,-2.1817,-2.148,-2.0935,-2.0034,-1.8503,-1.7225,-1.6292,-1.592,-1.5832,-1.5832,-1.6109,-1.6197,-1.6197,-1.6567,-1.811,-2.0845,-2.1626,-2.218,-2.2677,-2.2969,-2.3086,-2.3024,-2.1817,-2.1298,-2.1064,-1.7309,-1.8394,-2.2311,-2.2834,-2.3075,-2.3135,-2.3135,-2.3135,-2.3135,-2.3135,-2.393,-2.5189,-2.5581,-2.759,-2.984,-2.977,-3.0387,-3.1075,-3.1254,-2.9609,-2.7754,-2.7464,-2.851,-2.9287,-2.8016,-2.7569,-2.696,-2.5185,-2.4157,-2.315,-2.152,-1.9513,-1.8025,-1.7777,-1.6662,-1.5832,-1.5832,-1.5832,-1.5832,-1.5832,-1.5832,-1.5832,-1.5832,-1.5832,-1.5832,-1.5832,-1.5832,-1.5611,-1.5097,-1.4937,-1.4556,-1.3874,-1.3781,-1.3607,-1.332,-1.338,-1.338,-1.3313,-1.3126,-1.3159,-1.3414,-1.3085,-1.3159,-0.7503,-0.8396,-0.9248,-0.9664,-0.9484,-0.9285,-0.9673,-1.1122,-1.2094,-1.1225,-1.2487,-1.3656,-1.3406,-1.384,-1.5511,-1.9705,-1.9506,-1.9402,-2.1103,-2.2318,-2.26,-2.1435,-2.2356,-2.3018,-2.296,-2.1943,-2.1293,-2.1203,-1.9039,-1.7692,-1.7598,-1.648,-1.5832,-1.5832,-1.6943,-1.7598,-1.7598,-1.868,-1.9405,-1.9579,-1.8918,-1.9644,-2.1471,-2.263,-2.3076,-2.3075,-2.3005,-2.0386,-1.6312,-1.5933,-1.732,-1.9994,-2.2212,-2.3075,-2.3135,-2.3135,-2.3135,-2.3135,-2.3135,-2.3135,-2.3543,-2.518,-2.7561,-2.9841,-2.9779,-2.9819,-3.034,-3.2275,-3.2312,-3.1486,-3.0312,-3.0202,-3.0545,-3.1093,-3.0729,-3.0125,-2.9731,-2.7655,-2.5294,-2.3189,-2.0891,-1.8843,-1.7855,-1.6662,-1.5832,-1.5832,-1.5832,-1.5832,-1.5832,-1.5832,-1.5832,-1.5832,-1.5832,-1.5832,-1.5832,-1.5832,-1.5698,-1.5384,-1.4856,-1.4522,-1.4456,-1.4202,-1.3915,-1.3621,-1.3888,-1.3888,-1.3532,-1.2757,-1.2971,-1.4021,-1.288,-1.2971,-0.6924,-0.825,-0.9495,-0.9466,-0.9738,-1.035,-1.1409,-1.2306,-1.305,-1.3388,-1.4339,-1.504,-1.4988,-1.6478,-1.8127,-1.9399,-2.042,-2.1228,-2.1977,-2.2611,-2.296,-2.2492,-2.2862,-2.3037,-2.2773,-2.2524,-2.2017,-2.1047,-2.0347,-1.9579,-1.8864,-1.8395,-1.8118,-1.8118,-1.8588,-1.8669,-1.8356,-1.8656,-1.9085,-1.9765,-1.9246,-2.0199,-2.2342,-1.9762,-1.9221,-2.0288,-2.0254,-1.8588,-1.5771,-1.5797,-1.7582,-2.0451,-2.2368,-2.3125,-2.3135,-2.3135,-2.3135,-2.3135,-2.3135,-2.3115,-2.3171,-2.3856,-2.5434,-2.7184,-2.8151,-2.8823,-2.9861,-3.2595,-3.3159,-3.3118,-3.3624,-3.3903,-3.4077,-3.4315,-3.3887,-3.3053,-3.169,-2.9745,-2.7573,-2.5424,-2.315,-2.1016,-1.9115,-1.777,-1.6669,-1.592,-1.5832,-1.5832,-1.5832,-1.5832,-1.5832,-1.5832,-1.5832,-1.5832,-1.5832,-1.5832,-1.5785,-1.5671,-1.5117,-1.471,-1.4529,-1.4242,-1.3685,-1.2788,-1.2886,-1.2547,-1.177,-1.1428,-1.1472,-1.1912,-1.2157,-1.2504,-0.6582,-0.7816,-0.9091,-0.9154,-0.9649,-1.0501,-1.2153,-1.2923,-1.3626,-1.4668,-1.5465,-1.6203,-1.6867,-1.8244,-1.9354,-1.9455,-2.0891,-2.2016,-2.2249,-2.2676,-2.2891,-2.2754,-2.2744,-2.2627,-2.2344,-2.2578,-2.2265,-2.1172,-2.0953,-2.0625,-1.9945,-1.9504,-1.9323,-1.9323,-1.9793,-1.9855,-1.9394,-1.966,-2.0158,-2.095,-2.0725,-2.1506,-2.2928,-1.91,-1.7754,-1.8526,-1.905,-1.8278,-1.6853,-1.7054,-1.8344,-2.0529,-2.2334,-2.3135,-2.3135,-2.3135,-2.3135,-2.3135,-2.3135,-2.3055,-2.3102,-2.312,-2.4104,-2.5583,-2.6588,-2.7475,-2.8781,-3.1803,-3.2759,-3.3459,-3.5737,-3.6543,-3.6827,-3.7188,-3.6662,-3.5622,-3.4132,-3.2272,-3.0224,-2.7699,-2.5485,-2.315,-2.0497,-1.8748,-1.7225,-1.6015,-1.5832,-1.5832,-1.5832,-1.5832,-1.5832,-1.5832,-1.5832,-1.5832,-1.5832,-1.5832,-1.5832,-1.5832,-1.5371,-1.497,-1.4669,-1.3932,-1.3118,-1.2328,-1.198,-1.1552,-1.1123,-1.0783,-1.0956,-1.1735,-1.2072,-1.2498,-0.6582,-0.7133,-0.7955,-0.8945,-0.9091,-0.9529,-1.1457,-1.2942,-1.3984,-1.4457,-1.5584,-1.6967,-1.8638,-1.8467,-1.8643,-2.0324,-2.0615,-2.0924,-2.1758,-2.2236,-2.2353,-2.1934,-2.1885,-2.1885,-2.1875,-2.1885,-2.1885,-2.1875,-2.0736,-2.0207,-2.0688,-1.9562,-1.8855,-1.8855,-2.0447,-2.1094,-2.0716,-2.2312,-2.3083,-2.3073,-2.3083,-2.3118,-2.3008,-2.1358,-1.9724,-1.8313,-1.9877,-1.9967,-1.9022,-1.9692,-1.9766,-1.98,-2.2124,-2.3135,-2.3135,-2.3135,-2.3135,-2.3135,-2.3135,-2.3105,-2.3047,-2.3047,-2.4145,-2.5338,-2.5338,-2.5874,-2.7044,-2.9707,-3.1138,-3.2719,-3.635,-3.7514,-3.8155,-3.9736,-3.8894,-3.7716,-3.756,-3.5654,-3.3115,-3.0125,-2.7696,-2.5085,-2.1711,-1.9248,-1.7318,-1.6015,-1.5832,-1.5832,-1.5832,-1.5832,-1.5832,-1.5832,-1.5832,-1.5832,-1.5832,-1.5832,-1.5832,-1.5832,-1.5558,-1.5264,-1.4977,-1.3231,-1.2334,-1.2328,-1.1214,-1.1128,-1.2242,-1.1123,-1.1821,-1.3997,-1.2851,-1.2942,-0.7329,-0.8214,-0.9155,-0.9469,-0.9958,-1.0718,-1.1879,-1.2451,-1.3194,-1.4712,-1.5085,-1.5584,-1.7108,-1.7248,-1.7284,-1.7787,-1.9039,-1.9766,-1.9243,-2.0141,-2.0866,-2.0745,-2.0727,-2.0884,-2.1374,-2.1709,-2.1758,-2.1455,-2.1361,-2.1406,-2.1539,-2.1194,-2.1015,-2.1015,-2.1485,-2.1663,-2.1549,-2.2572,-2.2486,-2.1308,-2.1374,-2.1997,-2.3023,-2.1351,-2.0355,-1.9942,-2.0372,-1.9643,-1.8304,-1.98,-2.058,-2.0927,-2.2463,-2.3135,-2.3135,-2.3135,-2.3135,-2.3135,-2.3135,-2.2356,-2.1566,-2.2726,-2.2287,-2.1728,-2.42,-2.4522,-2.4714,-2.7775,-2.9406,-3.0709,-3.3058,-3.4773,-3.6523,-3.8755,-3.8066,-3.6951,-3.6862,-3.535,-3.3338,-3.0995,-2.8799,-2.6006,-2.1798,-1.9875,-1.8218,-1.6103,-1.5832,-1.5832,-1.5832,-1.5832,-1.5832,-1.5832,-1.5832,-1.5832,-1.5832,-1.5832,-1.5832,-1.5832,-1.5558,-1.5264,-1.4977,-1.3594,-1.261,-1.2334,-1.1287,-1.0855,-1.1123,-1.0783,-1.0956,-1.1649,-1.2072,-1.2504,-0.7195,-0.8134,-0.9215,-0.9741,-1.0233,-1.0847,-1.1879,-1.2679,-1.3646,-1.5316,-1.5337,-1.545,-1.6903,-1.6971,-1.6694,-1.6773,-1.804,-1.8555,-1.7527,-1.8396,-1.9094,-1.8936,-1.9111,-1.9485,-1.9986,-2.0555,-2.081,-2.0713,-2.0957,-2.126,-2.1611,-2.1621,-2.1621,-2.1621,-2.1797,-2.1807,-2.1631,-2.2615,-2.2392,-2.114,-2.0761,-2.1167,-2.2058,-2.1095,-2.059,-2.0614,-2.0614,-2.0136,-1.949,-2.0528,-2.1414,-2.212,-2.2862,-2.3057,-2.3142,-2.3096,-2.3057,-2.3046,-2.2406,-2.1386,-2.0616,-2.1416,-2.0802,-2.0128,-2.2077,-2.2397,-2.2533,-2.464,-2.6262,-2.783,-2.9353,-3.1585,-3.4257,-3.7202,-3.7214,-3.6615,-3.6615,-3.5245,-3.3504,-3.1924,-2.9618,-2.6736,-2.31,-2.0837,-1.8856,-1.685,-1.6103,-1.5832,-1.5832,-1.5832,-1.5832,-1.5832,-1.5832,-1.5832,-1.5832,-1.5832,-1.5832,-1.5832,-1.5665,-1.5384,-1.4983,-1.365,-1.2756,-1.2334,-1.1266,-1.0922,-1.1295,-1.1295,-1.1558,-1.1997,-1.2687,-1.3027,-0.6663,-0.75,-0.8618,-0.9859,-1.0129,-1.0486,-1.1784,-1.3338,-1.4764,-1.5881,-1.5688,-1.5794,-1.7424,-1.6944,-1.641,-1.6566,-1.7212,-1.7302,-1.6292,-1.6806,-1.7191,-1.6834,-1.7369,-1.792,-1.8348,-1.8974,-1.9443,-1.9824,-1.9853,-2.0205,-2.1016,-2.1094,-2.1113,-2.1113,-2.1543,-2.1592,-2.124,-2.2351,-2.2572,-2.2,-2.1024,-2.0564,-2.0615,-2.0591,-2.0582,-2.0566,-2.0566,-2.1045,-2.1826,-2.154,-2.2107,-2.3037,-2.3076,-2.3063,-2.2968,-2.2891,-2.2908,-2.2683,-2.1083,-2.0316,-1.9939,-1.9577,-1.9588,-1.966,-1.9529,-1.9918,-2.0416,-2.0891,-2.2457,-2.4357,-2.5508,-2.8276,-3.1546,-3.4946,-3.6091,-3.6353,-3.6353,-3.513,-3.3671,-3.2664,-3.0024,-2.7163,-2.4829,-2.1715,-1.9039,-1.7777,-1.6574,-1.5832,-1.5832,-1.5832,-1.5832,-1.5832,-1.5832,-1.5832,-1.5832,-1.5832,-1.5832,-1.5832,-1.5805,-1.5538,-1.4983,-1.3628,-1.2732,-1.2504,-1.1316,-1.1322,-1.2498,-1.2498,-1.3027,-1.4088,-1.4088,-1.4088,-0.7775,-0.862,-0.9604,-1.0601,-1.1279,-1.2044,-1.297,-1.3729,-1.4282,-1.4396,-1.4023,-1.4034,-1.526,-1.4626,-1.3994,-1.3994,-1.4877,-1.5121,-1.4073,-1.4773,-1.5592,-1.6275,-1.6505,-1.7252,-1.8953,-1.919,-1.9326,-1.9414,-1.9424,-1.9502,-1.9697,-2.0019,-2.0195,-2.0195,-2.0625,-2.1066,-2.135,-2.1191,-2.171,-2.2855,-2.1334,-2.0622,-2.0596,-2.0574,-2.0582,-2.0566,-2.0566,-2.0879,-2.1396,-2.1646,-2.2095,-2.2518,-2.2968,-2.2725,-2.2041,-2.136,-2.1425,-2.1527,-2.0117,-1.9367,-1.9112,-1.9132,-1.7936,-1.6759,-1.8827,-1.8739,-1.821,-1.9472,-2.0811,-2.2061,-2.3332,-2.6065,-2.883,-3.0568,-3.2779,-3.4537,-3.4537,-3.4269,-3.3518,-3.1815,-2.9528,-2.6898,-2.3754,-2.1175,-1.8764,-1.6567,-1.6015,-1.5832,-1.5832,-1.5832,-1.5832,-1.5832,-1.5832,-1.5832,-1.5832,-1.5832,-1.5832,-1.5832,-1.5618,-1.5331,-1.4977,-1.3902,-1.3381,-1.3743,-1.2719,-1.2719,-1.373,-1.373,-1.3822,-1.4088,-1.4088,-1.4088,-0.7253,-0.8262,0.0,-1.0704,-1.151,-1.2069,-1.2395,-1.2991,-1.3349,-1.2819,-1.3681,-1.4569,-1.4647,-1.4149,-1.3522,-1.3064,-1.3509,-1.376,-1.3473,-1.4023,-1.4858,-1.5822,-1.6184,-1.681,-1.7782,-1.8197,-1.8379,-1.8379,-1.8564,-1.876,-1.8965,-1.9385,-1.9609,-1.9609,-1.9834,-2.0164,-2.0602,-2.0567,-2.1063,-2.1876,-2.1018,-2.0179,-1.9348,-2.0206,-2.0596,-2.0566,-2.0566,-2.0712,-2.0941,-2.1163,-2.1811,-2.2754,-2.3134,-2.2449,-2.1351,-2.1794,-2.1693,-2.1216,-2.0069,-1.9135,-1.8378,-1.8026,-1.661,-1.5382,-1.7037,-1.6908,-1.6457,-1.7465,-1.854,-1.9777,-2.0962,-2.3388,-2.5962,-2.7897,-3.0884,-3.331,-3.331,-3.2961,-3.2393,-3.1389,-2.9024,-2.6676,-2.4882,-2.1725,-1.8672,-1.6197,-1.5832,-1.5832,-1.5832,-1.5832,-1.5832,-1.5832,-1.5832,-1.5832,-1.5832,-1.5832,-1.5832,-1.5832,-1.5691,-1.5411,-1.4983,-1.4973,-1.4708,-1.4102,-1.3617,-1.3617,-1.4088,-1.4088,-1.4088,-1.4088,-1.4088,-1.4088,-0.6475,-0.7795,-0.9265,-1.0606,-1.1269,-1.1557,-1.1526,-1.2052,-1.2491,-1.1878,-1.3716,-1.5119,-1.4229,-1.3872,-1.3474,-1.2662,-1.2709,-1.3096,-1.3556,-1.3968,-1.4576,-1.551,-1.6105,-1.6428,-1.6437,-1.6988,-1.7305,-1.7373,-1.7637,-1.8008,-1.8496,-1.8889,-1.9095,-1.9246,-1.9265,-1.9459,-1.9847,-2.035,-2.0452,-2.0144,-1.9858,-1.9095,-1.804,-1.9517,-2.0311,-2.0633,-2.0633,-2.0596,-2.0598,-2.0825,-2.1629,-2.2727,-2.3099,-2.2429,-2.148,-2.2549,-2.2298,-2.1293,-2.0374,-1.9208,-1.7929,-1.6827,-1.5711,-1.473,-1.5184,-1.5224,-1.5197,-1.5578,-1.642,-1.7512,-1.8672,-2.0766,-2.3138,-2.5588,-2.885,-3.1465,-3.1921,-3.1361,-3.0629,-3.0407,-2.7889,-2.5771,-2.5597,-2.2026,-1.8495,-1.648,-1.592,-1.5832,-1.5832,-1.5832,-1.5832,-1.5832,-1.5832,-1.5832,-1.5832,-1.5832,-1.5832,-1.5832,-1.5785,-1.5631,-1.5404,-1.619,-1.606,-1.4832,-1.4523,-1.4412,-1.4412,-1.4166,-1.4088,-1.4088,-1.4088,-1.4088,-0.6926,0.0,-1.0405,0.0,-1.0915,-1.1308,-1.1687,-1.2138,-1.26,-1.3164,-1.324,-1.2898,-1.2005,-1.1832,-1.1736,-1.1603,-1.2508,-1.3238,-1.3334,-1.3979,-1.4828,-1.5786,-1.565,-1.5817,-1.6565,-1.6718,-1.6973,-1.7353,-1.708,-1.7246,-1.8047,-1.815,-1.8432,-1.8922,-1.9198,-1.9675,-2.0456,-2.0539,-1.9843,-1.836,-1.6833,-1.6766,-1.8007,-1.8242,-1.9179,-2.0611,-2.0611,-2.0562,-2.0654,-2.1941,-2.1865,-2.0988,-2.1781,-2.3015,-2.4009,-2.1747,-2.1126,-2.1303,-2.075,-1.9561,-1.8126,-1.6646,-1.5389,-1.4603,-1.4923,-1.483,-1.4683,-1.499,-1.5258,-1.5604,-1.681,-1.8818,-2.0885,-2.2259,-2.441,-2.6844,-2.9366,-2.9197,-2.822,-2.7383,-2.4861,-2.2634,-2.2095,-1.9753,-1.787,-1.7505,-1.648,-1.5832,-1.5832,-1.5832,-1.5832,-1.5832,-1.5832,-1.5832,-1.5832,-1.5832,-1.5832,-1.5832,-1.5591,-1.5858,-1.6831,-1.6825,-1.7023,-1.7487,-1.6186,-1.5462,-1.5455,-1.4573,-1.4088,-1.4088,-1.4088,-1.4088,-0.7128,-0.8484,-0.9686,0.0,-1.0027,-0.9959,-1.0639,-1.1194,-1.1503,-1.1451,-1.1563,-1.1954,-1.2757,-1.3131,-1.3257,-1.2863,-1.3122,-1.3627,-1.4288,-1.4713,-1.5318,-1.6262,-1.6168,-1.617,-1.6377,-1.6357,-1.6338,-1.6279,-1.6328,-1.6553,-1.6928,-1.7293,-1.763,-1.7904,-1.783,-1.8273,-1.9099,-1.9157,-1.826,-1.6524,-1.5762,-1.5771,-1.6608,-1.7549,-1.8438,-1.9168,-1.9664,-1.9866,-1.9938,-2.0557,-2.1364,-2.2226,-2.2015,-2.353,-2.5457,-2.3056,-2.1439,-2.0454,-2.0592,-1.9353,-1.7691,-1.7022,-1.5676,-1.4335,-1.4623,-1.4623,-1.4583,-1.4877,-1.4963,-1.5397,-1.7201,-1.8374,-1.9751,-2.2181,-2.3313,-2.4106,-2.5354,-2.6051,-2.6177,-2.5037,-2.3849,-2.2575,-2.1245,-1.9452,-1.8185,-1.7755,-1.6574,-1.5832,-1.5832,-1.5832,-1.5832,-1.5832,-1.5832,-1.5832,-1.5832,-1.5832,-1.5832,-1.5832,-1.6355,-1.6834,-1.7168,-1.8346,-1.8965,-1.8885,-1.7631,-1.6881,-1.6601,-1.5545,-1.4977,-1.4977,-1.4412,-1.4088,-0.7269,0.0,-0.8871,-0.9152,-0.9018,-0.8958,-0.9546,-1.0179,-1.0408,-0.9795,-1.0351,-1.1376,-1.3018,-1.3616,-1.3742,-1.3556,-1.3584,-1.3902,-1.4729,-1.5151,-1.5601,-1.6272,-1.6299,-1.6143,-1.5918,-1.5898,-1.5811,-1.5596,-1.5781,-1.6076,-1.6351,-1.6523,-1.688,-1.7287,-1.6727,-1.6695,-1.7328,-1.6951,-1.6272,-1.5424,-1.525,-1.5306,-1.5591,-1.6801,-1.7531,-1.7816,-1.861,-1.8986,-1.8991,-1.9189,-2.0648,-2.2767,-2.2719,-2.3937,-2.5448,-2.3883,-2.1909,-1.9968,-2.0417,-1.9511,-1.806,-1.7819,-1.6281,-1.453,-1.4757,-1.4575,-1.4456,-1.4676,-1.4994,-1.5588,-1.729,-1.8135,-1.9178,-2.166,-2.2257,-2.2237,-2.2338,-2.3427,-2.4127,-2.3075,-2.2946,-2.2514,-2.1193,-2.0035,-1.8953,-1.8156,-1.698,-1.6204,-1.5825,-1.5832,-1.5832,-1.5832,-1.5832,-1.592,-1.6298,-1.6292,-1.6379,-1.6749,-1.7677,-1.8195,-1.8277,-1.978,-2.0571,-2.0208,-1.9268,-1.8447,-1.7747,-1.6683,-1.6108,-1.6108,-1.5304,-1.4741,-0.7525,-0.8333,0.0,-0.7448,-0.7996,-0.8818,-0.8858,-0.9348,-0.9737,-0.9686,-1.0351,-1.0922,-1.1047,-1.0997,-1.1268,-1.2329,-1.3415,-1.4064,-1.3714,-1.4694,-1.542,-1.5478,-1.5127,-1.5039,-1.541,-1.5449,-1.5605,-1.6056,-1.5664,-1.592,-1.6991,-1.6055,-1.6259,-1.7879,-1.6325,-1.5489,-1.5558,-1.3974,-1.3895,-1.54,-1.4859,-1.5148,-1.6074,-1.5702,-1.6143,-1.7194,-1.7793,-1.8062,-1.8117,-1.8978,-1.9869,-2.1005,-2.3603,-2.4062,-2.3276,-2.3183,-2.2035,-2.0567,-2.0571,-2.0489,-2.0245,-1.9283,-1.7407,-1.5621,-1.5636,-1.4922,-1.4115,-1.4128,-1.486,-1.5665,-1.5831,-1.7383,-1.9011,-1.9161,-1.9951,-2.0964,-2.1821,-2.2069,-2.2018,-2.1411,-2.134,-2.1396,-2.1753,-2.1183,-2.0193,-1.8977,-1.8109,-1.7131,-1.592,-1.5832,-1.5832,-1.5832,-1.5832,-1.6292,-1.7505,-1.7598,-1.8048,-1.9222,-1.9405,-1.9935,-2.1078,-2.0817,-2.105,-2.1773,-2.1273,-2.0349,-1.8877,-1.7747,-1.7261,-1.7261,-1.718,-1.6601,0.0,0.0,0.0,-0.7442,-0.7528,-0.7729,-0.7983,-0.8457,-0.8844,-0.8844,-0.9253,-0.976,-1.0497,-1.1534,-1.2351,-1.2776,-1.3589,-1.409,-1.3938,-1.4273,-1.459,-1.459,-1.4453,-1.4424,-1.458,-1.459,-1.4775,-1.5205,-1.5535,-1.6032,-1.6665,-1.6669,-1.6928,-1.7551,-1.6125,-1.4908,-1.3796,-1.3227,-1.3176,-1.3801,-1.4352,-1.4654,-1.4853,-1.5212,-1.5597,-1.6027,-1.6222,-1.6626,-1.725,-1.8115,-1.8329,-1.8187,-1.9383,-2.0183,-2.0857,-2.2529,-2.1342,-1.8946,-1.8913,-1.8829,-1.8711,-1.8574,-1.7167,-1.5579,-1.595,-1.5144,-1.4088,-1.4088,-1.4894,-1.5861,-1.6519,-1.7819,-1.9195,-1.9844,-2.0323,-2.0712,-2.1001,-2.1078,-2.1051,-2.085,-2.0801,-2.0947,-2.1396,-2.0559,-1.9876,-2.0018,-1.9059,-1.8336,-1.818,-1.7291,-1.6793,-1.7016,-1.612,-1.6085,-1.7576,-1.7692,-1.8234,-1.9405,-2.0215,-2.0845,-2.1293,-2.1649,-2.1872,-2.1894,-2.1455,-2.0847,-2.0001,-1.8957,-1.839,-1.839,-1.7666,-1.709,-0.7087,0.0,0.0,-0.7341,-0.7422,-0.7448,-0.7535,-0.7983,-0.8427,-0.8427,-0.853,-0.8901,-0.9778,-1.1231,-1.2458,-1.2815,-1.344,-1.3877,-1.374,-1.3828,-1.3926,-1.3926,-1.3926,-1.3922,-1.4068,-1.4291,-1.457,-1.4869,-1.5533,-1.6178,-1.672,-1.7129,-1.722,-1.702,-1.624,-1.4831,-1.2902,-1.3323,-1.3304,-1.2895,-1.3657,-1.4057,-1.4107,-1.4869,-1.5225,-1.5186,-1.5491,-1.6015,-1.6756,-1.73,-1.72,-1.6733,-1.7206,-1.8029,-1.9066,-2.0969,-2.0516,-1.8828,-1.8537,-1.819,-1.7934,-1.8563,-1.8044,-1.715,-1.7154,-1.6041,-1.4817,-1.4657,-1.5711,-1.6838,-1.7172,-1.839,-1.9678,-2.0401,-2.0566,-2.0566,-2.0566,-2.0566,-2.0566,-2.0566,-2.0566,-2.0654,-2.0957,-2.0462,-2.0108,-2.0418,-1.9922,-1.939,-1.9274,-1.8123,-1.7378,-1.7497,-1.633,-1.6258,-1.8118,-1.8319,-1.8907,-2.041,-2.1416,-2.1813,-2.1544,-2.1997,-2.21,-2.168,-2.123,-2.0859,-2.0566,-1.9844,-1.952,-1.952,-1.8789,-1.846,0.0,0.0,0.0,-0.6979,-0.7615,-0.8076,-0.7621,-0.7983,-0.842,-0.8363,-0.842,-0.8464,-0.8744,-0.9902,-1.1184,-1.2313,-1.3067,-1.335,-1.2939,-1.3232,-1.3435,-1.3486,-1.3486,-1.3601,-1.4,-1.4673,-1.505,-1.506,-1.5669,-1.6391,-1.724,-1.7279,-1.7061,-1.6527,-1.65,-1.5354,-1.3002,-1.4091,-1.4093,-1.2912,-1.2931,-1.3303,-1.4058,-1.4561,-1.4766,-1.4861,-1.5704,-1.6269,-1.668,-1.6655,-1.6655,-1.6772,-1.7606,-1.7903,-1.7985,-1.858,-1.9536,-2.0357,-1.9545,-1.8691,-1.8193,-1.9326,-2.0088,-2.0382,-1.9353,-1.7738,-1.6198,-1.5861,-1.7326,-1.8718,-1.7658,-1.9027,-2.0566,-2.0566,-2.0566,-2.0566,-2.0566,-2.0566,-2.0566,-2.0566,-2.0566,-2.0566,-2.0566,-2.0928,-2.0933,-2.0141,-2.0454,-2.0263,-1.9049,-1.8193,-1.755,-1.7123,-1.6278,-1.6734,-1.9222,-1.9405,-2.0338,-2.2273,-2.2804,-2.2658,-2.1914,-2.1875,-2.167,-2.124,-2.0791,-2.0566,-2.0566,-2.0566,-2.0566,-2.0566,-2.0576,-2.082,-0.7038,0.0,0.0,0.0,0.0,0.0,-0.756,-0.7983,-0.831,-0.8096,-0.8223,-0.8591,-0.9112,-0.9951,-1.0844,-1.1822,-1.2572,-1.3018,-1.29,-1.2546,-1.2454,-1.2998,-1.2622,-1.2501,-1.3163,-1.3787,-1.4303,-1.4579,-1.5657,-1.6563,-1.7111,-1.7268,-1.7081,-1.6534,-1.6505,-1.5753,-1.4206,-1.4221,-1.3796,-1.2895,-1.3303,-1.3382,-1.3252,-1.3984,-1.4297,-1.432,-1.4795,-1.5302,-1.579,-1.6257,-1.6134,-1.5756,-1.6052,-1.6147,-1.6128,-1.6326,-1.6992,-1.7762,-1.7701,-1.7852,-1.8115,-1.874,-1.9404,-1.9963,-2.012,-1.9036,-1.7747,-1.7658,-1.831,-1.9116,-1.959,-2.0157,-2.0566,-2.0566,-2.0566,-2.0566,-2.0566,-2.0566,-2.0566,-2.0566,-2.0566,-2.0566,-2.0566,-2.0664,-2.0917,-2.1326,-2.1453,-2.1655,-2.1886,-2.0013,-1.8725,-1.8779,-1.6856,-1.6237,-1.8025,-1.8234,-1.872,-1.9956,-2.0911,-2.1188,-2.0671,-2.1144,-2.1357,-2.123,-2.0791,-2.0566,-2.0566,-2.0566,-2.0566,-2.0576,-2.0898,-2.1113,0.0,0.0,0.0,-0.7208,0.0,0.0,-0.758,-0.7983,-0.8323,-0.815,-0.825,-0.8554,-0.9069,-0.968,-1.0334,-1.0881,-1.1584,-1.2206,-1.2832,-1.255,-1.2403,-1.2832,-1.251,-1.2452,-1.2881,-1.3467,-1.4026,-1.4473,-1.5498,-1.6287,-1.68,-1.6948,-1.6845,-1.6522,-1.6511,-1.6142,-1.5464,-1.4547,-1.3884,-1.3399,-1.3399,-1.3203,-1.29,-1.3372,-1.3607,-1.3606,-1.4172,-1.4498,-1.4785,-1.5698,-1.5792,-1.5396,-1.5396,-1.5399,-1.5439,-1.5684,-1.5947,-1.637,-1.7994,-1.9243,-2.002,-1.9576,-1.9203,-1.9141,-1.9824,-1.9412,-1.8565,-1.8202,-1.8231,-1.8756,-2.0178,-2.0566,-2.0712,-2.1231,-2.1385,-2.1385,-2.1221,-2.1145,-2.1088,-2.0644,-2.0713,-2.084,-2.084,-2.0996,-2.1289,-2.1807,-2.1885,-2.2002,-2.2305,-2.0612,-1.9338,-1.9026,-1.7206,-1.6444,-1.7452,-1.7602,-1.8033,-1.877,-1.9718,-2.0105,-1.9904,-2.0578,-2.0995,-2.0967,-2.0879,-2.0752,-2.0566,-2.0566,-2.0664,-2.0859,-2.1299,-2.1602,0.0,0.0,0.0,-0.7574,-0.7997,0.0,-0.7735,-0.8057,-0.8454,-0.8437,-0.8423,-0.8541,-0.8868,-0.938,-0.9819,-0.9951,-1.0442,-1.1225,-1.2471,-1.2618,-1.2618,-1.2774,-1.2725,-1.2725,-1.2881,-1.3467,-1.405,-1.4652,-1.532,-1.5908,-1.6466,-1.6522,-1.6522,-1.6522,-1.6522,-1.6479,-1.6411,-1.4971,-1.419,-1.407,-1.3272,-1.2881,-1.2891,-1.2874,-1.2906,-1.2925,-1.3642,-1.3826,-1.371,-1.5102,-1.5504,-1.5389,-1.5486,-1.5477,-1.5469,-1.6167,-1.6208,-1.6308,-1.9295,-2.1366,-2.2555,-2.0986,-1.9452,-1.835,-1.9056,-1.9082,-1.8769,-1.8128,-1.7823,-1.8253,-2.0091,-2.0518,-2.0864,-2.2253,-2.2584,-2.2552,-2.2307,-2.2125,-2.1738,-2.0924,-2.0997,-2.123,-2.123,-2.1553,-2.1836,-2.1875,-2.1846,-2.1689,-2.1348,-2.0513,-1.9621,-1.8559,-1.7606,-1.7085,-1.7213,-1.7412,-1.7675,-1.8032,-1.875,-1.9096,-1.9076,-1.9827,-2.03,-2.0253,-2.0738,-2.0818,-2.0469,-2.0635,-2.084,-2.125,-2.1728,-2.2158,-0.7903,-0.8016,-0.8143,-0.7903,-0.811,0.0,-0.8272,-0.847,-0.8687,-0.8669,-0.8656,-0.8872,-0.9692,-0.9757,-0.9998,-1.0824,-1.0871,-1.0922,-1.1174,-1.0728,-1.083,-1.1882,-1.1525,-1.1633,-1.2774,-1.3467,-1.405,-1.4652,-1.57,-1.638,-1.6466,-1.6522,-1.6522,-1.6522,-1.6522,-1.6287,-1.5763,-1.5445,-1.4801,-1.3862,-1.3203,-1.2881,-1.2881,-1.29,-1.292,-1.2929,-1.3086,-1.3111,-1.3138,-1.4235,-1.4852,-1.5277,-1.6149,-1.6092,-1.5536,-1.6882,-1.7998,-1.8899,-1.8452,-1.9418,-2.0766,-2.0106,-1.9712,-1.9407,-1.8913,-1.8975,-1.9268,-1.9254,-1.9132,-1.9245,-2.0361,-2.0234,-2.0442,-2.2731,-2.3255,-2.3372,-2.391,-2.2666,-2.168,-2.2029,-2.1605,-2.123,-2.123,-2.1309,-2.1484,-2.1836,-2.1582,-2.1455,-2.1728,-2.069,-2.0068,-2.0217,-1.8273,-1.7189,-1.7557,-1.672,-1.6037,-1.57,-1.6632,-1.7011,-1.6792,-1.7556,-1.8102,-1.8351,-1.9039,-1.9522,-1.9832,-2.0684,-2.1152,-2.125,-2.2031,-2.2432,-0.8196,-0.8263,-0.8337,-0.819,-0.837,0.0,0.0,-0.8597,-0.877,-0.8769,-0.8868,-0.9129,-0.9825,-0.9683,-0.966,-1.0393,-1.0109,-0.9814,-0.9814,-0.9969,-1.0359,-1.104,-1.1089,-1.1389,-1.2091,-1.2661,-1.3397,-1.4351,-1.5413,-1.6194,-1.6466,-1.6522,-1.6522,-1.6522,-1.6522,-1.6337,-1.6051,-1.5745,-1.531,-1.4698,-1.3471,-1.2882,-1.2892,-1.289,-1.2881,-1.2881,-1.2881,-1.292,-1.3026,-1.4302,-1.4886,-1.499,-1.599,-1.6309,-1.6258,-1.7543,-1.8298,-1.8756,-1.92,-2.0015,-2.0792,-2.0167,-1.9758,-1.9372,-1.8706,-1.8567,-1.874,-1.9189,-1.8994,-1.8945,-2.0234,-2.0361,-2.0943,-2.4244,-2.4941,-2.4929,-2.4679,-2.4281,-2.3778,-2.3091,-2.1865,-2.0996,-2.1269,-2.1455,-2.1562,-2.1562,-2.1377,-2.123,-2.123,-2.0709,-2.0272,-2.0084,-1.8493,-1.727,-1.6922,-1.6022,-1.5277,-1.4983,-1.5618,-1.6084,-1.6357,-1.6946,-1.7467,-1.7887,-1.8201,-1.8775,-1.9616,-2.0541,-2.1265,-2.1885,-2.2529,-2.2822,-0.8457,-0.8457,-0.8508,-0.8653,-0.8734,-0.8797,0.0,0.0,0.0,-0.8888,-0.9026,-0.9346,-0.9884,-0.9661,-0.9494,-0.9741,-0.9334,-0.8922,-0.8651,-0.9413,-1.0076,-1.0238,-1.0642,-1.1089,-1.1422,-1.2081,-1.2925,-1.395,-1.4998,-1.582,-1.6281,-1.6423,-1.6522,-1.6522,-1.6522,-1.6522,-1.6522,-1.6022,-1.5727,-1.5593,-1.4105,-1.3219,-1.2889,-1.2922,-1.2909,-1.2881,-1.2881,-1.2881,-1.3027,-1.4529,-1.5005,-1.4787,-1.5879,-1.6541,-1.7088,-1.8108,-1.8324,-1.8259,-2.006,-2.0916,-2.1044,-2.0338,-1.9424,-1.8609,-1.8353,-1.8177,-1.8105,-1.8584,-1.8379,-1.833,-1.9707,-2.0361,-2.1513,-2.503,-2.6219,-2.6163,-2.5059,-2.5347,-2.5506,-2.4327,-2.2188,-2.0713,-2.1172,-2.1533,-2.1641,-2.1289,-2.1162,-2.0977,-2.0605,-2.0566,-2.0399,-1.9833,-1.8802,-1.7652,-1.6606,-1.576,-1.5198,-1.4883,-1.5097,-1.5555,-1.6169,-1.6484,-1.6903,-1.7307,-1.7375,-1.8029,-1.9169,-2.0229,-2.1339,-2.2519,-2.2939,-2.3135,-0.8758,-0.8758,-0.8908,-0.9511,-0.9235,-0.8949,-0.9518,0.0,-0.8888,-0.9112,0.0,-0.9448,-1.0337,0.0,0.0,-0.9766,-0.9673,-0.9315,-0.8145,-0.8371,-0.8955,-0.9775,-0.9481,-0.9865,-1.1581,-1.2869,-1.3695,-1.3835,-1.4926,-1.5632,-1.572,-1.6194,-1.6522,-1.6522,-1.6522,-1.6522,-1.6522,-1.6441,-1.6114,-1.5605,-1.5396,-1.4449,-1.2879,-1.292,-1.2899,-1.2881,-1.2881,-1.2881,-1.2978,-1.4247,-1.4717,-1.4846,-1.6566,-1.7347,-1.7632,-1.8585,-1.9194,-1.9592,-1.9847,-1.9962,-1.9999,-1.9883,-1.8555,-1.705,-1.7431,-1.7742,-1.8018,-1.8086,-1.8057,-1.8057,-1.8252,-1.9422,-2.1122,-2.3059,-2.5021,-2.6163,-2.5059,-2.413,-2.4029,-2.5791,-2.3147,-2.0586,-2.0654,-2.1025,-2.1289,-2.124,-2.0898,-2.0625,-2.0576,-2.0566,-2.0732,-2.0941,-1.9961,-1.8924,-1.8239,-1.709,-1.587,-1.467,-1.4603,-1.4603,-1.4737,-1.4771,-1.4838,-1.4856,-1.5855,-1.6639,-1.7489,-1.9607,-2.1339,-2.2519,-2.2939,-2.3135,-0.9961,-0.9961,-0.9909,-0.9814,-0.9562,-0.9361,-0.9263,-0.9008,-0.8823,-0.8947,0.0,0.0,0.0,0.0,0.0,0.0,-0.9331,-0.8866,-0.801,-0.7882,-0.8099,-0.8637,-0.9316,-1.0283,-1.1556,-1.2407,-1.292,-1.3047,-1.4328,-1.5231,-1.5588,-1.6194,-1.6522,-1.6522,-1.6522,-1.6522,-1.6522,-1.6522,-1.6373,-1.6102,-1.5752,-1.5199,-1.4461,-1.375,-1.3246,-1.2881,-1.2881,-1.2881,-1.2978,-1.42,-1.4682,-1.4858,-1.632,-1.7124,-1.7564,-1.8292,-1.9083,-1.9798,-1.9798,-1.9798,-1.9643,-1.8821,-1.7913,-1.7225,-1.7229,-1.7598,-1.8008,-1.8008,-1.8008,-1.8008,-1.8008,-1.8519,-1.9748,-2.2433,-2.3853,-2.4406,-2.3941,-2.3416,-2.3414,-2.4343,-2.3161,-2.1391,-1.9421,-2.0068,-2.084,-2.084,-2.0684,-2.0566,-2.0566,-2.0566,-2.0635,-2.083,-1.986,-1.9021,-1.8772,-1.7111,-1.5882,-1.5426,-1.485,-1.4522,-1.4522,-1.4355,-1.4269,-1.4269,-1.5019,-1.5927,-1.6966,-1.8351,-1.9544,-2.0811,-2.2328,-2.3135,-1.0813,-1.0813,-1.0661,-1.0218,-0.9909,-0.9658,-0.9159,-0.8956,-0.8804,-0.8804,-0.8933,0.0,0.0,0.0,-0.9494,-0.9283,0.0,-0.8652,-0.7992,-0.7857,-0.7932,-0.829,-0.9652,-1.076,-1.1166,-1.1804,-1.2223,-1.2275,-1.3615,-1.4687,-1.5166,-1.5879,-1.6324,-1.6466,-1.6522,-1.6522,-1.6522,-1.6522,-1.6522,-1.6466,-1.6077,-1.5752,-1.5562,-1.4516,-1.372,-1.3135,-1.2949,-1.2881,-1.2978,-1.4204,-1.4695,-1.4835,-1.602,-1.6873,-1.7438,-1.7877,-1.8794,-1.9747,-1.9319,-1.8927,-1.8436,-1.7346,-1.7024,-1.7081,-1.7534,-1.7865,-1.8008,-1.8008,-1.8008,-1.8202,-1.9166,-1.9044,-1.942,-2.2372,-2.3078,-2.3078,-2.3078,-2.3078,-2.3078,-2.3078,-2.3078,-2.2235,-1.9653,-2.0234,-2.1011,-2.0634,-2.0779,-2.0857,-2.0644,-2.0566,-2.0566,-2.0566,-1.9923,-1.9362,-1.9045,-1.7245,-1.5967,-1.5539,-1.4888,-1.4569,-1.4819,-1.4682,-1.4817,-1.5241,-1.5339,-1.5995,-1.7041,-1.7804,-1.8503,-1.9039,-2.1132,-2.2315,-1.0813,-1.0813,-1.0813,-1.0762,-1.0261,-0.9814,-0.9762,-0.9263,-0.8804,-0.8804,-0.8798,-0.9001,-0.9666,-0.9799,-0.9575,-0.9001,-0.9159,0.0,0.0,-0.8349,-0.8852,-0.9276,-1.0421,-1.0885,-1.0197,-1.1398,-1.2041,-1.1679,-1.2981,-1.3903,-1.4124,-1.5107,-1.5908,-1.6466,-1.6522,-1.6522,-1.6522,-1.6522,-1.6522,-1.6522,-1.6466,-1.617,-1.5593,-1.4959,-1.435,-1.3734,-1.3135,-1.2881,-1.2968,-1.4212,-1.4709,-1.4835,-1.602,-1.6873,-1.74,-1.7576,-1.8555,-1.9592,-1.8178,-1.6743,-1.5517,-1.5468,-1.5468,-1.5908,-1.8478,-1.8649,-1.8008,-1.8008,-1.8008,-1.8777,-2.2113,-2.1729,-2.0974,-2.2689,-2.3078,-2.3078,-2.3078,-2.3078,-2.3078,-2.3078,-2.3078,-2.2911,-2.229,-2.2286,-2.2048,-2.0789,-2.1375,-2.1593,-2.0712,-2.0566,-2.0566,-2.0566,-2.0566,-2.0167,-1.9125,-1.7908,-1.637,-1.4264,-1.4362,-1.4891,-1.565,-1.5926,-1.6745,-1.8202,-1.7098,-1.6914,-1.7654,-1.8848,-1.8864,-1.7785,-1.9039,-2.0215,-1.2206,-1.2206,-1.2049,-1.1566,-1.1316,-1.0914,-1.0012,-0.9614,-0.9361,-0.891,-0.9159,-0.951,-0.9762,-0.9938,-0.9833,-0.905,-0.8752,-0.8498,0.0,-0.9164,-0.993,-0.952,-0.9996,-1.044,-1.0596,-1.1055,-1.1299,-1.1143,-1.2484,-1.3379,-1.3443,-1.4819,-1.5676,-1.5908,-1.6281,-1.6522,-1.6522,-1.6522,-1.6522,-1.6522,-1.6522,-1.6386,-1.617,-1.5179,-1.4598,-1.4338,-1.333,-1.2881,-1.2968,-1.4207,-1.4722,-1.4835,-1.602,-1.6635,-1.6911,-1.7702,-1.8068,-1.7974,-1.6893,-1.6014,-1.5738,-1.7665,-1.8317,-1.8494,-1.936,-1.9432,-1.9005,-1.8187,-1.9617,-2.1655,-2.2811,-2.2689,-2.2372,-2.2944,-2.3078,-2.3078,-2.3078,-2.3078,-2.3078,-2.3078,-2.3078,-2.3019,-2.2886,-2.3718,-2.3618,-2.1354,-2.1538,-2.1659,-2.0712,-2.0566,-2.0566,-2.0566,-2.0566,-2.0479,-2.0089,-1.9036,-1.7596,-1.551,-1.554,-1.5483,-1.5255,-1.6118,-1.6817,-1.7367,-1.7954,-1.837,-1.8611,-1.9199,-1.8864,-1.7692,-1.8141,-1.8956,-1.2881,-1.2881,-1.2715,-1.1972,-1.1814,-1.1466,-1.0115,-0.9814,-0.9666,-0.9263,-0.951,-0.9865,-1.0115,-1.0282,-1.0116,-0.9202,-0.9067,-0.8939,0.0,-0.9791,-1.0433,-0.986,-1.0197,-1.0601,-1.0886,-1.0908,-1.0908,-1.0908,-1.2259,-1.3136,-1.3195,-1.4716,-1.572,-1.5908,-1.6293,-1.6522,-1.6522,-1.6522,-1.6522,-1.6522,-1.6522,-1.6522,-1.6454,-1.5258,-1.4722,-1.4628,-1.3409,-1.2881,-1.3007,-1.4209,-1.4677,-1.4835,-1.602,-1.676,-1.7225,-1.8066,-1.7922,-1.7259,-1.6951,-1.6525,-1.6401,-1.8365,-1.9371,-1.9798,-1.9798,-2.0363,-2.0822,-2.0031,-2.1404,-2.3078,-2.3078,-2.3078,-2.3078,-2.3078,-2.3078,-2.3078,-2.3078,-2.3078,-2.3078,-2.3078,-2.3078,-2.3078,-2.3078,-2.4268,-2.4481,-2.2309,-2.2575,-2.2702,-2.1745,-2.1603,-2.1527,-2.1155,-2.1078,-2.0769,-2.0079,-1.9362,-1.8164,-1.6079,-1.6141,-1.598,-1.5395,-1.6382,-1.7343,-1.8338,-1.8814,-1.936,-2.0167,-2.0172,-1.9497,-1.8319,-1.8319,-1.8503]},{"header":{"parameterUnit":"m.s-1","parameterCategory":1,"la1":30.6,"la2":29.2853,"lo1":-89.7004,"lo2":-87.6739,"dy":0.0162,"dx":0.0183,"nx":112,"ny":82,"refTime":"2023-06-05T18:00:00:Z","depth":0,"parameterNumber":3,"parameterNumberName":"V-component_of_WINDS"},"data":[0.0,0.0,0.0,0.0,0.0,0.0,0.0,0.0,0.0,0.0,0.0,0.0,0.0,0.0,0.0,0.0,0.0,0.0,0.0,0.0,0.0,0.0,0.0,0.0,0.0,0.0,0.0,0.0,0.0,0.0,0.0,0.0,0.0,0.0,0.0,0.0,0.0,0.0,0.0,0.0,0.0,0.0,0.0,0.0,0.0,0.0,0.0,0.0,0.0,0.0,0.0,0.0,0.0,0.0,0.0,0.0,0.0,0.0,0.0,0.0,0.0,0.0,0.0,0.0,0.0,0.0,0.0,0.0,0.0,0.0,0.0,0.0,0.0,0.0,0.0,0.0,0.0,0.0,0.0,0.0,0.0,0.0,0.0,0.0,0.0,0.0,0.0,0.0,0.0,0.0,2.2382,2.3325,2.4797,2.5703,2.5703,2.4785,2.3906,2.3164,0.0,0.0,0.0,0.0,0.0,0.0,0.0,0.0,0.0,0.0,0.0,0.0,0.0,0.0,0.0,0.0,0.0,0.0,0.0,0.0,0.0,0.0,0.0,0.0,0.0,0.0,0.0,0.0,0.0,0.0,0.0,0.0,0.0,0.0,0.0,0.0,0.0,0.0,0.0,0.0,0.0,0.0,0.0,0.0,0.0,0.0,0.0,0.0,0.0,0.0,0.0,0.0,0.0,0.0,0.0,0.0,0.0,0.0,0.0,0.0,0.0,0.0,0.0,0.0,0.0,0.0,0.0,0.0,0.0,0.0,0.0,0.0,0.0,0.0,0.0,0.0,0.0,0.0,0.0,0.0,0.0,0.0,0.0,0.0,0.0,0.0,0.0,0.0,0.0,0.0,0.0,0.0,0.0,0.0,0.0,0.0,0.0,0.0,0.0,0.0,0.0,0.0,0.0,0.0,2.4241,2.5192,2.5547,2.5703,2.5703,2.4277,2.332,2.3184,0.0,0.0,0.0,0.0,0.0,0.0,0.0,0.0,0.0,0.0,0.0,0.0,0.0,0.0,0.0,0.0,0.0,0.0,0.0,0.0,0.0,0.0,0.0,0.0,0.0,0.0,0.0,0.0,0.0,0.0,0.0,0.0,0.0,0.0,0.0,0.0,0.0,0.0,0.0,0.0,0.0,0.0,0.0,0.0,0.0,0.0,0.0,0.0,0.0,0.0,0.0,0.0,0.0,0.0,0.0,0.0,0.0,0.0,0.0,0.0,0.0,0.0,0.0,0.0,0.0,0.0,0.0,0.0,0.0,0.0,0.0,0.0,0.0,0.0,0.0,0.0,0.0,0.0,0.0,0.0,0.0,0.0,0.0,0.0,0.0,0.0,0.0,0.0,0.0,0.0,0.0,0.0,0.0,0.0,0.0,0.0,0.0,0.0,0.0,0.0,0.0,0.0,0.0,2.4326,2.4705,2.5605,2.5703,2.5703,2.5703,2.416,2.3183,2.316,2.1862,0.0,0.0,0.0,0.0,0.0,0.0,0.0,0.0,0.0,0.0,0.0,0.0,0.0,0.0,0.0,0.0,0.0,0.0,0.0,0.0,0.0,0.0,0.0,0.0,0.0,0.0,0.0,0.0,0.0,0.0,0.0,0.0,0.0,0.0,0.0,0.0,0.0,0.0,0.0,0.0,0.0,0.0,0.0,0.0,0.0,0.0,0.0,0.0,0.0,0.0,0.0,0.0,0.0,0.0,0.0,0.0,0.0,0.0,0.0,0.0,0.0,0.0,0.0,0.0,0.0,0.0,0.0,0.0,0.0,0.0,0.0,0.0,0.0,0.0,0.0,0.0,0.0,0.0,0.0,0.0,0.0,0.0,0.0,0.0,0.0,0.0,0.0,0.0,0.0,0.0,0.0,0.0,0.0,0.0,0.0,0.0,0.0,0.0,0.0,0.0,0.0,0.0,2.5015,2.4931,2.5625,2.5703,2.5703,2.5703,2.3965,2.2946,2.309,2.126,0.0,0.0,0.0,0.0,0.0,0.0,0.0,0.0,0.0,0.0,0.0,0.0,0.0,0.0,0.0,0.0,0.0,0.0,0.0,0.0,0.0,0.0,0.0,0.0,0.0,0.0,0.0,0.0,0.0,0.0,0.0,0.0,0.0,0.0,0.0,0.0,0.0,0.0,0.0,0.0,0.0,0.0,0.0,0.0,0.0,0.0,0.0,0.0,0.0,0.0,0.0,0.0,0.0,0.0,0.0,0.0,0.0,0.0,0.0,0.0,0.0,0.0,0.0,0.0,0.0,0.0,0.0,0.0,0.0,0.0,0.0,0.0,0.0,0.0,0.0,0.0,0.0,0.0,0.0,0.0,0.0,0.0,0.0,0.0,0.0,0.0,0.0,0.0,0.0,0.0,0.0,0.0,0.0,0.0,0.0,0.0,0.0,0.0,0.0,0.0,0.0,0.0,2.5519,2.5554,2.5683,2.5703,2.5703,2.5703,2.3356,2.2234,2.3049,2.064,0.0,0.0,0.0,0.0,0.0,0.0,0.0,0.0,0.0,0.0,0.0,0.0,0.0,0.0,0.0,0.0,0.0,0.0,0.0,0.0,0.0,0.0,0.0,0.0,0.0,0.0,0.0,0.0,0.0,0.0,0.0,0.0,0.0,0.0,0.0,0.0,0.0,0.0,0.0,0.0,0.0,0.0,0.0,0.0,0.0,0.0,0.0,0.0,0.0,0.0,0.0,0.0,0.0,0.0,0.0,0.0,0.0,0.0,0.0,0.0,0.0,0.0,0.0,0.0,0.0,0.0,0.0,0.0,0.0,0.0,0.0,0.0,0.0,0.0,0.0,0.0,0.0,0.0,0.0,0.0,0.0,0.0,0.0,0.0,0.0,0.0,0.0,0.0,0.0,0.0,0.0,0.0,0.0,0.0,0.0,0.0,0.0,0.0,0.0,0.0,0.0,0.0,2.5598,2.5662,2.5703,2.5703,2.5488,2.4941,2.3027,2.1964,2.2202,0.0,0.0,0.0,0.0,0.0,0.0,0.0,0.0,0.0,0.0,0.0,0.0,0.0,0.0,0.0,0.0,0.0,0.0,0.0,0.0,0.0,0.0,0.0,0.0,0.0,0.0,0.0,0.0,0.0,0.0,0.0,0.0,0.0,0.0,0.0,0.0,0.0,0.0,0.0,0.0,0.0,0.0,0.0,0.0,0.0,0.0,0.0,0.0,0.0,0.0,0.0,0.0,0.0,0.0,0.0,0.0,0.0,0.0,0.0,0.0,0.0,0.0,0.0,0.0,0.0,0.0,0.0,0.0,0.0,0.0,0.0,0.0,0.0,0.0,0.0,0.0,0.0,0.0,0.0,0.0,0.0,0.0,0.0,0.0,0.0,0.0,0.0,0.0,0.0,0.0,0.0,0.0,0.0,0.0,0.0,0.0,0.0,0.0,0.0,0.0,0.0,0.0,2.5493,2.5629,2.5703,2.5703,2.5449,2.5059,2.4453,2.2597,2.1649,2.2076,0.0,0.0,0.0,0.0,0.0,0.0,0.0,0.0,0.0,0.0,0.0,0.0,0.0,0.0,0.0,0.0,0.0,0.0,0.0,0.0,0.0,0.0,0.0,0.0,0.0,0.0,0.0,0.0,0.0,0.0,0.0,0.0,0.0,0.0,0.0,0.0,0.0,0.0,0.0,0.0,0.0,0.0,0.0,0.0,0.0,0.0,0.0,0.0,0.0,0.0,0.0,0.0,0.0,0.0,0.0,0.0,0.0,0.0,0.0,0.0,0.0,0.0,0.0,0.0,0.0,0.0,0.0,0.0,0.0,0.0,0.0,0.0,0.0,0.0,0.0,0.0,0.0,0.0,0.0,0.0,0.0,0.0,0.0,0.0,0.0,0.0,0.0,0.0,0.0,0.0,0.0,0.0,0.0,0.0,0.0,0.0,0.0,0.0,0.0,0.0,0.0,0.0,2.5493,2.5609,2.5684,2.5703,2.4922,2.4394,2.4394,2.2007,2.1204,0.0,0.0,0.0,0.0,0.0,0.0,0.0,0.0,0.0,0.0,0.0,0.0,0.0,0.0,0.0,0.0,0.0,0.0,0.0,0.0,0.0,0.0,0.0,0.0,0.0,0.0,0.0,0.0,0.0,0.0,0.0,0.0,0.0,0.0,0.0,0.0,0.0,0.0,0.0,0.0,0.0,0.0,0.0,0.0,0.0,0.0,0.0,0.0,0.0,0.0,0.0,0.0,0.0,0.0,0.0,0.0,0.0,0.0,0.0,0.0,0.0,0.0,0.0,0.0,0.0,0.0,0.0,0.0,0.0,0.0,0.0,0.0,0.0,0.0,0.0,0.0,0.0,0.0,0.0,0.0,0.0,0.0,0.0,0.0,0.0,0.0,0.0,0.0,0.0,0.0,0.0,0.0,0.0,0.0,0.0,0.0,0.0,0.0,0.0,0.0,0.0,0.0,0.0,2.5411,2.508,2.5019,2.5625,2.4922,2.418,2.3594,2.1673,2.0943,2.2021,0.0,0.0,0.0,0.0,0.0,0.0,0.0,0.0,0.0,0.0,0.0,0.0,0.0,0.0,0.0,0.0,0.0,0.0,0.0,0.0,0.0,0.0,0.0,0.0,0.0,0.0,0.0,0.0,0.0,0.0,0.0,0.0,0.0,0.0,0.0,0.0,0.0,0.0,0.0,0.0,0.0,0.0,0.0,0.0,0.0,0.0,0.0,0.0,0.0,0.0,0.0,0.0,0.0,0.0,0.0,0.0,0.0,0.0,0.0,0.0,0.0,0.0,0.0,0.0,0.0,0.0,0.0,0.0,0.0,0.0,0.0,0.0,0.0,0.0,0.0,0.0,0.0,0.0,0.0,0.0,0.0,0.0,0.0,0.0,0.0,0.0,0.0,0.0,0.0,0.0,0.0,0.0,0.0,0.0,0.0,0.0,0.0,0.0,0.0,0.0,0.0,0.0,2.543,2.5158,2.5117,2.5644,2.4922,2.4062,2.3239,2.1844,2.121,2.1639,0.0,0.0,0.0,0.0,0.0,0.0,0.0,0.0,0.0,0.0,0.0,0.0,0.0,0.0,0.0,0.0,0.0,0.0,0.0,0.0,0.0,0.0,0.0,0.0,0.0,0.0,0.0,0.0,0.0,0.0,0.0,0.0,0.0,0.0,0.0,0.0,0.0,0.0,0.0,0.0,0.0,0.0,0.0,0.0,0.0,0.0,0.0,0.0,0.0,0.0,0.0,0.0,0.0,0.0,0.0,0.0,0.0,0.0,0.0,0.0,0.0,0.0,0.0,0.0,0.0,0.0,0.0,0.0,0.0,0.0,0.0,0.0,0.0,0.0,0.0,0.0,0.0,0.0,0.0,0.0,0.0,0.0,0.0,0.0,0.0,0.0,0.0,0.0,0.0,0.0,0.0,0.0,0.0,0.0,0.0,0.0,0.0,0.0,0.0,0.0,0.0,0.0,2.5493,2.5551,2.5605,2.5684,2.4922,2.4081,2.3285,2.2342,2.1763,2.1727,0.0,0.0,0.0,0.0,0.0,0.0,0.0,0.0,0.0,0.0,0.0,0.0,0.0,0.0,0.0,0.0,0.0,0.0,0.0,0.0,0.0,0.0,0.0,0.0,0.0,0.0,0.0,0.0,0.0,0.0,0.0,0.0,0.0,0.0,0.0,0.0,0.0,0.0,0.0,0.0,0.0,0.0,0.0,0.0,0.0,0.0,0.0,0.0,0.0,0.0,0.0,0.0,0.0,0.0,0.0,0.0,0.0,0.0,0.0,0.0,2.2564,2.3135,0.0,0.0,0.0,0.0,0.0,0.0,0.0,0.0,0.0,0.0,0.0,0.0,0.0,0.0,0.0,0.0,0.0,0.0,0.0,0.0,0.0,0.0,0.0,0.0,0.0,0.0,0.0,0.0,0.0,0.0,0.0,0.0,0.0,0.0,0.0,0.0,0.0,0.0,0.0,0.0,2.5411,2.5022,2.4941,2.5625,2.4922,2.4295,2.4061,2.2614,2.1978,2.2579,2.2559,0.0,0.0,0.0,0.0,0.0,0.0,0.0,0.0,0.0,0.0,0.0,0.0,0.0,0.0,0.0,0.0,0.0,0.0,0.0,0.0,0.0,0.0,0.0,0.0,0.0,0.0,0.0,0.0,0.0,0.0,0.0,0.0,0.0,0.0,0.0,0.0,0.0,0.0,0.0,0.0,0.0,0.0,0.0,0.0,0.0,0.0,0.0,0.0,0.0,0.0,0.0,0.0,0.0,0.0,0.0,0.0,0.0,0.0,0.0,2.2817,2.2849,0.0,0.0,0.0,0.0,0.0,0.0,0.0,0.0,0.0,0.0,0.0,0.0,0.0,0.0,0.0,0.0,0.0,0.0,0.0,0.0,0.0,0.0,0.0,0.0,0.0,0.0,0.0,0.0,0.0,0.0,0.0,0.0,0.0,0.0,0.0,0.0,0.0,0.0,0.0,0.0,2.543,2.5217,2.5195,2.5644,2.5293,2.482,2.4333,2.347,2.2731,2.2265,2.2981,0.0,0.0,0.0,0.0,0.0,0.0,0.0,0.0,0.0,0.0,0.0,0.0,0.0,0.0,0.0,0.0,0.0,0.0,0.0,0.0,0.0,0.0,0.0,0.0,0.0,0.0,0.0,0.0,0.0,0.0,0.0,0.0,0.0,0.0,0.0,0.0,0.0,0.0,0.0,0.0,0.0,0.0,0.0,0.0,0.0,0.0,0.0,0.0,0.0,0.0,0.0,0.0,0.0,2.7962,2.6686,2.8081,2.5419,2.5245,2.6953,2.5308,2.3859,2.2703,2.3771,0.0,0.0,0.0,0.0,0.0,0.0,0.0,0.0,0.0,0.0,0.0,0.0,0.0,0.0,0.0,0.0,0.0,0.0,0.0,0.0,0.0,0.0,2.823,2.8931,2.8699,2.7911,2.6304,0.0,0.0,0.0,0.0,0.0,0.0,0.0,0.0,0.0,0.0,0.0,2.5526,2.5611,2.5703,2.5703,2.5703,2.5386,2.4588,2.4397,2.3639,2.2072,2.3311,2.3688,0.0,0.0,0.0,0.0,0.0,0.0,0.0,0.0,0.0,0.0,0.0,0.0,0.0,0.0,0.0,0.0,0.0,0.0,0.0,0.0,0.0,0.0,0.0,0.0,0.0,0.0,0.0,0.0,0.0,0.0,0.0,0.0,2.231,2.231,0.0,0.0,0.0,0.0,0.0,0.0,0.0,0.0,0.0,0.0,0.0,0.0,0.0,2.3093,2.4799,2.5992,2.661,2.6744,3.0644,2.9824,2.4814,2.4392,2.9381,3.8169,3.5105,0.0,2.3955,2.4132,0.0,0.0,0.0,0.0,0.0,0.0,0.0,0.0,0.0,0.0,0.0,0.0,0.0,0.0,0.0,0.0,0.0,0.0,0.0,0.0,0.0,0.0,2.9906,3.0143,3.0162,3.0092,2.9831,2.8139,2.6645,2.6599,2.609,2.5821,0.0,0.0,0.0,0.0,0.0,0.0,2.557,2.5659,2.5703,2.5703,2.5703,2.5623,2.5442,2.4748,2.4166,2.3857,2.4017,2.4043,2.389,2.4803,0.0,0.0,0.0,0.0,0.0,0.0,0.0,0.0,0.0,0.0,0.0,0.0,0.0,0.0,0.0,0.0,0.0,0.0,0.0,0.0,0.0,0.0,0.0,0.0,0.0,0.0,0.0,0.0,0.0,2.2784,2.2936,2.2378,2.231,2.231,0.0,0.0,0.0,0.0,0.0,0.0,0.0,0.0,0.0,2.7442,2.5712,2.6793,3.0982,3.265,3.3278,3.2936,3.1704,3.0577,2.9664,3.2223,3.5971,4.0412,3.895,3.5362,3.0257,2.6403,2.4572,2.419,0.0,0.0,0.0,0.0,2.7777,2.6504,2.6801,2.7698,2.865,2.8218,0.0,0.0,0.0,0.0,0.0,0.0,0.0,2.968,2.9981,3.0975,3.2014,3.2568,3.2338,3.202,3.2077,3.0803,2.9401,2.8462,2.8002,2.7582,2.6887,2.6062,0.0,0.0,0.0,2.5564,2.5601,2.566,2.5703,2.5703,2.5703,2.5662,2.5603,2.5258,2.4818,2.4291,2.4624,2.4629,2.4165,2.4888,2.5203,0.0,0.0,0.0,0.0,0.0,0.0,0.0,0.0,0.0,0.0,0.0,0.0,0.0,0.0,0.0,0.0,0.0,0.0,0.0,0.0,0.0,0.0,0.0,0.0,0.0,0.0,0.0,0.0,2.3257,2.3646,2.2784,2.2682,2.2682,0.0,0.0,0.0,0.0,0.0,0.0,2.8032,2.9001,2.9852,3.0684,2.9101,3.0553,3.536,3.8402,3.9937,3.9863,3.5018,3.4153,3.6937,4.0291,4.1316,4.0489,4.0489,3.9084,3.6315,3.0371,2.7069,2.5853,2.6423,2.8117,3.0485,3.2613,3.1769,2.9584,2.9657,2.9814,2.9889,2.9493,2.8886,2.8135,2.7344,0.0,0.0,0.0,0.0,3.1709,3.2669,3.357,3.4422,3.5275,3.484,3.4243,3.4293,3.3629,3.2383,3.0216,2.9677,2.9215,2.8014,2.6757,0.0,2.6455,2.5993,2.5683,2.5924,2.5818,2.5703,2.5703,2.5703,2.5683,2.5633,2.5605,2.532,2.4666,2.5141,2.5143,2.4522,2.5037,2.5254,2.5088,0.0,0.0,0.0,0.0,0.0,0.0,0.0,0.0,0.0,0.0,0.0,0.0,0.0,0.0,0.0,0.0,0.0,0.0,0.0,0.0,0.0,0.0,0.0,0.0,0.0,0.0,0.0,0.0,0.0,2.3795,2.3727,0.0,0.0,0.0,0.0,2.3778,2.5524,2.8219,3.181,3.1899,3.2722,3.4741,3.325,3.3204,3.4925,4.0486,4.324,4.324,4.291,4.3549,4.5013,4.5241,4.3566,4.0489,4.0489,4.0392,3.9969,3.6449,3.3038,3.0305,3.2478,3.3421,3.3445,3.2589,3.1788,3.1128,3.1455,3.0914,3.0366,3.2025,3.2696,3.2869,3.281,3.2246,0.0,0.0,3.3682,3.4599,3.547,3.6348,3.7199,3.7936,3.7542,3.6996,3.6996,3.6378,3.4805,3.1464,3.0156,2.9784,3.0406,0.0,2.7398,2.9051,2.7181,2.5924,2.6816,2.6211,2.5703,2.5703,2.5703,2.5703,2.5703,2.5636,2.5581,2.5542,2.552,2.5457,2.5335,2.5379,2.5363,2.5303,2.5274,0.0,0.0,0.0,0.0,0.0,0.0,0.0,0.0,0.0,0.0,0.0,0.0,0.0,0.0,0.0,0.0,0.0,0.0,0.0,0.0,0.0,0.0,0.0,0.0,0.0,0.0,0.0,0.0,2.5676,2.6962,0.0,2.7182,2.6979,2.7555,2.9151,3.108,3.3841,3.763,3.6594,3.6646,3.8402,3.8244,3.8343,3.8888,4.1949,4.3497,4.3461,4.1405,4.1773,4.429,4.5203,4.372,4.0489,4.0489,3.9277,3.7199,3.5988,3.4782,3.3695,3.3771,3.4055,3.4342,3.3954,3.3656,3.3447,3.3447,3.3781,3.4071,3.3257,3.2673,3.2199,3.1688,3.2082,3.2944,3.3922,3.5231,3.654,3.7417,3.7867,3.8178,3.8424,3.7862,3.7261,3.7261,3.6601,3.5624,3.4363,3.2574,3.1152,3.0779,2.9059,2.7923,2.8511,2.784,2.7182,2.696,2.7185,2.6934,2.582,2.6191,2.6309,2.5742,2.5683,2.5657,2.5603,2.559,2.5503,2.5394,2.5406,2.5379,2.5313,2.5163,2.5163,0.0,0.0,0.0,0.0,0.0,0.0,0.0,0.0,0.0,0.0,0.0,0.0,0.0,0.0,0.0,0.0,0.0,0.0,0.0,0.0,0.0,0.0,0.0,0.0,0.0,2.6285,2.7841,2.7841,3.0057,3.1269,3.0495,3.0533,3.1253,3.2869,3.5705,3.8617,4.153,4.0108,3.9951,4.1562,4.1812,4.1919,4.1919,4.3434,4.3643,4.2464,4.0997,4.0873,4.193,4.3276,4.2624,4.0473,4.0063,3.8003,3.4925,3.4925,3.5136,3.5412,3.4676,3.4804,3.54,3.5362,3.5476,3.5685,3.5685,3.6319,3.6881,3.5377,3.4311,3.3515,3.2982,3.3623,3.4757,3.5678,3.7011,3.8379,3.9258,3.9432,3.9409,3.9409,3.8739,3.801,3.7697,3.6955,3.6245,3.5903,3.4322,3.2713,3.1718,3.0157,2.9113,2.9355,2.8686,2.8174,2.8187,2.8229,2.783,2.6699,2.6836,2.6777,2.6191,2.6133,2.5974,2.5622,2.5904,2.5873,2.5425,2.5415,2.5398,2.5313,2.5196,2.536,2.5772,0.0,0.0,0.0,0.0,0.0,0.0,0.0,0.0,0.0,0.0,0.0,0.0,0.0,0.0,0.0,0.0,0.0,0.0,0.0,0.0,0.0,0.0,0.0,2.5836,2.8334,3.0264,3.0298,3.2913,3.4336,3.3465,3.4649,3.519,3.4537,3.8899,4.2058,4.3183,4.2211,4.2415,4.4167,4.3758,4.3497,4.3497,4.4791,4.3778,4.0527,4.2464,4.1765,3.8792,3.9925,4.0454,4.0438,3.9268,3.6948,3.3954,3.3954,3.4617,3.5661,3.554,3.6054,3.6834,3.6702,3.707,3.7706,3.8136,3.8388,3.8486,3.8447,3.791,3.7269,3.7211,3.723,3.7448,3.819,3.9131,4.0137,4.0976,4.1082,4.0992,4.0992,4.0279,3.9373,3.8517,3.7622,3.6747,3.5898,3.5181,3.4407,3.3412,3.1865,3.1044,3.1806,2.9803,0.0,3.0478,2.9279,2.8283,2.834,2.7617,2.7109,2.7051,2.7031,2.6639,2.5661,2.6462,2.6486,2.5452,2.5477,2.5441,2.5303,2.536,2.5827,2.6694,0.0,0.0,0.0,0.0,0.0,0.0,0.0,0.0,0.0,0.0,0.0,0.0,0.0,0.0,0.0,0.0,0.0,0.0,0.0,0.0,0.0,2.8067,2.9331,2.9092,3.1718,3.4075,3.5183,3.7044,3.8081,3.7874,3.8397,3.8869,3.9067,3.9929,4.1553,4.4065,4.278,4.2739,4.4444,4.3855,4.3497,4.3497,4.2446,4.1431,4.0508,4.0621,4.0443,3.9984,3.9432,3.9668,4.0489,4.0157,3.8997,3.7349,3.7349,3.8056,3.8912,3.6729,3.6774,3.8088,3.7898,3.8202,3.8841,3.9863,4.0317,4.0311,3.9587,3.9183,3.8795,3.7562,3.8053,3.8957,3.8627,3.958,4.074,4.0994,4.0955,4.0857,4.0857,4.0213,3.9521,3.9295,3.807,3.69,3.6629,3.5949,3.5118,3.4162,3.3078,3.2441,3.2607,3.1564,3.0739,3.0645,3.0279,2.9808,2.9297,2.959,2.9316,2.8047,2.7949,2.7264,2.5701,2.5895,2.5888,2.5488,2.5543,2.5459,2.5232,2.5383,2.5828,0.0,0.0,0.0,0.0,0.0,0.0,0.0,0.0,0.0,0.0,0.0,0.0,0.0,0.0,0.0,0.0,0.0,0.0,0.0,0.0,0.0,0.0,3.1752,3.3603,3.4659,3.5764,3.7094,3.8742,3.9994,4.0899,4.127,4.1211,4.1341,4.1846,4.1577,4.2219,4.4001,4.3768,4.4034,4.5093,4.3258,4.2345,4.2526,4.139,4.0699,4.0489,4.0157,4.0157,4.0473,3.9778,3.9842,4.0489,4.0489,4.0101,3.9457,3.9457,3.9985,4.0621,0.0,0.0,0.0,0.0,3.956,3.9972,4.0721,4.1082,4.1094,4.0521,4.004,3.9517,3.8541,3.8916,3.9468,3.856,3.9485,4.0641,4.0163,4.0208,4.0391,4.0391,3.9978,3.9408,3.8689,3.7764,3.6832,3.6104,3.5701,0.0,3.4732,3.4036,3.3527,3.3455,3.2771,3.2232,3.2167,3.1864,3.1383,3.0635,3.073,3.011,2.8393,2.8281,0.0,0.0,0.0,2.603,2.557,2.5554,0.0,0.0,0.0,2.645,2.7201,2.7725,0.0,0.0,2.7702,2.661,0.0,0.0,0.0,0.0,0.0,0.0,0.0,0.0,0.0,0.0,0.0,0.0,0.0,0.0,0.0,0.0,3.6064,3.8466,4.0877,4.0056,3.9787,4.1379,4.2178,4.2882,4.3676,4.3211,4.2963,4.3199,4.3483,4.3645,4.366,4.4879,0.0,0.0,0.0,4.11,4.1125,4.1327,4.112,4.0505,4.0496,4.0489,4.0523,4.094,4.1137,4.1137,4.1137,4.0944,4.0582,4.0582,4.0816,4.1191,4.1055,4.0312,3.9413,4.032,4.059,4.0593,4.0902,0.0,0.0,4.1191,4.0659,3.9976,3.978,3.9799,3.9648,3.8403,3.9176,4.014,3.909,3.931,3.9776,3.9776,3.9686,3.9165,3.758,3.7187,3.6637,3.5128,3.4964,3.5051,3.5088,3.4732,3.4425,3.436,3.3603,3.3345,3.4195,3.3538,3.2753,3.2104,3.1408,0.0,2.8613,2.8447,2.7656,2.585,2.6425,2.6464,2.5646,2.5652,2.5628,2.5511,2.6529,2.7444,2.8205,2.9158,2.9609,2.9551,2.7843,2.6613,0.0,0.0,0.0,0.0,0.0,0.0,0.0,0.0,0.0,0.0,0.0,0.0,0.0,0.0,0.0,3.6454,3.8766,4.0889,4.2869,4.3317,4.3549,4.3887,4.4074,4.4139,4.4119,4.4322,4.4158,4.3489,4.452,4.5179,4.5165,4.5448,4.5634,4.566,4.514,4.3507,4.0655,4.2037,4.1972,4.0503,4.0502,0.0,4.0616,4.3753,4.5174,4.5174,4.5174,4.3612,4.1052,4.1052,4.1125,4.1094,4.0137,3.9336,3.8828,3.945,3.9097,3.8591,4.0506,4.1171,4.1191,4.1191,4.1503,4.164,4.0272,4.0765,0.0,3.9485,3.9561,4.0138,3.9695,3.96,3.9633,3.9633,3.9626,3.9316,3.8357,3.7602,3.6828,3.5847,3.5208,3.4851,3.507,3.5196,3.5258,3.5257,3.4507,3.4031,3.4272,3.3538,3.2985,3.2947,3.2817,3.2024,3.0272,2.9547,2.845,2.6677,2.6122,2.5814,2.5683,2.6345,2.6384,2.568,2.7225,2.8105,2.8281,2.918,2.9609,2.957,2.8515,2.7578,0.0,0.0,0.0,0.0,0.0,0.0,0.0,0.0,0.0,0.0,0.0,3.2559,3.3945,0.0,3.7544,4.0137,4.1821,4.3258,4.4559,4.5032,4.5185,4.5017,4.4836,4.482,4.4973,4.5241,4.517,4.46,4.4511,4.4813,4.5558,4.5586,4.5616,4.5699,4.4918,4.3954,4.2816,4.2128,4.1357,4.049,4.0491,4.0508,4.0625,4.4531,4.6308,4.6308,4.6308,4.4355,4.1191,4.1191,4.1191,4.1133,4.0547,3.9062,3.7539,3.9409,3.9743,3.9412,4.0586,4.103,4.1103,4.1103,4.1697,4.2168,4.0937,4.1328,4.1747,3.9558,3.9407,3.9697,3.8865,3.8894,3.9154,3.9154,3.8838,3.8342,3.7522,3.664,3.5802,3.5006,3.4637,3.4639,3.52,3.5515,3.5649,3.5523,3.5141,3.486,3.4897,3.4511,3.3928,3.3142,3.3081,3.2221,3.0086,2.9195,2.8376,2.7515,2.7094,2.6718,2.6319,2.7167,2.7246,2.6367,2.8066,2.8925,2.8899,2.9739,2.9908,2.9442,2.8993,2.8385,0.0,0.0,0.0,0.0,0.0,0.0,0.0,3.1008,3.1899,3.3732,3.487,3.617,3.839,3.9656,4.1065,4.3286,4.4357,4.5134,4.576,4.5838,4.5782,4.5589,4.5271,4.5266,4.5725,4.5817,4.5763,4.5617,4.4499,4.4305,4.5399,4.5457,4.5524,4.5626,4.4179,4.3771,4.4595,4.2354,4.1089,4.0799,4.0997,4.1225,4.1597,4.474,4.6167,4.6147,4.5868,4.4001,4.1191,4.1191,4.1538,4.2002,4.153,3.9486,3.7077,3.9435,4.0521,4.0832,4.103,4.1337,4.1568,4.1306,4.1944,4.263,4.1478,4.1632,4.1742,3.9403,3.9048,3.9095,3.7897,3.8052,3.8578,3.8676,3.8193,3.7459,3.6505,3.5752,3.5018,3.4192,3.4201,3.4667,3.5572,3.5899,3.6022,3.5914,3.5878,3.5854,3.5743,3.5738,3.5084,3.3333,3.3211,3.2202,2.9651,2.8722,2.823,2.8087,2.8136,2.7858,2.716,2.8012,2.808,2.7221,2.8902,2.9675,2.9452,3.0271,3.0287,2.9543,2.9543,2.9098,2.5616,2.6311,2.7685,2.9906,3.0247,3.1434,0.0,3.7035,3.6787,3.8487,3.9546,4.0234,4.0545,4.1902,4.3325,4.4371,4.5194,4.5763,4.6033,4.5811,4.5763,4.6145,4.5896,4.5684,4.5616,4.5635,4.5632,4.5607,4.5461,4.5226,4.4995,4.4992,4.4995,4.5001,4.464,4.3882,4.2798,4.3444,4.3137,4.1855,4.2739,4.3837,4.5045,4.5491,4.5677,4.5596,4.4297,4.2754,4.1191,4.1191,4.274,4.4897,4.2752,4.0979,3.9554,3.885,3.9532,4.0935,4.1888,4.2895,4.3557,4.2361,4.3094,4.3985,4.1571,4.172,4.2197,3.9675,3.8763,3.8426,3.7969,3.7907,3.8099,3.8596,3.8634,3.8157,3.6633,3.6211,3.5899,3.5027,3.4899,3.5247,3.6378,3.6603,3.6771,3.7204,3.7277,3.7116,3.6632,3.6584,3.593,3.4218,3.4071,3.3031,3.0479,2.9481,2.8714,2.805,2.8016,2.8015,2.7968,2.8743,2.8807,2.7984,2.963,3.0097,2.9322,3.0183,3.0553,3.0444,3.0444,2.9613,2.7959,2.9184,3.072,3.2346,3.3693,3.5429,3.8532,3.9214,3.9666,4.1347,4.2456,4.3249,4.3718,4.4386,4.4965,4.5333,4.5664,4.5636,4.5012,4.5016,4.4532,4.3108,4.4631,4.5799,4.5772,4.5662,4.5449,4.5063,4.514,4.4992,4.4516,4.4638,4.4732,4.4732,4.4073,4.3472,4.2908,4.2829,4.2825,4.2878,4.3299,4.3804,4.4382,4.4382,4.4721,4.522,4.3834,4.31,4.287,4.2582,4.3704,4.5418,4.3603,4.2565,4.1957,4.0862,4.0304,4.0319,4.192,4.3131,4.3849,4.3005,4.3637,4.4392,4.2797,4.2884,4.3057,4.0988,4.0077,3.9506,3.842,3.8331,3.8506,3.8292,3.8118,3.7808,3.7129,3.6229,3.5605,3.5734,3.5367,3.545,3.6925,3.7174,3.745,3.8305,3.7485,3.6724,3.6485,3.6189,3.5545,3.4334,3.3737,3.2814,3.1295,3.0814,3.0279,2.9447,2.9428,2.9248,2.8757,2.9596,2.966,2.8818,2.9977,3.0406,2.9994,3.035,3.0513,3.0482,3.0482,3.0105,3.0052,3.1642,3.3358,3.4808,3.6871,3.8842,4.0037,4.0998,4.2027,4.34,4.4326,4.5065,4.5648,4.5842,4.589,4.5872,4.5802,4.5456,4.4628,4.4136,4.2897,4.0311,4.2654,4.46,4.4974,4.5184,4.5077,4.4527,4.4619,4.4542,4.4175,4.4195,4.4177,4.408,4.3201,4.2759,4.2814,4.2154,4.2185,4.2885,4.2977,4.3196,4.3497,4.3497,4.3876,4.4556,4.4032,4.3886,4.4034,4.4017,4.4639,4.5475,4.4261,4.3758,4.3578,4.25,4.163,4.1156,4.2417,4.3522,4.4273,4.3699,4.415,4.4719,4.3528,4.3451,4.3442,4.1701,4.0665,3.9841,3.8887,3.8599,3.8525,3.8275,3.8056,3.7838,3.7569,3.6541,3.5881,3.6505,3.6119,3.6156,3.7569,3.7826,3.8037,3.8572,3.7385,3.6463,3.6595,3.5971,3.5257,3.4622,3.3776,3.3026,3.2449,3.1968,3.1429,3.0814,3.0586,3.0192,2.9555,3.0175,3.0253,2.9625,3.0215,3.0513,3.0463,3.0463,3.0451,3.0398,3.0398,3.0398,3.1457,3.2962,3.482,3.7276,3.9252,4.0955,4.2294,4.3311,4.4175,4.4729,4.5143,4.5389,4.5409,4.5675,4.5881,4.5815,4.5538,4.5372,4.5526,4.3331,4.0953,3.8992,4.0179,4.156,4.2602,4.386,4.4527,4.4233,4.4233,4.4175,4.3998,4.3509,4.3084,4.277,4.2144,4.1835,4.1835,4.1793,4.1621,4.1251,4.1664,4.2426,4.3497,4.3497,4.3409,4.3349,4.4863,4.491,4.3987,4.5064,4.5565,4.5531,4.4849,4.4419,4.402,4.2832,4.3269,4.4367,4.3919,4.4556,4.5393,4.4564,4.4853,4.5184,4.3139,4.2902,4.2975,4.1268,3.9678,3.8631,3.9279,3.8485,3.7801,3.8761,3.8959,3.8701,3.7699,3.7441,3.7422,3.7441,3.7452,3.7679,3.8524,3.867,3.8414,3.7654,3.7081,3.6878,3.7414,3.6316,3.5474,3.5468,3.468,3.4141,3.4122,3.2622,3.1698,3.166,3.0871,3.039,3.0352,3.039,3.0402,3.0383,3.0402,3.041,3.039,3.039,3.041,3.0398,3.0398,3.0398,3.3932,3.6259,3.8613,4.0043,4.1455,4.2758,4.3801,4.425,4.4309,4.3919,4.3073,4.2259,4.1724,4.1723,4.1951,4.247,4.3338,4.3992,4.4045,4.3303,4.2065,4.0304,4.1522,4.2355,4.1903,4.3002,4.3834,4.405,4.4058,4.3812,4.3159,4.2959,4.2641,4.2121,4.1534,4.1206,4.1206,4.0844,4.0594,4.0497,4.2126,4.2865,4.279,4.3286,4.3569,4.3782,4.471,4.4972,4.4727,4.5359,4.5419,4.5099,4.4732,4.3942,4.296,4.2562,4.2718,4.3171,4.333,4.3961,4.4656,4.4554,4.4715,4.4805,4.4099,4.3823,4.3565,4.2636,4.154,4.0506,3.9861,3.9355,3.8937,3.8783,3.8892,3.8922,3.8588,3.7958,3.7643,3.8193,3.7863,3.7753,3.856,3.8707,3.8615,3.834,3.6943,3.5834,3.5663,3.5268,3.4963,3.4963,3.4874,3.4569,3.3976,3.3574,3.2872,3.1775,3.1429,3.1006,3.0417,3.0398,3.0398,3.0398,3.0398,3.0398,3.0398,3.0398,3.0398,3.0398,3.0398,3.0398,3.7097,3.9146,4.1016,4.2345,4.325,4.3862,4.3999,4.3768,4.319,4.1911,4.0703,3.9623,3.8818,3.8633,3.8924,3.9879,4.0672,4.1747,4.3386,4.2733,4.1866,4.125,4.1781,4.2092,4.181,4.2106,4.2686,4.348,4.352,4.3211,4.2422,4.2162,4.1895,4.149,4.092,4.0607,4.0607,4.0286,4.007,4.0121,4.1578,4.2266,4.2203,4.3124,4.3631,4.3849,4.4409,4.4738,4.4943,4.5161,4.5099,4.4839,4.4279,4.3358,4.2342,4.1785,4.1828,4.2266,4.2959,4.3701,4.4346,4.4298,4.4177,4.4063,4.4082,4.3923,4.3661,4.3398,4.2389,4.1248,4.0692,3.9956,3.9387,3.9098,3.9122,3.9195,3.9031,3.8495,3.8172,3.8621,3.8285,3.8083,3.8615,3.8469,3.8267,3.8267,3.6851,3.5801,3.5833,3.5684,3.556,3.556,3.5457,3.519,3.4725,3.4297,3.3517,3.2218,3.2122,3.1756,3.091,3.1141,3.116,3.0871,3.0871,3.0717,3.0398,3.0398,3.0398,3.0398,3.0398,3.0398,4.0673,4.1529,4.2087,4.4077,4.4535,4.4191,4.3015,4.2089,4.0913,3.8994,3.8137,3.7473,3.6715,3.655,3.6934,3.821,3.7902,3.9042,4.3461,4.1711,4.0478,4.1831,4.1034,4.0872,4.2255,4.1346,4.125,4.2523,4.2616,4.2382,4.1853,4.1223,4.0903,4.0856,4.0368,4.007,4.007,4.007,4.007,4.007,4.007,4.0689,4.181,4.2903,4.341,4.3479,4.3924,4.4243,4.4463,4.4489,4.4619,4.4662,4.354,4.2777,4.2121,4.0642,4.0814,4.1902,4.2759,4.3682,4.4363,4.3785,4.3342,4.3061,4.3098,4.3116,4.3153,4.3408,4.2136,4.0872,4.1616,4.0418,3.9168,3.9588,3.9738,3.9643,3.919,3.9121,3.9061,3.8797,3.8726,3.8707,3.8707,3.8065,3.7551,3.7551,3.6909,3.6748,3.7708,3.7379,3.7055,3.7055,3.6346,3.6003,3.6253,3.4802,3.3616,3.3013,3.2968,3.2602,3.1795,3.2487,3.2526,3.1718,3.1698,3.1275,3.0398,3.0398,3.0398,3.0398,3.0398,3.0398,4.2105,4.3406,4.4588,4.4243,4.3687,4.3023,4.205,4.0747,3.9258,3.757,3.5491,3.391,3.3707,3.3872,3.4692,3.6748,3.8144,3.9783,4.2109,4.1791,4.1848,4.3208,4.2705,4.2565,4.3407,4.2757,4.207,4.1437,4.1768,4.1937,4.181,4.1223,4.0703,4.0336,4.0154,4.007,4.007,4.007,4.007,4.007,4.007,4.0546,4.1358,4.1961,4.2404,4.2675,4.2811,4.2869,4.29,4.3148,4.3148,4.2968,4.3075,4.2366,4.1178,4.0368,4.0546,4.1161,4.1402,4.192,4.2495,4.2322,4.2221,4.2119,4.2136,4.2154,4.2253,4.2752,4.1902,4.1024,4.1611,4.0799,3.985,3.9965,4.0181,4.0345,4.0228,4.0402,4.0361,3.9703,3.9111,3.8707,3.8707,3.8524,3.8395,3.8395,3.8212,3.7746,3.6822,3.6602,3.6481,3.6481,3.6138,3.592,3.6003,3.5441,3.4721,3.391,3.3872,3.3487,3.2622,3.2795,3.2526,3.1718,3.1698,3.1275,3.0398,3.0398,3.0398,3.0398,3.0398,3.0398,4.4281,4.5002,4.5338,4.4498,4.3426,4.2199,4.0744,3.9101,3.7238,3.5008,3.2952,3.1458,3.1109,3.1436,3.2496,3.4666,3.6219,3.7976,4.04,4.0742,4.1416,4.3227,4.2917,4.2802,4.3406,4.265,4.194,4.1321,4.1358,4.1313,4.1076,4.0703,4.0417,4.0121,4.007,4.007,4.007,4.007,4.007,4.007,4.007,4.0336,4.0703,4.1178,4.1578,4.1895,4.208,4.2132,4.2109,4.2276,4.2255,4.2069,4.2131,4.1427,4.0377,4.017,4.0053,4.0051,4.0414,4.075,4.1105,4.1313,4.1241,4.1105,4.1446,4.149,4.1525,4.2115,4.1692,4.1174,4.1682,4.0965,4.0075,4.0092,4.0227,4.0506,4.1034,4.125,4.1152,4.0258,3.9722,3.9373,3.9258,3.9239,3.9111,3.8762,3.8707,3.8505,3.7955,3.7569,3.7349,3.7349,3.7017,3.684,3.6933,3.627,3.5556,3.4834,3.4776,3.4372,3.3506,3.3833,3.366,3.2814,3.2795,3.2372,3.1506,3.1141,3.0968,3.0968,3.0571,3.0398,4.649,4.6202,4.5263,4.4865,4.3398,4.152,3.9296,3.7339,3.5121,3.2128,3.0742,2.9908,2.9274,2.9728,3.088,3.3033,3.3845,3.5474,3.8982,3.9417,4.0215,4.2502,4.2405,4.2315,4.274,4.1894,4.1389,4.1561,4.1087,4.0607,4.0254,4.0121,4.007,4.007,4.007,4.007,4.007,4.007,4.007,4.007,4.007,4.007,4.0121,4.0577,4.0874,4.1087,4.1402,4.1621,4.1664,4.1578,4.1639,4.1621,4.1059,4.0394,3.9868,4.002,3.9558,3.8854,3.9782,4.007,4.0171,4.0655,4.0497,4.0204,4.0891,4.0903,4.0879,4.1435,4.1308,4.1204,4.1736,4.1051,4.0221,4.0297,4.0415,4.0713,4.1713,4.1866,4.1561,4.0672,4.0445,4.0331,4.0102,3.9868,3.9502,3.8805,3.8695,3.9019,3.9827,3.9221,3.8744,3.8854,3.834,3.7991,3.8116,3.7034,3.6116,3.5551,3.5493,3.5161,3.4391,3.5103,3.5084,3.4218,3.4199,3.3718,3.2737,3.2045,3.1641,3.1506,3.0756,3.0398,4.6962,4.6644,4.6084,4.5319,4.3079,4.0484,3.8258,3.5932,0.0,3.0639,2.9773,2.9638,2.9945,3.0314,3.1617,3.4783,3.5087,3.613,3.9481,3.9464,3.9877,0.0,4.2293,4.2279,4.231,4.2209,4.1629,4.0487,4.0286,4.0417,4.0733,4.0319,4.007,4.007,4.007,4.007,4.007,4.007,4.007,4.007,4.007,4.007,4.0121,4.0204,4.0254,4.0286,4.0385,4.0625,4.1041,4.0594,4.0672,4.0995,4.0449,4.0137,4.0037,4.007,3.9226,3.8206,3.961,4.007,4.0138,4.0204,4.0171,4.0121,4.0254,4.0254,4.0254,4.0355,4.0355,4.062,4.1932,4.1525,4.0901,4.1407,4.1896,4.2306,4.2516,4.2214,4.1839,4.1669,4.1262,4.095,4.091,3.9808,3.8853,3.8729,3.8693,3.9085,4.0097,3.9313,3.8946,3.9625,3.8827,3.7981,3.7363,3.6896,3.631,3.5551,3.5493,3.543,3.5276,3.543,3.5084,3.4218,3.4199,3.343,3.191,3.1775,3.1333,3.0609,3.0456,3.0398,4.7808,4.7108,4.6138,4.5908,4.2827,3.9433,3.7869,0.0,0.0,3.0278,2.9626,2.9483,2.9743,3.0272,3.1345,3.341,3.3652,3.4765,3.8191,3.7996,3.8679,4.1867,4.226,4.2292,4.2278,4.2277,4.1677,4.0189,4.007,4.0204,4.0449,4.0254,4.007,4.007,4.007,4.007,4.007,4.007,4.007,4.007,4.007,4.007,4.007,4.007,4.007,4.007,4.007,4.0254,4.0466,4.061,4.0608,4.0449,4.0204,4.0087,4.0117,4.0121,3.9282,3.8372,3.9645,4.007,4.007,4.007,4.007,4.007,4.007,4.007,4.007,4.007,4.007,4.0272,4.1003,4.1751,4.2323,4.2616,4.292,4.3123,4.3123,4.2921,4.2711,4.2711,4.2525,4.2213,4.1809,4.0976,4.0178,3.9626,3.9516,3.9699,4.0225,3.974,3.946,3.9845,3.9346,3.8822,3.8445,3.7769,3.7219,3.6834,3.5988,3.5493,3.5493,3.5369,3.5097,3.4676,3.4657,3.4274,3.347,3.2705,3.2102,3.1679,3.0814,3.0398,4.8226,4.7307,4.5973,4.6312,4.2549,3.848,3.7408,3.4415,3.143,2.9921,2.9494,2.9392,2.933,2.985,3.0666,3.1637,3.1991,3.3406,3.697,3.687,3.7802,4.1563,4.2053,0.0,4.183,4.1965,4.1508,4.0172,4.007,4.007,4.007,4.007,4.0172,4.0392,4.0189,4.0172,4.0392,4.0189,4.007,4.007,4.007,4.007,4.007,4.007,4.007,4.007,4.007,4.0189,4.0375,4.0798,4.0763,4.0423,4.0205,4.012,4.0091,4.0121,3.9595,3.9043,3.98,4.007,4.007,4.007,4.007,4.007,4.007,4.007,4.007,4.007,4.007,4.0155,4.0273,4.1631,4.3017,4.3269,4.3424,4.3497,4.3497,4.3497,4.3497,4.3497,4.3497,4.3296,4.2671,4.2362,4.1959,4.1101,4.0683,4.0595,4.0928,4.0386,4.001,4.0139,3.9759,3.9453,3.9335,3.8441,3.7847,3.7738,3.6272,3.5398,3.5398,3.5174,3.494,3.4731,3.4921,3.4845,3.4483,3.3547,3.2916,3.2519,3.127,3.0571,4.7555,4.69,4.5973,4.6312,4.2169,3.766,3.6346,0.0,3.0564,2.8671,2.8873,2.933,2.9089,2.9104,2.9733,3.1516,3.187,3.3398,3.7549,3.7624,3.8225,4.074,0.0,0.0,4.0341,4.0899,4.0967,4.0138,4.007,4.007,4.007,4.007,4.0493,4.1424,4.0561,4.0527,4.1441,4.0544,4.007,4.007,4.007,4.007,4.007,4.007,4.007,4.007,4.007,4.0459,4.1052,4.0442,4.0756,4.1509,4.0489,4.0104,4.0088,4.0087,4.007,4.0003,4.007,4.007,4.007,4.007,4.007,4.007,4.007,4.007,4.007,4.007,4.007,4.0239,4.09,4.1136,4.144,4.2486,4.3151,4.3497,4.3497,4.3497,4.3497,4.3497,4.3497,4.3461,4.3387,4.3369,4.333,4.3214,4.1959,4.1559,4.2996,4.147,4.0446,4.0946,3.9888,3.8939,3.8459,3.7869,3.7345,3.6858,3.5752,3.5138,3.5138,3.4889,3.4356,3.3583,3.4319,3.3998,3.2468,3.3306,3.2928,3.1444,3.1546,3.116,4.5462,4.5682,4.5185,4.5194,4.0767,3.6311,3.5988,0.0,2.928,2.8498,2.8895,2.9372,2.9267,2.9112,2.924,2.9999,3.0137,3.1301,3.463,3.4889,3.6075,3.9697,4.0165,4.0385,4.0747,4.1035,4.0882,4.0138,4.007,4.007,4.007,4.051,4.095,4.1356,4.0967,4.095,4.1356,4.051,4.007,4.007,4.007,4.007,4.007,4.007,4.007,4.007,4.007,4.0646,4.1477,4.0476,4.0356,4.0722,4.0289,4.007,4.007,4.007,4.007,4.007,4.007,4.007,4.007,4.007,4.007,4.007,4.007,4.007,4.007,4.007,4.007,4.0189,4.0442,4.1,4.164,4.2521,4.3114,4.3497,4.3497,4.3497,4.3497,4.3497,4.3497,4.3497,4.3497,4.3497,4.3513,4.3511,4.2947,4.2766,4.3437,4.2187,4.1232,4.1111,3.9915,3.9003,3.8796,3.8487,3.789,3.6996,3.625,3.5529,3.4889,3.4553,3.4233,3.3877,3.4214,3.4083,3.3409,3.3505,3.2976,3.182,3.1412,3.0776,4.2531,4.3695,4.4142,4.3944,3.9433,3.5143,3.553,0.0,2.807,2.8539,2.8799,2.901,2.9251,2.9134,2.8994,2.8994,2.9402,3.0527,3.2904,3.37,3.5418,3.901,3.9336,3.9755,4.0906,4.11,4.0898,4.037,4.0204,4.0154,4.0336,4.0985,4.1356,4.1525,4.1525,4.1525,4.1525,4.0781,4.0307,4.007,4.007,4.007,4.007,4.007,4.007,4.007,4.007,4.0662,4.1561,4.0888,4.0385,4.007,4.007,4.007,4.007,4.007,4.007,4.007,4.007,4.007,4.007,4.007,4.0239,4.0391,4.0189,4.007,4.007,4.007,4.007,4.007,4.007,4.0794,4.1695,4.2302,4.2847,4.3304,4.3463,4.3497,4.3497,4.3497,4.3497,4.3497,4.3497,4.3497,4.3497,4.3497,4.3497,4.3497,4.3497,4.243,4.1511,4.1148,3.9834,3.9008,3.9099,3.8826,3.8207,3.7168,3.6519,3.5685,3.4609,3.4242,3.3981,3.374,3.3963,3.3963,3.3722,3.3665,3.3214,3.2406,3.1902,3.1054,3.8719,4.0806,4.2981,4.2775,3.8437,3.4357,3.4887,3.0668,2.7071,2.8668,2.8356,2.8044,2.887,2.9017,2.8994,2.8994,3.0338,3.1935,3.3568,3.5393,3.7178,3.8815,3.8778,3.9138,4.0482,4.0804,4.092,4.0903,4.0417,4.0336,4.0856,4.1339,4.1798,4.2252,4.2286,4.2286,4.2286,4.1559,4.0815,4.007,4.007,4.007,4.007,4.007,4.007,4.007,4.007,4.0544,4.1254,4.162,4.1122,4.007,4.007,4.007,4.007,4.007,4.007,4.007,4.007,4.007,4.007,4.007,4.0595,4.1052,4.0341,4.007,4.007,4.007,4.007,4.007,4.007,4.051,4.1043,4.1668,4.2268,4.2864,4.3375,4.3497,4.3497,4.3497,4.3497,4.3497,4.3497,4.3497,4.3497,4.3497,4.3497,4.3497,4.3497,4.2103,4.113,4.1111,3.9662,3.8833,3.9072,3.8595,3.7954,3.7147,3.6338,3.5381,3.426,3.3935,3.3421,3.2632,3.3403,3.3403,3.2632,3.3685,3.3766,3.2999,3.325,3.2367,3.367,3.5066,3.5972,3.5509,3.283,3.0496,3.122,2.8894,2.6906,2.7952,2.8411,2.8705,2.8938,2.8994,2.9177,2.9732,3.0705,3.177,3.2834,3.4932,0.0,3.8039,3.9335,4.0325,4.0749,4.0535,4.0497,4.0856,4.0417,4.0154,4.0319,4.1172,4.1816,4.2274,4.2669,4.2649,4.2277,4.105,4.0307,4.007,4.007,4.007,4.007,4.007,4.007,4.007,4.007,4.0442,4.0965,4.073,4.0634,4.0612,4.0239,4.007,4.007,4.007,4.007,4.007,4.007,4.007,4.007,4.007,4.0493,4.0959,4.0724,4.0637,4.0578,4.0206,4.007,4.007,4.007,4.0476,4.0946,4.1134,4.1639,4.2244,4.2808,4.2939,4.305,4.341,4.3497,4.3497,4.3497,4.3497,4.3497,4.3497,4.3497,4.3497,4.3497,4.2103,4.1111,4.1111,3.9662,3.875,3.8815,3.8821,3.8425,3.7423,3.7324,3.6777,3.5688,3.4982,3.4495,3.4238,3.3954,3.3678,3.3421,3.3747,3.3504,3.2705,3.2236,3.17,2.9554,3.1184,3.2177,3.1827,2.9933,2.8488,2.9613,2.7712,2.6098,2.7512,2.797,2.8191,2.8503,2.8662,2.9004,2.9635,3.057,3.155,3.2478,3.4794,3.6819,3.7982,3.9888,4.0858,4.0242,4.0517,4.072,4.0625,4.0286,4.007,4.007,4.0697,4.129,4.1852,4.2687,4.2719,4.1909,4.0949,4.0358,4.007,4.007,4.007,4.007,4.007,4.007,4.007,4.007,4.0425,0.0,4.035,4.0411,4.0866,4.0341,4.007,4.007,4.007,4.007,4.007,4.007,4.007,4.007,4.007,4.0707,4.1455,4.128,4.1091,4.0849,4.0476,4.0256,4.007,4.007,4.0375,4.0646,4.0849,4.1202,4.1664,4.2519,4.2519,4.2598,4.3356,4.334,4.3269,4.3463,4.3497,4.3497,4.3497,4.3497,4.3497,4.3497,4.2286,4.1427,4.1552,4.0396,3.9478,3.9184,3.91,3.8646,3.7562,3.7738,3.744,3.635,3.5477,3.499,3.499,3.4211,3.3807,3.3807,3.3807,3.3532,3.3054,3.254,3.2137,0.0,2.8733,3.0646,3.0703,2.9064,2.784,2.9448,2.694,0.0,2.7236,2.7163,2.6924,2.7732,2.8173,2.8594,2.9148,3.0228,3.1374,3.2546,3.5054,3.7255,3.8659,4.0379,4.0842,3.9245,4.0715,4.1286,4.0254,4.0171,4.0121,4.007,4.007,4.0408,4.1086,4.226,4.236,4.1187,4.1153,4.0781,4.007,4.007,4.007,4.007,4.007,4.007,4.007,4.007,4.0425,4.0883,4.0358,4.0425,4.0866,4.0341,4.007,4.007,4.007,4.007,4.007,4.007,4.007,4.0087,4.0172,4.1112,4.2232,4.1882,4.1403,4.0996,4.0865,4.0459,4.007,4.007,4.007,4.0222,4.0696,4.0886,4.123,4.2391,4.2234,4.2198,4.3287,4.3102,4.2912,4.3393,4.3497,4.3497,4.3497,4.3497,4.3497,4.3497,4.2546,4.1996,4.2268,4.1589,4.0799,4.0047,3.946,3.8711,3.7636,3.7822,3.7497,3.6515,3.5642,3.5137,3.5082,3.4247,3.3807,3.3807,3.3807,3.3807,3.3807,3.3807,3.3403,2.4372,0.0,2.5084,2.5102,2.486,2.4895,0.0,2.5604,2.5438,2.6649,2.7218,2.775,2.8576,2.8555,2.9137,3.1382,3.1801,3.2303,3.3707,3.6555,3.905,4.0566,4.1319,4.1339,4.0307,4.0742,4.0995,4.0733,4.0685,4.0528,4.0121,4.007,4.0189,4.0375,4.0629,4.0917,4.1189,4.0646,4.0257,4.007,4.007,4.007,4.007,4.007,4.007,4.007,4.007,4.0189,4.0273,4.0172,4.0189,4.0273,4.0172,4.007,4.007,4.007,4.007,4.007,4.007,4.007,4.0189,4.0781,4.1077,4.1338,4.1684,4.1369,4.0838,4.0408,4.0206,4.007,4.007,4.007,4.0155,4.0256,4.061,4.1096,4.1877,4.2254,4.2679,4.3368,4.3391,4.3376,4.3497,4.3497,4.3497,4.3497,4.3497,4.3497,4.3497,4.2546,4.1996,4.2268,4.1589,4.1038,4.0836,4.0142,3.9332,3.8469,3.8486,3.8394,3.8157,3.7349,3.6615,3.6009,3.4559,3.3807,3.3807,3.3807,3.3807,3.3807,3.3807,3.3697,2.3958,2.3835,2.3785,2.3945,2.4198,2.465,2.5596,2.5467,2.5336,2.604,0.0,2.7585,2.8323,2.8718,2.9556,3.1465,3.2083,3.2955,3.4924,3.7013,3.8951,4.0453,4.0785,4.0858,4.0762,4.1068,4.1223,4.0903,4.1178,4.1196,4.0908,4.0908,4.0908,4.0908,4.0908,4.0844,4.0679,4.0273,4.007,4.007,4.007,4.007,4.007,4.007,4.007,4.0121,4.0368,4.0336,4.0138,4.0375,4.0341,4.007,4.007,4.007,4.007,4.007,4.007,4.007,4.007,4.007,4.0256,4.1324,4.1615,4.1576,4.1848,4.1695,4.1324,4.0651,4.0273,4.007,4.007,4.007,4.007,4.007,4.0341,4.0694,4.1259,4.1657,4.2109,4.2979,4.3137,4.3215,4.3463,4.3497,4.3497,4.3497,4.3497,4.3497,4.3497,4.3002,4.2708,4.2837,4.2451,4.2047,4.168,4.1258,4.0653,3.9863,3.946,3.9239,3.9239,3.7771,3.6376,3.5183,3.4266,3.3807,3.3807,3.3807,3.3807,3.3807,3.3807,3.3807,2.4247,2.4465,2.476,2.4775,2.4905,2.5332,2.6451,0.0,0.0,0.0,0.0,2.7227,2.7868,2.8814,2.9845,3.0902,3.2152,3.397,3.669,3.7515,3.84,3.9887,4.0016,4.0175,4.0678,4.1376,4.1534,4.0949,4.1534,4.1895,4.1793,4.181,4.181,4.181,4.181,4.1331,4.0385,4.0336,4.0286,4.0204,4.0204,4.0154,4.007,4.007,4.0155,4.0273,4.071,4.0666,4.0391,4.0764,4.0629,4.0206,4.0155,4.007,4.007,4.007,4.007,4.007,4.007,4.007,4.029,4.1528,4.1971,4.1921,4.1699,4.1509,4.1286,4.0611,4.0289,4.007,4.007,4.007,4.007,4.007,4.0172,4.0319,4.0822,4.1025,4.1486,4.2519,4.2777,4.2971,4.3428,4.3497,4.3497,4.3497,4.3497,4.3497,4.3497,4.3497,4.3497,4.3497,4.3497,4.3222,4.2543,4.2488,4.2194,4.1515,4.0487,3.9827,3.9717,3.7643,3.5752,3.4211,3.4174,3.4119,3.399,3.4119,3.4174,3.4174,3.4174,3.4174,2.4247,2.5212,2.5957,2.4624,2.4335,2.4615,2.5651,0.0,0.0,0.0,0.0,0.0,2.8668,2.8971,2.9783,3.1973,3.4046,3.6608,4.0121,3.9933,3.9852,4.1032,4.0875,4.0539,3.9928,4.1034,4.1534,4.0949,4.1937,4.2342,4.1853,4.181,4.181,4.181,4.181,4.1725,4.1552,4.1552,4.1268,4.078,4.078,4.0528,4.007,4.007,4.0375,4.0781,4.0864,4.1136,4.1494,4.1069,4.0849,4.0747,4.0256,4.007,4.007,4.007,4.007,4.007,4.007,4.007,4.0155,4.0375,4.0383,4.0244,3.9578,3.8965,3.8442,3.8294,3.9162,4.007,4.007,4.007,4.007,4.007,4.0442,4.0814,4.0861,4.1677,4.2499,4.2648,4.3082,4.3393,4.3497,4.3497,4.3497,4.3497,4.3497,4.3497,4.3497,4.3497,4.3497,4.3497,4.3497,4.3442,4.3314,4.3314,4.3259,4.313,4.1093,3.9588,3.8909,3.7863,3.6853,3.5936,3.5917,3.555,3.4807,3.5569,3.5917,3.5917,3.5917,3.5917,2.4428,2.4819,2.5236,2.4905,2.5594,2.6205,2.5841,2.5923,0.0,0.0,0.0,0.0,2.9404,3.0514,3.2097,3.463,3.5814,3.7119,3.9233,3.9088,3.9226,4.0405,4.0134,4.001,4.0308,4.0924,4.1358,4.1402,4.2203,4.2693,4.2734,4.2734,4.2734,4.2734,4.2734,4.2734,4.2734,4.2734,4.2126,4.0903,4.0896,4.0639,4.007,4.007,4.0391,4.0933,4.124,4.1533,4.1781,4.1824,4.1495,4.0866,4.0629,4.0375,4.007,4.007,4.007,4.007,4.007,4.0627,4.1157,4.0341,4.0369,4.0595,3.9304,3.8919,3.8708,3.774,3.8144,3.8832,3.8832,3.8472,3.8253,3.8756,3.8646,3.8747,3.9631,4.048,4.123,4.1629,4.2441,4.3069,4.3069,4.3304,4.3497,4.3497,4.3497,4.3497,4.3497,4.3497,4.3497,4.3497,4.3497,4.3497,4.3497,4.3497,4.313,4.2268,4.1167,3.9808,3.812,3.7679,3.711,3.6321,3.6303,3.6101,3.5716,3.6101,3.6303,3.6303,3.6303,3.6303,2.4543,2.4487,2.4575,2.4919,2.6257,2.7372,2.7009,2.7116,2.7533,2.8433,2.8953,2.9536,3.0391,3.2163,3.4207,3.6391,3.7128,3.7684,3.8482,3.8492,3.8823,3.9956,3.9563,3.9625,4.0603,4.0827,4.1087,4.1534,4.2302,4.2902,4.3286,4.3444,4.3497,4.3497,4.3375,4.3321,4.3321,4.316,4.2408,4.1133,4.1103,4.0851,4.0286,3.9985,4.0391,4.1323,4.1466,4.1801,4.2247,4.2573,4.2051,4.1091,4.0982,4.0578,4.007,4.007,4.007,4.007,4.007,4.0828,4.151,4.0348,4.0144,4.0143,3.8973,3.8719,3.8546,3.7082,3.6892,3.7167,3.7285,3.6492,3.5846,3.6676,3.6255,3.6103,3.7692,3.8659,3.9497,4.0474,4.1609,4.2465,4.2655,4.3124,4.3497,4.3497,4.3497,4.3497,4.3497,4.3497,4.3497,4.3497,4.3497,4.3497,4.3497,4.3497,4.2892,4.1479,4.1038,3.9992,3.812,3.7863,3.7386,3.6597,3.6762,3.6762,3.6578,3.6812,3.6904,3.6853,3.6951,3.6904,2.4543,2.4912,2.5067,2.407,2.4707,2.6403,2.9551,2.9747,3.0124,3.3068,3.3177,3.2565,3.1971,3.3208,3.4634,3.5548,3.7671,3.9561,4.0539,4.0263,4.015,4.074,4.0331,4.007,4.0171,4.0625,4.0903,4.0949,4.2021,4.2711,4.275,4.3214,4.3497,4.3497,4.3014,4.275,4.275,4.2203,4.1853,4.175,4.1754,4.1417,4.081,3.9595,4.0375,4.2499,4.1289,4.1797,4.334,4.2898,4.2336,4.1683,4.1123,4.0578,4.007,4.007,4.007,4.007,4.007,4.007,3.9968,3.9908,3.8639,3.7182,3.7606,3.6823,3.5681,3.5222,3.5109,3.5277,3.5806,3.4743,3.3628,3.4081,3.383,3.3901,3.5275,3.6533,3.7855,3.9564,4.0781,4.1831,4.258,4.3124,4.3497,4.3497,4.3497,4.3497,4.3497,4.3497,4.3497,4.3497,4.3497,4.3497,4.3497,4.3497,4.313,4.2268,4.0818,3.99,3.9717,3.9019,3.823,3.7422,3.8157,3.8157,3.7434,3.8405,3.8766,3.8524,3.8776,3.8766,2.455,2.5392,2.5913,2.4986,2.6219,2.7867,2.8778,3.008,3.1506,3.2929,3.3782,3.4181,3.3862,3.4163,3.4822,3.5916,3.7806,3.9301,3.9648,3.9965,4.0171,4.0368,4.0204,3.9901,3.9445,4.0014,4.034,4.0216,4.1033,4.175,4.2121,4.2306,4.2426,4.2426,4.2244,4.193,4.1471,4.1658,4.1162,3.9861,4.0806,4.0736,3.9691,3.9207,3.9627,4.0691,4.0184,4.1024,4.275,4.2532,4.2186,4.17,4.0771,4.0256,4.007,4.007,4.007,4.007,4.007,4.0442,4.0747,3.9508,3.8979,3.8642,3.7358,3.6892,3.6386,3.4498,3.4038,3.3996,3.3771,3.2597,3.1501,3.1444,3.1188,3.1366,3.2959,3.4673,3.6424,3.8049,3.9497,4.0804,4.1943,4.2637,4.3142,4.3444,4.3497,4.3497,4.3497,4.3497,4.3497,4.3497,4.3497,4.3497,4.3497,4.3497,4.3369,4.3057,4.1534,4.0414,3.9918,3.9129,3.8645,3.8498,3.8795,3.8906,3.8801,3.9208,3.9358,3.9268,3.9152,3.9063,2.4563,2.5366,2.585,2.5496,2.7061,2.8851,2.934,3.1008,3.2895,3.4555,3.5146,3.535,3.5363,3.5047,3.5095,3.6019,3.7883,3.9112,3.8732,3.9276,3.9648,3.9411,3.9394,3.9191,3.87,3.9106,3.9353,3.9198,3.9824,4.0478,4.1121,4.1354,4.1439,4.1439,4.1498,4.1165,4.0433,4.076,4.0211,3.8786,3.9811,3.9817,3.8925,3.873,3.8958,3.9504,3.9059,3.9878,4.1451,4.1685,4.1689,4.1401,4.05,4.007,4.007,4.007,4.007,4.007,4.007,4.0544,4.0832,3.9446,3.9335,3.9394,3.7796,3.7471,3.7172,3.486,3.4072,3.3605,3.2319,3.0528,2.9032,2.8664,2.8515,2.8975,3.0598,3.2555,3.4464,3.6426,3.7961,3.9497,4.1111,4.2109,4.2902,4.341,4.3497,4.3497,4.3497,4.3497,4.3497,4.3497,4.3497,4.3497,4.3497,4.3497,4.3497,4.3497,4.2231,4.113,4.0304,3.9344,3.8923,3.9099,3.9186,3.9314,3.9438,3.9552,3.9505,3.9301,3.9178,3.9044,2.4563,2.4673,2.4667,2.526,2.678,2.8899,3.1912,3.2855,3.4395,3.8925,3.7855,3.618,3.6383,3.5856,3.5434,3.5559,3.7968,3.9353,3.8068,3.8514,3.8717,3.799,3.7905,3.7905,3.7889,3.7905,3.7905,3.7889,3.8391,3.9024,3.9742,4.033,4.0666,4.0666,4.0787,4.0522,3.9794,3.9236,3.8992,3.8975,3.8992,3.8858,3.8673,3.8138,3.8503,3.9496,3.8183,3.8356,3.9658,4.0375,4.0752,4.0822,4.0326,4.007,4.007,4.007,4.007,4.007,4.007,4.002,3.9918,3.9918,3.9401,3.8832,3.8832,3.8359,3.7567,3.636,3.5351,3.4029,3.1598,2.8785,2.6346,2.5559,2.5988,2.6903,2.8175,2.9917,3.1979,3.4655,3.6257,3.7899,4.0195,4.1753,4.2864,4.341,4.3497,4.3497,4.3497,4.3497,4.3497,4.3497,4.3497,4.3497,4.3497,4.3497,4.3497,4.3497,4.2745,4.1937,4.1148,3.9833,3.9117,3.9099,3.9432,3.9457,3.9125,3.9438,3.9275,3.8719,3.8971,3.8961,2.4351,2.5281,2.6035,2.6193,2.7926,3.0268,3.286,3.3524,3.4371,3.7112,3.6645,3.584,3.607,3.596,3.5834,3.5871,3.7165,3.8174,3.8178,3.8486,3.8631,3.8408,3.8373,3.8066,3.7208,3.7601,3.7686,3.7161,3.7755,3.8223,3.8461,3.8631,3.8706,3.8706,3.876,3.8683,3.8478,3.8319,3.7984,3.7471,3.7972,3.7908,3.7386,3.7738,3.7686,3.7309,3.6942,3.7534,3.881,3.9713,4.0391,4.085,4.0317,4.007,4.007,4.007,4.007,4.007,4.007,4.0331,4.056,4.0169,4.0414,4.0651,3.9299,3.9053,3.8793,3.6859,3.5672,3.4558,3.2345,3.0227,2.8279,2.6886,2.7152,2.7718,2.8158,2.9793,3.1775,3.3825,3.5563,3.7488,4.0147,4.1437,4.2404,4.3356,4.3497,4.3497,4.3497,4.3497,4.3497,4.3497,4.3497,4.3497,4.3497,4.3497,4.3497,4.3497,4.2745,4.1937,4.1148,4.0926,4.03,3.9117,4.0021,4.016,3.9438,3.9552,3.9505,3.9327,3.9178,3.9063,2.4289,2.541,2.6386,2.6946,2.8699,3.0844,3.286,3.4835,3.6497,3.7437,3.7027,3.662,3.6877,3.6394,3.6006,3.5969,3.6987,3.7627,3.6953,3.7509,3.7882,3.7568,3.7106,3.6646,3.6241,3.6146,3.6045,3.5876,3.6299,3.6823,3.7432,3.7449,3.7449,3.7449,3.7753,3.777,3.7466,3.7452,3.7267,3.6801,3.7263,3.7034,3.635,3.7097,3.6956,3.6067,3.6067,3.6894,3.8251,3.8812,3.9645,4.0528,4.0204,3.9935,3.9682,4.0003,3.9935,3.9716,4.0214,4.0435,4.0461,4.0706,4.0826,4.0815,4.024,4.0197,4.0031,3.8492,3.7333,3.6105,3.452,3.2707,3.0576,2.8034,2.7789,2.8096,2.8096,2.9705,3.1656,3.3059,3.4986,3.7139,3.9413,4.0896,4.2103,4.305,4.3356,4.3497,4.3497,4.3497,4.3497,4.3497,4.3497,4.3497,4.3497,4.3497,4.3497,4.3497,4.3039,4.2268,4.1167,4.1093,4.0458,3.9117,3.9946,4.0061,3.9389,3.9389,3.9333,3.9242,3.9045,3.8933,2.444,2.5319,2.6135,2.765,2.9418,3.1113,3.2375,3.6153,3.9228,3.8578,3.8108,3.7895,3.8013,3.6966,3.6007,3.5935,3.7122,3.7317,3.5137,3.604,3.6657,3.5897,3.4836,3.4424,3.5059,3.4055,3.3677,3.4336,3.4387,3.4996,3.64,3.6535,3.6569,3.6569,3.7313,3.7398,3.6789,3.6652,3.6654,3.6796,3.6598,3.6163,3.5526,3.6395,3.6378,3.5622,3.5622,3.6451,3.7804,3.7878,3.8679,3.9901,3.9969,3.9547,3.8992,3.9648,3.9479,3.9091,4.0285,4.0306,3.9992,4.1276,4.0838,4.0087,4.1407,4.1525,4.1173,4.0781,3.9693,3.8418,3.764,3.5707,3.3097,2.9454,2.8452,2.8402,2.8402,2.9872,3.1536,3.2522,3.4691,3.6877,3.8417,4.0414,4.2021,4.2655,4.3178,4.3497,4.3497,4.3497,4.3497,4.3497,4.3497,4.3497,4.3497,4.3497,4.3497,4.3497,4.3424,4.269,4.1167,4.073,4.0077,3.9063,3.9464,3.9483,3.9044,3.9044,3.8933,3.8707,3.8707,3.8707,2.5235,2.595,2.6933,2.9127,3.1415,3.3091,3.3138,3.4413,3.5349,3.4542,3.5599,3.6559,3.617,3.62,3.6219,3.6219,3.614,3.6059,3.5957,3.5887,3.5645,3.5102,3.48,3.4414,3.3843,3.3575,3.3474,3.3626,3.3643,3.3778,3.4117,3.4675,3.4979,3.4979,3.5723,3.6303,3.6793,3.5618,3.5602,3.6754,3.4985,3.432,3.479,3.618,3.6378,3.5622,3.5622,3.6163,3.706,3.7682,3.8077,3.8419,3.8992,3.8772,3.8176,3.8338,3.8257,3.8244,3.8851,3.9708,4.0524,4.0795,4.125,4.1742,4.1795,4.1599,4.1386,4.152,4.0844,4.0004,3.9412,3.7399,3.5286,3.3949,3.2072,3.0556,3.0556,3.0856,3.1669,3.338,3.519,3.7022,3.8954,4.0678,4.2144,4.316,4.341,4.3497,4.3497,4.3497,4.3497,4.3497,4.3497,4.3497,4.3497,4.3497,4.3497,4.3497,4.291,4.2121,4.1148,4.1853,4.1181,3.881,3.9733,3.9733,3.8773,3.8773,3.8762,3.8707,3.8707,3.8707,2.5086,2.6004,0.0,2.9609,3.1623,3.2936,3.2502,3.2563,3.2629,3.2337,3.4075,3.5612,3.558,3.5465,3.5458,3.565,3.5422,3.5157,3.487,3.4927,3.4792,3.4321,3.3741,3.3171,3.275,3.2162,3.1833,3.1833,3.2154,3.2493,3.2848,3.3575,3.3964,3.3964,3.4353,3.4749,3.515,3.4399,3.4372,3.5179,3.3964,3.3583,3.4024,3.5176,3.5673,3.5622,3.5622,3.6056,3.6825,3.7216,3.7587,3.7869,3.7936,3.7733,3.7356,3.7371,3.7385,3.75,3.8347,3.9017,3.9638,4.0249,4.0854,4.1415,4.1903,4.185,4.1778,4.2425,4.2136,4.1462,4.092,3.9311,3.7423,3.5707,3.3557,3.1888,3.1888,3.2249,3.282,3.3808,3.5682,3.7398,3.8499,4.0431,4.2185,4.3321,4.3497,4.3497,4.3497,4.3497,4.3497,4.3497,4.3497,4.3497,4.3497,4.3497,4.3497,4.3497,4.3112,4.2341,4.1167,4.142,4.0685,3.8744,3.9268,3.9268,3.8707,3.8707,3.8707,3.8707,3.8707,3.8707,2.4814,2.6107,2.769,2.954,3.0962,3.1751,3.1034,3.0792,3.0722,3.0943,3.2709,3.436,3.478,3.4335,3.3989,3.4321,3.4449,3.4116,3.3135,3.3514,3.3723,3.3261,3.2127,3.1391,3.1408,3.0489,2.9973,3.0091,3.0548,3.119,3.2036,3.2553,3.2908,3.3001,3.3035,3.3035,3.3031,3.2885,3.289,3.3034,3.2887,3.2908,3.3054,3.3634,3.4482,3.538,3.538,3.5853,3.6593,3.6622,3.6902,3.7269,3.6787,3.6421,3.6105,3.6439,3.6387,3.6329,3.772,3.8108,3.8231,3.9643,4.014,4.0469,4.1717,4.1827,4.1754,4.28,4.2777,4.2278,4.1693,4.0537,3.8891,3.6374,3.4382,3.3012,3.2626,3.3192,3.3868,3.4068,3.6182,3.8028,3.8309,4.0357,4.2284,4.3214,4.3444,4.3497,4.3497,4.3497,4.3497,4.3497,4.3497,4.3497,4.3497,4.3497,4.3497,4.3497,4.3369,4.2656,4.1199,4.0581,3.9749,3.8638,3.8588,3.8546,3.8546,3.8658,3.8707,3.8707,3.8707,3.8707,2.5623,0.0,2.8782,0.0,2.9989,3.0448,2.9109,2.9304,2.9683,2.9394,3.0449,3.1526,3.1897,3.1858,3.181,3.188,3.2165,3.2358,3.2191,3.1959,3.1618,3.115,3.0386,2.9748,2.9428,2.9251,2.9397,3.0057,2.9583,2.9871,3.1258,3.0813,3.0828,3.1491,3.1483,3.1487,3.1499,3.0884,3.0849,3.1483,3.0842,3.0879,3.1506,3.1596,3.2723,3.4645,3.4645,3.5082,3.5774,3.5804,3.5507,3.5103,3.5719,3.4772,3.3351,3.5143,3.4814,3.3763,3.5402,3.6405,3.7163,3.8743,3.9574,4.012,4.1001,4.0744,4.0341,4.1185,4.1357,4.1186,4.0582,3.9453,3.8265,3.7414,3.6189,3.467,3.2614,3.2713,3.3483,3.4271,3.6686,3.9006,4.0275,4.1647,4.2616,4.2788,4.3214,4.3497,4.3497,4.3497,4.3497,4.3497,4.3497,4.3497,4.3497,4.3497,4.3497,4.3497,4.2837,4.2134,4.1397,4.0618,3.9623,3.8371,3.8133,3.8032,3.8013,3.8465,3.8707,3.8707,3.8707,3.8707,2.4858,2.5727,2.6612,0.0,2.7548,2.7178,2.7716,2.7707,2.7601,2.7644,2.7915,2.8683,3.0422,3.0198,2.9951,3.0674,3.0543,3.0428,3.0641,3.0504,3.0227,2.9796,2.947,2.9022,2.8366,2.8332,2.8298,2.8197,2.8281,2.867,2.9468,2.9505,2.9487,2.9504,2.9822,2.9966,2.998,2.9641,2.9653,2.9964,2.9644,2.9661,2.9962,3.0395,3.1776,3.3879,3.3888,3.4064,3.4361,3.4382,3.4024,3.3421,3.342,3.3141,3.2878,3.3235,3.3491,3.3874,3.5133,3.6207,3.7091,3.7788,3.8556,3.9386,4.0175,4.0175,4.0065,4.0873,4.1111,4.0909,4.0036,3.9403,3.8556,3.6915,3.6071,3.5239,3.3646,3.395,3.4737,3.5591,3.6725,3.8135,3.9957,4.1011,4.1823,4.26,4.3178,4.3497,4.3497,4.3497,4.3497,4.3497,4.3497,4.3497,4.3497,4.3497,4.3497,4.3497,4.2886,4.2195,4.1448,4.0491,3.9317,3.7877,3.8026,3.7916,3.7506,3.7998,3.8267,3.8267,3.8546,3.8707,2.3593,0.0,2.4373,2.5144,2.4777,2.4612,2.6227,2.6344,2.6254,2.6551,2.6277,2.6637,2.8731,2.8388,2.8175,2.9237,2.8965,2.8662,2.8752,2.8797,2.8733,2.8471,2.823,2.796,2.7571,2.7537,2.7385,2.7012,2.7334,2.7705,2.8178,2.819,2.8092,2.7935,2.8115,2.8202,2.8139,2.7935,2.8043,2.8407,2.8234,2.8337,2.8716,2.9248,3.0518,3.2308,3.2893,3.3219,3.3396,3.3237,3.2883,3.2364,3.127,3.1337,3.1992,3.0985,3.1582,3.3232,3.5009,3.6122,3.6825,3.6943,3.7667,3.8606,3.9209,3.9507,3.9717,4.0322,4.0372,4.0084,3.9294,3.889,3.8255,3.6407,3.5792,3.5414,3.4562,3.4897,3.5602,3.6571,3.6721,3.7285,3.9032,3.9966,4.0878,4.2006,4.2831,4.3339,4.3479,4.3497,4.3497,4.3497,4.3497,4.3444,4.3304,4.3286,4.3232,4.3069,4.2675,4.2095,4.1292,4.0332,3.9098,3.761,3.7815,3.7614,3.6999,3.747,3.772,3.772,3.8117,3.8401,2.2011,2.3052,0.0,2.0464,2.1969,2.4226,2.4337,2.5509,2.6573,2.6612,2.6277,2.6045,2.6183,2.6225,2.6386,2.6899,2.7204,2.7161,2.6484,2.6646,2.6843,2.681,2.6201,2.6048,2.6691,2.6759,2.7029,2.7671,2.7131,2.7163,2.8139,2.6719,2.6274,2.714,2.6509,2.6034,2.5765,2.5081,2.5459,2.6809,2.6129,2.6504,2.7841,2.7896,2.8387,2.9336,3.1448,3.2752,3.3368,3.2705,3.2424,3.2191,2.994,2.932,2.9526,2.8248,2.8587,3.0206,3.4236,3.5667,3.5783,3.6266,3.7117,3.7946,3.7982,3.8372,3.8781,3.8817,3.846,3.8054,3.7985,3.7279,3.652,3.6419,3.5993,3.5412,3.4752,3.4642,3.5066,3.6531,3.6776,3.706,3.7868,3.9015,4.0062,4.0695,4.1898,4.2939,4.3444,4.3497,4.3497,4.3497,4.3497,4.3286,4.2788,4.275,4.2519,4.1937,4.1853,4.156,4.0926,4.0203,3.9175,3.7902,3.7221,3.671,3.6457,3.6999,3.7228,3.7228,3.7266,3.7506,0.0,0.0,0.0,2.0446,2.0684,2.1235,2.1932,2.3235,2.43,2.43,2.4586,2.4935,2.5185,2.5308,2.5464,2.5624,2.5557,2.5419,2.5145,2.5227,2.527,2.527,2.5033,2.4983,2.5253,2.527,2.5592,2.6336,2.5983,2.6162,2.7194,2.604,2.5216,2.4834,2.495,2.4811,2.4509,2.4488,2.4781,2.5287,2.5496,2.5639,2.5727,2.7163,2.7709,2.762,2.9417,3.0621,3.1281,3.1534,3.1116,3.0269,2.9424,2.869,2.8058,2.7697,2.8841,3.0767,3.2268,3.3622,3.4823,3.5492,3.6194,3.6926,3.7575,3.8201,3.8707,3.8707,3.83,3.7825,3.7542,3.6943,3.6291,3.5985,3.5739,3.5515,3.5299,3.5253,3.5383,3.5932,3.6028,3.6282,3.706,3.7865,3.8799,3.9931,4.0872,4.1672,4.2315,4.2264,4.2359,4.2922,4.2829,4.2737,4.2696,4.2711,4.244,4.1853,4.1446,4.1133,4.0903,3.9873,3.8857,3.7922,3.7161,3.6474,3.5898,3.6416,3.6684,3.6684,3.7038,3.7285,2.0013,0.0,0.0,2.017,2.0391,2.0464,2.0703,2.1932,2.2997,2.2997,2.3437,2.3967,2.4508,2.4502,2.445,2.4618,2.4372,2.4036,2.3799,2.3951,2.412,2.412,2.412,2.4235,2.4489,2.4382,2.449,2.4993,2.4978,2.5032,2.5261,2.4463,2.3702,2.3001,2.3629,2.3966,2.3887,2.3789,2.4001,2.451,2.4765,2.472,2.4557,2.6281,2.6774,2.6437,2.7947,2.9041,2.9768,3.0268,2.9942,2.913,2.8921,2.83,2.7612,2.7827,2.9029,3.0725,3.1628,3.248,3.3377,3.4547,3.5414,3.6158,3.6998,3.7791,3.835,3.8433,3.7929,3.7379,3.7248,3.6684,3.6054,3.5694,3.5622,3.5622,3.5622,3.5622,3.5622,3.5622,3.5622,3.5774,3.6299,3.6915,3.7818,3.9222,3.9957,4.0651,4.1332,4.168,4.1953,4.2242,4.254,4.263,4.2426,4.2382,4.1973,4.0936,4.0706,4.0384,3.9886,3.9078,3.8278,3.755,3.6772,3.6129,3.5622,3.5985,3.6139,3.6139,3.6481,3.6823,0.0,0.0,0.0,1.9305,2.0923,2.2189,2.0796,2.1786,2.2978,2.2978,2.2978,2.3254,2.4025,2.3613,2.3316,2.3779,2.3574,2.3122,2.2412,2.2919,2.3388,2.3359,2.3359,2.3676,2.4371,2.4062,2.3852,2.3869,2.4128,2.3738,2.2468,2.1918,2.1642,2.1636,2.2607,2.3307,2.3699,2.277,2.2998,2.4413,2.3693,2.3755,2.4472,2.522,2.5575,2.561,2.7063,2.818,2.889,2.8994,2.8994,2.8904,2.8312,2.8102,2.8096,2.8339,2.8828,2.9758,3.2369,3.2374,3.1512,3.3474,3.4793,3.5661,3.6207,3.6981,3.7703,3.7825,3.7155,3.6539,3.702,3.6357,3.5622,3.5622,3.5622,3.5622,3.5622,3.5622,3.5622,3.5622,3.5622,3.5622,3.5622,3.6248,3.7189,3.8486,3.9292,3.9983,4.0618,4.1841,4.2368,4.1594,4.2685,4.3032,4.1937,4.1853,4.1016,3.9168,3.9697,3.9443,3.7956,3.7889,3.7533,3.6789,3.6011,3.5622,3.5622,3.5622,3.5622,3.5622,3.5639,3.6062,1.947,0.0,0.0,0.0,0.0,0.0,2.0631,2.1786,2.2832,2.2244,2.2593,2.2978,2.2986,2.2615,2.2482,2.2955,2.2798,2.2547,2.2344,2.2634,2.2819,2.2626,2.2771,2.2904,2.2914,2.2498,2.2452,2.2994,2.2155,2.1781,2.2099,2.0948,2.0266,2.0237,2.0937,2.1484,2.1771,2.1691,2.2079,2.2909,2.2697,2.2719,2.2953,2.4222,2.4515,2.407,2.4992,2.5849,2.6673,2.83,2.8662,2.8135,2.7944,2.755,2.7108,2.7171,2.8002,2.9271,3.0352,3.092,3.1376,3.2459,3.3609,3.4752,3.5562,3.6374,3.6999,3.702,3.6724,3.6333,3.6079,3.581,3.5622,3.5622,3.5622,3.5622,3.5622,3.5622,3.5622,3.5622,3.5622,3.5622,3.5622,3.5791,3.6412,3.7887,3.8308,3.8867,4.01,4.0806,4.1327,4.1688,4.225,4.2575,4.2465,4.244,4.18,4.0246,3.9956,3.9434,3.847,3.7563,3.6992,3.6772,3.6011,3.5622,3.5622,3.5622,3.5622,3.5639,3.6197,3.6569,0.0,0.0,0.0,1.9803,0.0,0.0,2.0686,2.1786,2.2868,2.2391,2.2666,2.3033,2.3171,2.2944,2.2807,2.3071,2.2857,2.2598,2.2338,2.2409,2.249,2.2338,2.2453,2.2463,2.231,2.1869,2.1702,2.197,2.1041,2.0661,2.1027,2.0198,1.9723,1.969,2.0029,2.0476,2.0994,2.1166,2.1584,2.23,2.23,2.2303,2.2344,2.3515,2.3808,2.3448,2.418,2.4736,2.5225,2.6386,2.7079,2.7351,2.7351,2.708,2.6742,2.7165,2.7621,2.8212,2.922,2.9632,2.9962,3.148,3.2437,3.3152,3.4336,3.484,3.51,3.5531,3.5779,3.5838,3.5664,3.5622,3.5515,3.5161,3.5068,3.5068,3.5144,3.5191,3.527,3.5577,3.5876,3.6096,3.6096,3.6366,3.6874,3.777,3.7905,3.8108,3.8633,3.9385,4.0092,4.0801,4.1538,4.2014,4.2134,4.2495,4.1974,4.0253,4.0428,3.9887,3.8235,3.8098,3.749,3.6315,3.6163,3.5943,3.5622,3.5622,3.5791,3.6129,3.6891,3.7415,0.0,0.0,0.0,2.0668,2.1823,0.0,2.1108,2.1988,2.307,2.2868,2.2832,2.2996,2.3562,2.351,2.3415,2.3444,2.3315,2.3014,2.2497,2.2415,2.2415,2.2349,2.2377,2.2377,2.231,2.1869,2.143,2.1023,2.0516,2.0089,1.9711,1.969,1.969,1.969,1.969,2.008,2.0911,2.0893,2.1337,2.2299,2.2308,2.231,2.2327,2.2988,2.3283,2.3317,2.399,2.4313,2.4356,2.3935,2.4812,2.6387,2.6421,2.6539,2.6793,2.7584,2.7242,2.6612,2.8472,2.8482,2.7978,3.0534,3.1281,3.1466,3.284,3.3051,3.3005,3.3916,3.4606,3.5065,3.5511,3.5537,3.5244,3.4431,3.4121,3.4072,3.4349,3.4397,3.462,3.5345,3.6185,3.6772,3.6772,3.733,3.7821,3.7889,3.7838,3.7567,3.6975,3.7978,3.8928,3.9575,4.0733,4.1504,4.1556,4.2298,4.1893,3.9797,4.0907,4.0488,3.7847,3.8912,3.838,3.598,3.6469,3.6424,3.5813,3.574,3.6096,3.6806,3.7635,3.8379,2.1712,2.2024,2.2373,2.1712,2.2281,0.0,2.2575,2.3272,2.3546,2.2007,2.1696,2.1419,2.0435,2.0923,2.1564,2.1949,2.2664,2.3159,2.3038,2.3271,2.3224,2.2704,2.2865,2.2832,2.2349,2.1869,2.143,2.1023,2.0277,1.9782,1.9711,1.969,1.969,1.969,1.969,1.9935,2.045,2.0128,2.075,2.2292,2.2303,2.231,2.231,2.2457,2.2491,2.2508,2.2665,2.3056,2.3579,2.3117,2.3538,2.4448,2.4631,2.5504,2.664,2.5995,2.5116,2.4519,2.6848,2.7604,2.7809,2.9669,3.0793,3.1515,3.2268,3.2865,3.3372,3.4032,3.3989,3.4015,3.5267,3.5047,3.4359,3.3859,3.2905,3.2317,3.3061,3.329,3.3545,3.4412,3.578,3.6772,3.6772,3.6907,3.7212,3.7821,3.7381,3.7161,3.7635,3.8305,3.8964,3.9678,4.0802,4.1756,4.2386,4.2996,4.2609,4.0899,4.0655,4.0074,3.885,3.8082,3.7739,3.7835,3.6967,3.6715,3.7103,3.6746,3.6637,3.6806,3.8159,3.8853,2.252,2.2703,2.2905,2.2501,2.2997,0.0,0.0,2.3621,2.3932,2.2994,2.2369,2.1904,2.1558,2.1622,2.1953,2.2544,2.3249,2.3692,2.3692,2.3203,2.2731,2.2387,2.2363,2.2233,2.1926,2.1602,2.113,2.0495,2.0177,1.9909,1.9711,1.969,1.969,1.969,1.969,1.9818,2.0,1.9794,2.0133,2.0991,2.1453,2.1653,2.167,2.2102,2.231,2.231,2.231,2.2491,2.279,2.2128,2.207,2.2541,2.3374,2.4408,2.5398,2.5054,2.4728,2.4554,2.5712,2.6321,2.6733,2.7886,2.8748,2.9548,3.0525,3.152,3.2459,3.3237,3.2899,3.2814,3.5047,3.5267,3.4514,3.2914,3.2067,3.1481,3.1305,3.1787,3.2577,3.3756,3.5162,3.6366,3.684,3.7161,3.7347,3.7347,3.7026,3.6772,3.6772,3.6979,3.7531,3.8581,3.9434,4.0197,4.0853,4.1738,4.1974,4.1167,4.1223,4.0833,3.9734,3.9443,3.9002,3.8359,3.7734,3.7452,3.7482,3.803,3.8167,3.7905,3.9022,3.9529,2.3235,2.3235,2.3217,2.3142,2.3675,2.4005,0.0,0.0,0.0,2.393,2.3209,2.2702,2.3006,2.2761,2.2641,2.3088,2.3697,2.4022,2.3768,2.2865,2.2238,2.2336,2.182,2.1531,2.171,2.1462,2.0988,2.0297,2.0269,2.0158,1.9839,1.9747,1.969,1.969,1.969,1.969,1.969,1.9697,1.9684,1.9691,2.0428,2.085,2.1033,2.172,2.2136,2.231,2.231,2.231,2.2225,2.1439,2.1037,2.1119,2.2261,2.3084,2.3628,2.4139,2.4538,2.4902,2.4771,2.4926,2.5303,2.5799,2.6735,2.7851,2.9088,3.0252,3.136,3.2188,3.1833,3.1749,3.4134,3.4566,3.3769,3.1326,3.1108,3.118,2.9864,3.0208,3.1218,3.2876,3.4496,3.5876,3.6671,3.7297,3.7483,3.6874,3.6654,3.6332,3.569,3.5622,3.6055,3.7301,3.7918,3.851,3.9121,4.0268,4.0921,4.0891,4.1479,4.133,4.0274,4.08,4.031,3.8645,3.8572,3.8443,3.8238,3.9276,3.9508,3.9005,3.9732,4.007,2.4061,2.4061,2.3985,2.3689,2.3903,2.4095,2.3707,0.0,2.393,2.2986,0.0,2.2257,2.1078,0.0,0.0,2.1306,2.265,2.3347,2.2227,2.2539,2.3027,2.3455,2.2201,2.1647,2.2486,2.1956,2.1497,2.1406,2.0733,2.028,2.0212,1.9909,1.969,1.969,1.969,1.969,1.969,1.9681,1.9723,1.9706,1.9795,2.0257,2.1016,2.1083,2.1575,2.231,2.231,2.231,2.2254,2.1627,2.1215,2.1006,2.1013,2.1137,2.1484,2.2546,2.3284,2.3767,2.3758,2.3789,2.3834,2.3906,2.6134,2.8945,2.9741,3.0577,3.1207,3.1326,3.1275,3.1275,3.1613,3.0931,2.9749,2.8349,2.9819,3.118,2.9864,2.8757,2.8764,3.1287,3.3836,3.5656,3.5774,3.6417,3.6874,3.6789,3.6197,3.5723,3.5639,3.5622,3.591,3.6825,3.7344,3.8163,3.9337,4.0019,4.0288,4.0033,4.012,4.012,3.9946,4.0038,3.9951,3.9735,3.9242,3.968,4.0953,4.02,3.9508,3.9005,3.9732,4.007,2.361,2.361,2.3631,2.3692,2.3816,2.3917,2.3976,2.4094,2.4079,2.3616,0.0,0.0,0.0,0.0,0.0,0.0,2.2116,2.2222,2.186,2.1657,2.1806,2.2501,2.208,2.156,2.1173,2.1275,2.1083,2.0381,2.0558,2.0583,2.0314,1.9909,1.969,1.969,1.969,1.969,1.969,1.969,1.9687,1.9708,1.9714,1.9898,2.0273,2.1275,2.1936,2.231,2.231,2.231,2.2254,2.1658,2.1263,2.0926,2.0335,2.0408,2.0932,2.1799,2.2742,2.3595,2.3595,2.3595,2.3724,2.4307,2.5582,2.7168,2.9248,3.048,3.119,3.119,3.119,3.119,3.119,3.0821,2.9978,2.8076,2.8427,2.9086,2.8532,2.803,2.7904,2.9011,3.0185,3.1417,3.2807,3.4759,3.6096,3.6096,3.5825,3.5622,3.5622,3.5622,3.574,3.6079,3.6577,3.713,3.765,3.8433,3.9063,3.9413,3.9717,3.99,3.99,3.9441,3.9203,3.9203,3.9904,4.0433,4.0708,4.1217,4.1205,4.0624,4.028,4.007,2.3189,2.3189,2.3259,2.35,2.3631,2.3756,2.4016,2.4113,2.419,2.419,2.3579,0.0,0.0,0.0,2.1834,2.2136,0.0,2.1551,2.1095,2.0875,2.1076,2.1881,2.1935,2.1348,1.9938,2.0654,2.075,1.9644,2.057,2.0879,2.0217,1.9963,1.9803,1.9711,1.969,1.969,1.969,1.969,1.969,1.9711,1.9677,1.9714,1.974,2.1022,2.185,2.2298,2.2316,2.231,2.2254,2.1562,2.1183,2.0894,2.005,2.0109,2.0782,2.1306,2.2398,2.3638,2.3964,2.4225,2.4576,2.5357,2.5598,2.6052,2.8334,3.0029,3.119,3.119,3.119,3.1055,3.0377,3.0477,3.0192,2.8125,2.7625,2.7625,2.7625,2.7625,2.7625,2.7625,2.7625,2.8332,3.0553,3.3345,3.5316,3.556,3.5453,3.5407,3.5577,3.5622,3.5622,3.5622,3.5941,3.6224,3.6392,3.7193,3.8077,3.8948,3.9557,3.9758,3.9374,3.9008,3.8853,3.894,4.0221,4.0868,4.0888,4.1944,4.2302,4.2021,4.103,4.0466,2.3189,2.3189,2.3189,2.3212,2.3459,2.3692,2.3714,2.3976,2.419,2.419,2.4171,2.4075,2.3774,2.3656,2.3115,2.1598,2.1976,0.0,0.0,2.0409,2.1638,2.2393,2.197,2.1021,1.9485,2.0457,2.0856,2.0027,2.0976,2.1105,1.9985,2.0139,2.0089,1.9711,1.969,1.969,1.969,1.969,1.969,1.969,1.9711,1.9703,1.9691,1.9762,2.0686,2.2302,2.2298,2.231,2.2237,2.137,2.1007,2.0894,2.005,2.0109,2.0737,2.0946,2.2113,2.3767,2.4792,2.5783,2.6607,2.6657,2.6657,2.6739,2.7139,2.9132,3.119,3.119,3.119,3.0642,2.8304,2.8575,2.9134,2.7894,2.7625,2.7625,2.7625,2.7625,2.7625,2.7625,2.7625,2.8167,2.9986,3.2579,3.4609,3.547,3.5052,3.4894,3.5515,3.5622,3.5622,3.5622,3.5622,3.5827,3.635,3.6921,3.765,3.8664,3.946,3.9305,3.8018,3.8686,3.9211,3.9483,4.0037,4.1088,4.2621,4.2085,4.2121,4.2673,4.2021,4.1446,2.2598,2.2598,2.266,2.2822,2.2947,2.3141,2.3588,2.3795,2.3917,2.4151,2.4016,2.3837,2.3714,2.3131,2.2346,2.145,2.113,2.0517,0.0,1.9992,2.0473,1.9738,1.9939,1.9843,1.9115,1.944,1.957,1.9299,2.0273,2.0701,2.031,2.0304,2.0246,2.0089,1.9839,1.969,1.969,1.969,1.969,1.969,1.969,1.9702,1.9703,1.9692,2.0655,2.2291,2.2295,2.231,2.2237,2.1162,2.0831,2.0894,2.005,1.9824,2.0154,2.1096,2.2313,2.353,2.3792,2.5137,2.6454,2.5112,2.4641,2.4655,2.4779,2.5439,2.6892,3.0269,3.0064,2.8607,2.7795,2.7894,2.8125,2.771,2.7625,2.7625,2.7625,2.7625,2.7625,2.7625,2.7625,2.7801,2.8388,3.0222,3.221,3.4008,3.4468,3.483,3.5515,3.5622,3.5622,3.5622,3.5622,3.565,3.5871,3.6374,3.7309,3.8876,3.92,3.9558,4.0002,3.9894,3.9859,3.9942,4.0324,4.078,4.1314,4.1647,4.2121,4.2711,4.248,4.208,2.231,2.231,2.236,2.2634,2.2695,2.2873,2.3544,2.3692,2.3774,2.3976,2.3837,2.3671,2.3544,2.2959,2.2327,2.181,2.1231,2.0435,0.0,1.9321,1.9116,1.816,1.8977,1.9424,1.8951,1.8894,1.8894,1.8894,1.9907,2.0324,1.9935,2.0162,2.0212,2.0089,1.9854,1.969,1.969,1.969,1.969,1.969,1.969,1.969,1.9696,1.9705,2.0639,2.2312,2.2316,2.231,2.2192,2.1066,2.0767,2.0894,2.005,1.9974,2.0528,2.153,2.2531,2.3431,2.3655,2.4499,2.5376,2.4483,2.3921,2.3595,2.3595,2.4268,2.5713,2.901,2.8795,2.7625,2.7625,2.7625,2.7625,2.7625,2.7625,2.7625,2.7625,2.7625,2.7625,2.7625,2.7625,2.7625,2.7625,2.8921,3.064,3.2611,3.3469,3.4137,3.48,3.4911,3.4958,3.5207,3.5253,3.5436,3.5854,3.6224,3.7036,3.858,3.921,3.9802,4.0367,4.0546,4.0612,4.0473,4.0577,4.0817,4.1121,4.1358,4.181,4.2382,4.2382,4.2302]}]]